     2.11           OBSERVATION DATA    G (GPS)             RINEX VERSION / TYPE
teqc 2010Oct21 OPUS Account 20111027 20:36:03UTC            PGM / RUN BY / DATE
U 1382                                                      MARKER NAME
2086                                                        MARKER NUMBER
CSMIDDLETON NGS                                             OBSERVER / AGENCY
0220269730 TRIMBLE 5700 NP 1.22 / SP 1.22                   REC # / TYPE / VERS
60041226 TRM41249.00 NONE                                   ANT # / TYPE
  -749615.7798 -5573523.7787  2999022.7110                  APPROX POSITION XYZ
        2.0010        0.0000        0.0000                  ANTENNA: DELTA H/E/N
     1     1                                                WAVELENGTH FACT L1/2
     5    L1    L2    C1    P1    P2                        # / TYPES OF OBSERV
    15                                                      LEAP SECONDS
  2011     8    20    15    42   30.0000000     GPS         TIME OF FIRST OBS
                                                            END OF HEADER
 11  8 20 15 42 30.0000000  0  9G03G06G07G10G13G16G19G20G23
   -228737.59058   -174139.40155  20855119.5394                   20855118.4534
    -62780.96957    -58008.64654  22323453.4144                   22323453.5234
   -375202.16457   -322310.82455  22796491.5784                   22796490.1484
   -214321.57456   -164098.16053  23926155.6484                   23926154.8134
   -435468.86757   -330503.29656  20284624.8444                   20284623.2304
     94864.23857     83937.65155  22397693.1024                   22397690.6454
   -467582.13757   -390370.92855  21592752.5474                   21592749.7304
    115411.91056     84229.83353  24128624.7584                   24128623.6914
   -181806.94558   -136725.82956  20069486.8754                   20069483.1374
 11  8 20 15 43  0.0000000  0 10G03G06G07G10G13G16G19G20G23G08
   -277111.59048   -211833.45145  20845914.1094                   20845913.3874
    -81606.22347    -72677.69444  22319871.3594                   22319871.1174
   -490490.64147   -412145.98544  22774553.3674                   22774551.6724
   -283814.75846   -218248.77543  23912931.1094                   23912931.3444
   -529053.03147   -403426.02146  20266816.3914                   20266814.4574
    122324.14147    105334.95544  22402918.4774                   22402915.9694
   -585335.16447   -482126.52345  21570344.5784                   21570341.6644
    143501.93046    106118.10943  24133970.0004                   24133969.2894
   -219457.71548   -166064.12046  20062321.9304                   20062318.6604
   -236284.99256   -171384.60753  24792711.0394                   24792711.7584
 11  8 20 15 43 30.0000000  0 10G03G06G07G10G13G16G19G20G23G08
   -325295.20747   -249379.14645  20836745.6024                   20836744.1054
   -100349.89147    -87283.17244  22316304.5784                   22316304.4104
   -606211.05947   -502317.71145  22752532.4844                   22752530.4614
   -353247.82046   -272352.43843  23899717.8984                   23899719.3554
   -622583.18747   -476306.67246  20249018.0944                   20249016.0164
    149468.83647    126486.61844  22408083.9384                   22408081.5124
   -703072.60247   -573869.96045  21547939.9224                   21547937.0594
    171088.77346    127614.23343  24139219.2194                   24139218.4694
   -256981.35548   -195303.34846  20055181.8284                   20055178.3484
   -358823.84846   -266869.38743  24769393.0704                   24769393.1024
 11  8 20 15 44  0.0000000  0 10G03G06G07G10G13G16G19G20G23G08
   -373284.09047   -286773.08545  20827613.4064                   20827612.6844
   -119008.39147   -101822.28244  22312753.7194                   22312753.4614
   -722358.32447   -592822.04644  22730430.3134                   22730429.1454
   -422616.23046   -326405.73043  23886518.0474                   23886518.4694
   -716052.27747   -549139.73346  20231231.4224                   20231229.5044
    176301.06647    147394.78244  22413189.9304                   22413187.9654
   -820787.02747   -665595.46845  21525539.4454                   21525536.9384
    198174.05146    148719.62843  24144373.7344                   24144373.0164
   -294373.27048   -224439.91846  20048066.1724                   20048062.4104
   -481852.82446   -362735.98443  24745981.6954                   24745981.9924
 11  8 20 15 44 30.0000000  0 10G03G06G07G10G13G16G19G20G23G08
   -421048.32047   -323991.97445  20818523.8674                   20818522.9454
   -137553.13747   -116272.74244  22309225.0704                   22309225.1914
   -838902.12147   -683635.37545  22708252.6884                   22708251.9184
   -491890.73846   -380385.84343  23873334.3364                   23873335.4694
   -809428.73847   -621900.60246  20213462.9694                   20213460.8324
    202848.51247    168081.05145  22418241.8754                   22418240.2464
   -938446.21147   -757277.94046  21503149.5084                   21503146.7234
    224784.94146    169455.23442  24149437.0164                   24149437.3754
   -331603.43048   -253450.45546  20040981.5234                   20040977.9454
   -605342.69146   -458961.81242  24722481.5634                   24722482.6564
 11  8 20 15 45  0.0000000  0 10G03G06G07G10G13G16G19G20G23G08
   -468562.35547   -361015.89145  20809482.2734                   20809481.2424
   -155959.13747   -130615.08644  22305722.8674                   22305721.7274
   -955816.38347   -774737.35045  22686004.0704                   22686003.3054
   -561045.73046   -434272.84043  23860174.2584                   23860175.1954
   -902684.46147   -694567.39346  20195716.4144                   20195715.0594
    229134.60947    188563.69244  22423244.0864                   22423242.0004
  -1056021.59047   -848895.07645  21480775.6724                   21480772.9774
    250944.95745    189839.58743  24154415.2664                   24154415.8754
   -368646.00048   -282314.78746  20033932.7034                   20033928.8404
   -729267.99246   -555526.89842  24698898.2424                   24698899.9414
 11  8 20 15 45 30.0000000  0 10G03G06G07G10G13G16G19G20G23G08
   -515809.52347   -397831.86045  20800491.5084                   20800490.3714
   -174210.85947   -144837.24044  22302249.2894                   22302248.5704
  -1073083.88747   -866114.61044  22663689.1724                   22663688.3054
   -630064.63746   -488053.83643  23847041.4384                   23847041.1764
   -995800.49247   -767125.34246  20177997.1884                   20177995.1024
    255174.19147    208854.22245  22428198.9224                   22428197.4734
  -1173493.19947   -940431.38246  21458421.8914                   21458419.2814
    276668.57445    209883.90843  24159310.8984                   24159310.2974
   -405484.22748   -311019.91346  20026922.6954                   20026918.9884
   -853611.57045   -652417.92642  24675237.7274                   24675238.0394
 11  8 20 15 46  0.0000000  0 10G03G06G07G10G13G16G19G20G23G08
   -562767.65647   -434422.60245  20791555.0944                   20791554.9574
   -192287.51247   -158922.95744  22298809.3984                   22298808.7424
  -1190682.59047   -957749.94944  22641310.6484                   22641309.8444
   -698925.97746   -541712.04243  23833937.2894                   23833938.0434
  -1088752.90247   -839555.79546  20160308.9144                   20160307.0514
    280987.05947    228968.11444  22433110.9844                   22433109.7504
  -1290836.21547  -1031867.48545  21436092.1174                   21436089.0864
    301975.18845    229603.23842  24164126.9454                   24164126.4344
   -442095.53548   -339548.22846  20019955.7274                   20019951.9064
   -978351.68045   -749617.91842  24651500.1564                   24651500.6644
 11  8 20 15 46 30.0000000  0 10G03G06G07G10G13G16G19G20G23G08
   -609419.71947   -470774.89045  20782677.9304                   20782677.2034
   -210172.68047   -172859.47644  22295406.0634                   22295405.9614
  -1308594.54747  -1049629.37545  22618872.9454                   22618871.8134
   -767612.66846   -595234.11543  23820866.2504                   23820867.0984
  -1181522.01247   -911843.41646  20142655.9384                   20142653.7664
    306588.47346    248917.22844  22437982.7584                   22437981.5044
  -1408030.51647  -1123187.69346  21413791.0084                   21413787.7114
    326879.78945    249009.34442  24168865.7584                   24168865.3324
   -478462.65648   -367886.26046  20013035.2584                   20013031.2194
  -1103471.15245   -847113.50842  24627689.7664                   24627691.1564
 11  8 20 15 47  0.0000000  0 10G03G06G07G10G13G16G19G20G23G08
   -655752.71547   -506878.51645  20773861.0394                   20773860.3674
   -227854.50847   -186637.52744  22292041.2274                   22292040.5634
  -1426806.63347  -1141742.66144  22596377.7894                   22596376.6024
   -836112.36746   -648610.51043  23807832.1334                   23807832.4384
  -1274092.79747   -983976.49046  20125040.1484                   20125038.0824
    331989.34046    268710.06344  22442816.6334                   22442815.0944
  -1525060.68047  -1214380.03146  21391520.8594                   21391518.1454
    351392.86345    268110.35743  24173531.1884                   24173529.5164
   -514572.21548   -396023.59846  20006163.7584                   20006160.3984
  -1228957.38745   -944894.95742  24603811.6174                   24603811.3594
 11  8 20 15 47 30.0000000  0 10G03G06G07G10G13G16G19G20G23G08
   -701760.84447   -542729.02845  20765106.0004                   20765105.5354
   -245328.06247   -200253.31644  22288716.7274                   22288715.6174
  -1545311.87147  -1234084.38544  22573826.5634                   22573825.7034
   -904419.29746   -701836.71343  23794833.2034                   23794834.0084
  -1366457.05947  -1055948.65346  20107464.1414                   20107461.8404
    357193.82847    288349.90944  22447612.9614                   22447611.2734
  -1641917.62947  -1305437.37946  21369283.6564                   21369280.7814
    375518.52045    286909.48043  24178120.8134                   24178121.0314
   -550418.27048   -423955.61346  19999342.8054                   19999338.5354
  -1354804.38755  -1042957.50052  24579862.9924                   24579863.2424
 11  8 20 15 48  0.0000000  0 10G03G06G07G10G13G16G19G20G23G08
   -747444.32847   -578326.55745  20756412.7664                   20756412.2814
   -262594.55547   -213707.74144  22285430.5864                   22285429.7234
  -1664109.91847  -1326654.24844  22551220.4534                   22551219.3834
   -972533.77746   -754912.95843  23781871.7344                   23781872.4964
  -1458612.62947  -1127758.18746  20089927.0704                   20089925.1914
    382199.80947    307835.04844  22452371.4064                   22452369.6914
  -1758598.80148  -1396357.76646  21347080.1174                   21347077.3054
    399253.98046    305404.52443  24182638.2344                   24182637.8914
   -586000.70748   -451682.19146  19992571.2894                   19992567.6334
  -1481012.42655  -1141301.37152  24555845.5944                   24555846.2894
 11  8 20 15 48 30.0000000  0 10G03G06G07G10G13G16G19G20G23G08
   -792811.28547   -613677.44845  20747779.5704                   20747778.9024
   -279662.74247   -227007.66244  22282183.0474                   22282182.1524
  -1783208.22347  -1419458.10144  22528556.7424                   22528555.6724
  -1040464.20346   -807845.74143  23768945.1024                   23768945.5164
  -1550565.44147  -1199409.72446  20072429.2664                   20072427.0274
    406997.51647    327157.88844  22457090.2424                   22457088.8444
  -1875108.93447  -1487144.86446  21324908.9224                   21324906.0434
    422589.55545    323587.99743  24187079.0554                   24187078.6564
   -621326.86348   -479209.08546  19985849.3444                   19985845.3794
  -1607589.13345  -1239932.52342  24531758.6564                   24531759.3404
 11  8 20 15 49  0.0000000  0 10G03G06G07G10G13G16G19G20G23G08
   -837863.23447   -648782.88545  20739206.7734                   20739205.8094
   -296535.60547   -240155.35144  22278972.1724                   22278971.5124
  -1902608.03547  -1512496.91144  22505835.7114                   22505834.7854
  -1108212.70746   -860636.81943  23756052.7584                   23756053.4344
  -1642315.04347  -1270902.92846  20054969.5474                   20054967.6134
    431583.08247    346315.41744  22461769.0164                   22461767.0314
  -1991447.04348  -1577797.92446  21302770.2274                   21302767.7114
    445520.76246    341456.38443  24191443.1334                   24191442.3484
   -656398.87548   -506537.94846  19979175.4224                   19979171.2154
  -1734536.65245  -1338852.63742  24507602.5084                   24507601.5234
 11  8 20 15 49 30.0000000  0 10G03G06G07G10G13G16G19G20G23G08
   -882603.42247   -683645.39045  20730693.3914                   20730692.1094
   -313217.13747   -253153.97445  22275797.7734                   22275797.5004
  -2022312.01246  -1605772.69144  22483056.6644                   22483055.3914
  -1175782.70346   -913288.81043  23743194.8444                   23743195.0744
  -1733862.01647  -1342238.23746  20037548.8914                   20037547.1174
    455951.71547    365303.89044  22466406.2894                   22466404.3404
  -2107613.16848  -1668316.98146  21280664.2974                   21280661.8364
    468042.50846    359005.61443  24195728.6804                   24195728.2734
   -691219.24648   -533670.71846  19972549.0704                   19972545.3244
  -1861858.14545  -1438064.13742  24483373.1564                   24483372.9964
 11  8 20 15 50  0.0000000  0 10G03G06G07G10G13G16G19G20G23G08
   -927036.27347   -718268.39445  20722237.4614                   20722236.5164
   -329712.80147   -266007.76944  22272658.7584                   22272657.8134
  -2142323.56247  -1699288.16944  22460218.8524                   22460217.4144
  -1243178.84046   -965805.25843  23730369.7664                   23730370.3054
  -1825208.64547  -1413417.44246  20020166.3674                   20020164.0864
    480097.00447    384118.35044  22471001.1174                   22470998.7154
  -2223608.89547  -1758703.24546  21258590.9924                   21258588.5744
    490148.88746    376231.30943  24199935.7814                   24199934.8594
   -725792.15248   -560610.66746  19965970.3204                   19965966.4694
  -1989557.36346  -1537569.93742  24459072.8364                   24459072.2734
 11  8 20 15 50 30.0000000  0 10G03G06G07G10G13G16G19G20G23G08
   -971164.94947   -752654.37645  20713840.1954                   20713839.0394
   -346026.62547   -278719.86544  22269554.0164                   22269553.5274
  -2262645.33647  -1793045.41144  22437323.2114                   22437321.5984
  -1310404.44546  -1018188.91443  23717577.0234                   23717577.4924
  -1916355.78547  -1484441.17846  20002821.2344                   20002819.4224
    504014.52347    402755.31344  22475552.4614                   22475550.4344
  -2339434.24648  -1848956.75846  21236550.5234                   21236547.5704
    511834.24246    393128.99943  24204062.3524                   24204061.5664
   -760120.79748   -587360.27446  19959437.7034                   19959433.6644
  -2117637.28546  -1637372.50442  24434700.1334                   24434699.7074
 11  8 20 15 51  0.0000000  0 10G03G06G07G10G13G16G19G20G23G08
    560438.92648    440803.14345  21005294.7424                   21005293.8134
   1213268.05947    936314.91545  22566277.9064                   22566277.5274
   -807844.74247   -659434.52644  22714162.5234                   22714161.1214
    197969.65246    157167.51143  24004610.9224                   24004611.8284
   -431870.93047   -327699.74946  20285309.5084                   20285307.5394
   2103128.71947   1648818.31244  22779853.6334                   22779851.5744
   -879655.41448   -711466.74646  21514337.2424                   21514334.5394
   2108522.87546   1637301.76543  24507902.1024                   24507901.6644
    781223.68048    613687.34046  20252745.6644                   20252742.2194
   -670666.50046   -509862.68442  24710049.4534                   24710050.3984
 11  8 20 15 51 30.0000000  0 10G03G06G07G10G13G16G19G20G23G08
    516926.88347    406897.64845  20997014.9844                   20997014.1294
   1197323.73447    923890.75344  22563243.7114                   22563243.7074
   -928774.93047   -753665.81544  22691149.8054                   22691148.5514
    131093.18846    105055.99643  23991885.4534                   23991885.4774
   -522603.39548   -398400.37046  20268043.4694                   20268041.5594
   2126594.18847   1667103.04744  22784318.9384                   22784317.1414
   -995122.56247   -801441.13646  21492364.3674                   21492361.6914
   2129368.91446   1653545.41842  24511868.9064                   24511869.3834
    747393.53948    587326.16546  20246307.9534                   20246304.3874
   -799498.51246   -610251.17343  24685534.5234                   24685533.9224
 11  8 20 15 52  0.0000000  0 10G03G06G07G10G13G16G19G20G23G08
    473723.90247    373232.98245  20988793.4224                   20988792.8984
   1181563.66447    911610.17444  22560244.7664                   22560244.7974
  -1050007.47746   -848132.70544  22668080.5084                   22668078.6914
     64391.52746     53080.68543  23979192.1564                   23979192.7274
   -613124.19147   -468936.06346  20250818.3914                   20250816.1644
   2149831.98047   1685210.40044  22788740.6334                   22788739.1294
  -1110405.21547   -891271.77046  21470426.9144                   21470424.4064
   2149793.32246   1669460.47543  24515754.6414                   24515755.0204
    713813.82048    561160.13346  20239918.1564                   20239914.3554
   -928706.05946   -710932.40443  24660946.3444                   24660946.5004
 11  8 20 15 52 30.0000000  0 10G03G06G07G10G13G16G19G20G23G08
    430835.70347    339813.59545  20980632.2814                   20980631.4144
   1165992.49647    899476.79444  22557281.2344                   22557281.3984
  -1171535.88747   -942830.17344  22644954.1804                   22644952.9614
     -2129.71546      1245.94343  23966533.2424                   23966534.4184
   -703425.37548   -539300.63646  20233634.4224                   20233632.3794
   2172846.07447   1703143.43344  22793120.3444                   22793118.6764
  -1225494.60547   -980951.80246  21448526.0084                   21448523.3984
   2169799.98446   1685049.95742  24519562.3204                   24519562.4064
    680490.41848    535193.82046  20233576.8134                   20233572.9224
  -1058282.41046   -811900.96743  24636288.9144                   24636289.5044
 11  8 20 15 53  0.0000000  0 10G03G06G07G10G13G16G19G20G23G08
    388259.00847    306636.92845  20972530.4454                   20972529.3914
   1150605.88747    887487.17544  22554353.1564                   22554353.8714
  -1293362.34447  -1037759.85745  22621771.6174                   22621769.5044
    -68474.14146    -50451.01543  23953908.4454                   23953908.9304
   -793508.19547   -609495.04646  20216492.3204                   20216490.1564
   2195631.69547   1720898.38344  22797456.7034                   22797455.1024
  -1340391.38747  -1070481.75546  21426662.2424                   21426658.9184
   2189383.57046   1700309.76242  24523289.1334                   24523288.8364
    647420.37948    509424.93746  20227283.5864                   20227279.6954
  -1188230.87546   -913159.36143  24611560.5234                   24611561.3634
 11  8 20 15 53 30.0000000  0 10G03G06G07G10G13G16G19G20G23G08
    345994.80947    273703.75045  20964487.5164                   20964486.8014
   1135404.62147    875642.00844  22551460.9064                   22551461.6454
  -1415484.45747  -1132919.92344  22598531.8674                   22598531.1374
   -134640.43746   -102009.17143  23941317.4924                   23941318.5164
   -883368.20748   -679515.84246  20199391.9774                   20199390.3444
   2218188.87147   1738475.36744  22801748.9144                   22801747.5904
  -1455090.91847  -1159858.00846  21404835.4224                   21404832.5944
   2208543.80946   1715239.80143  24526935.5004                   24526935.0514
    614605.51648    483854.87346  20221039.4614                   20221035.7234
  -1318549.69946  -1014706.50743  24586762.3134                   24586762.4344
 11  8 20 15 54  0.0000000  0 10G03G06G07G10G13G16G19G20G23G08
    304046.09447    241016.42245  20956505.0784                   20956504.2154
   1120390.19547    863942.43644  22548603.8524                   22548603.8984
  -1537898.83647  -1228307.69745  22575237.3914                   22575236.4804
   -200626.30946   -153426.74943  23928761.2894                   23928761.6374
   -973001.04347   -749359.61546  20182336.0634                   20182333.7114
   2240518.78547   1755875.24244  22805998.2734                   22805997.2664
  -1569587.47348  -1249076.10946  21383047.4844                   21383044.3364
   2227281.57046   1729840.56642  24530502.0554                   24530501.3444
    582048.48048    458485.73146  20214843.8834                   20214840.5084
  -1449235.76246  -1116539.74643  24561893.3444                   24561893.9964
 11  8 20 15 54 30.0000000  0 10G03G06G07G10G13G16G19G20G23G08
    262410.83647    208573.35745  20948582.4304                   20948581.3444
   1105560.11747    852386.48644  22545782.1484                   22545781.6094
  -1660606.03947  -1323923.73344  22551887.0704                   22551885.8524
   -266433.94546   -204705.39043  23916237.2814                   23916238.8134
  -1062405.80147   -819025.66646  20165322.6094                   20165320.6954
   2262618.15647   1773095.49944  22810204.3444                   22810202.5784
  -1683880.18747  -1338135.36246  21361298.4534                   21361295.2774
   2245593.18045   1744109.24242  24533984.8284                   24533985.6914
    549747.82448    433316.36646  20208697.3444                   20208693.8634
  -1580290.47346  -1218660.19743  24536954.2344                   24536954.9264
 11  8 20 15 55  0.0000000  0 10G03G06G07G10G13G16G19G20G23G08
    221087.62547    176373.43745  20940718.5704                   20940717.9304
   1090912.19947    840972.52444  22542994.3754                   22542993.8014
  -1783606.19547  -1419767.98044  22528481.0704                   22528479.9024
   -332064.57446   -255846.18443  23903749.3594                   23903750.1414
  -1151581.37148   -888513.13146  20148353.2194                   20148351.3874
   2284484.35947   1790134.05344  22814365.0634                   22814363.3484
  -1797967.17248  -1427034.31246  21339588.1254                   21339584.9694
   2263475.80145   1758043.66842  24537389.5554                   24537388.8954
    517702.57048    408346.01846  20202599.5164                   20202595.8404
  -1711714.44146  -1321068.37843  24511944.2664                   24511946.1294
 11  8 20 15 55 30.0000000  0 10G03G06G07G10G13G16G19G20G23G08
    180075.40247    144415.84245  20932914.8594                   20932913.4494
   1076444.12947    829698.65744  22540241.6804                   22540240.4384
  -1906899.50447  -1515840.67845  22505018.8204                   22505017.2664
   -397519.96946   -306850.43143  23891292.6254                   23891294.0124
  -1240526.89148   -957821.32146  20131427.5004                   20131425.3754
   2306114.84847   1806988.93844  22818481.1804                   22818478.9344
  -1911846.36347  -1515771.33146  21317917.5234                   21317914.5984
   2280926.38745   1771641.46542  24540710.0474                   24540708.9104
    485911.82448    383573.98846  20196549.9614                   20196546.5204
  -1843508.65646  -1423765.19843  24486864.6334                   24486866.2034
 11  8 20 15 56  0.0000000  0 10G03G06G07G10G13G16G19G20G23G08
    139376.57447    112702.46345  20925169.4224                   20925169.0044
   1062157.80947    818566.41844  22537523.1884                   22537522.2664
  -2030481.99647  -1612138.71445  22481501.7584                   22481500.7664
   -462797.52746   -357716.10143  23878871.5474                   23878872.0234
  -1329237.32047  -1026946.35046  20114546.3204                   20114543.9804
   2327510.89147   1823661.11544  22822552.7734                   22822550.6174
  -2025512.14547  -1604342.06745  21296287.7194                   21296285.0394
   2297946.18845   1784903.52342  24543949.0944                   24543947.6454
    454378.50048    359002.53846  20190549.0084                   20190545.5434
  -1975669.94946  -1526747.95443  24461715.0634                   24461716.4844
 11  8 20 15 56 30.0000000  0 10G03G06G07G10G13G16G19G20G23G08
     98987.00447     81230.04545  20917483.4304                   20917482.7894
   1048048.57447    807572.15144  22534838.3284                   22534837.1524
  -2154356.88747  -1708664.57745  22457929.5634                   22457928.3554
   -527901.39546   -408446.40543  23866482.6414                   23866483.2154
  -1417714.15647  -1095889.35046  20097709.9924                   20097707.8794
   2348667.24646   1840146.56044  22826577.8914                   22826576.3204
  -2138965.55947  -1692747.30545  21274697.6174                   21274695.3484
   2314529.38745   1797825.44142  24547103.7974                   24547104.2584
    423098.55548    334628.51946  20184596.9924                   20184593.4414
  -2108201.55546  -1630019.23143  24436495.4224                   24436497.4264
 11  8 20 15 57  0.0000000  0 10G03G06G07G10G13G16G19G20G23G08
     58910.00447     50001.19145  20909857.0314                   20909856.0664
   1034118.81347    796717.74744  22532187.9694                   22532186.2344
  -2278519.31647  -1805414.52245  22434301.7194                   22434300.9104
   -592828.05146   -459038.60643  23854127.2344                   23854127.8914
  -1505951.59848  -1164645.79946  20080919.1094                   20080916.9574
   2369585.93846   1856446.79944  22830558.9694                   22830557.8634
  -2252199.93747  -1780981.87846  21253150.3914                   21253147.8014
   2330677.94945   1810408.62142  24550177.5554                   24550177.5044
    392075.96148    310455.04846  20178693.3834                   20178689.9654
  -2241099.30546  -1733575.89343  24411206.0944                   24411206.5204
 11  8 20 15 57 30.0000000  0 10G03G06G07G10G13G16G19G20G23G08
     19138.89147     19010.71845  20902288.5704                   20902288.0634
   1020360.66047    785997.06144  22529569.0784                   22529568.3094
  -2402974.82847  -1902392.80545  22410618.6884                   22410617.5634
   -657584.95346   -509498.51643  23841804.9774                   23841805.5514
  -1593953.85547  -1233218.98546  20064172.5784                   20064170.3054
   2390259.01646   1872555.65444  22834492.9614                   22834491.2114
  -2365219.36747  -1869048.95646  21231643.5704                   21231640.7584
   2346383.46146   1822646.63742  24553165.9454                   24553166.3634
    361304.23848    286477.06046  20172837.8914                   20172834.0744
  -2374369.66846  -1837422.80643  24385844.6094                   24385846.3674
 11  8 20 15 58  0.0000000  0 10G03G06G07G10G13G16G19G20G23G08
    -20328.76647    -11743.33745  20894778.2664                   20894777.4964
   1006771.24647    775407.85044  22526983.0944                   22526982.6214
  -2527724.53147  -1999600.35645  22386879.5004                   22386878.6454
   -722174.71946   -559828.20443  23829514.0394                   23829514.3204
  -1681721.16048  -1301609.10346  20047471.1884                   20047468.7154
   2410683.08247   1888470.42044  22838379.4614                   22838377.9384
  -2478022.79747  -1956947.72046  21210177.6954                   21210174.8834
   2361642.15246   1834536.42043  24556069.3204                   24556070.6484
    330781.21948    262692.85646  20167029.5704                   20167026.0664
  -2508014.23046  -1941561.37843  24360411.9454                   24360414.6334
 11  8 20 15 58 30.0000000  0 10G03G06G07G10G13G16G19G20G23G08
    -59494.16047    -42261.84045  20887325.3054                   20887324.7384
    993348.41047    764948.45544  22524428.5704                   22524428.5864
  -2652768.19547  -2097036.94145  22363084.5944                   22363083.8554
   -786598.16446   -610028.27643  23817254.1644                   23817255.6564
  -1769252.29348  -1369815.18446  20030814.7194                   20030812.3364
   2430855.69147   1904189.29244  22842217.9064                   22842217.4184
  -2590608.44548  -2044676.78145  21188753.6024                   21188750.5634
   2376451.49646   1846076.09343  24558887.3834                   24558888.7504
    300505.91048    239101.67746  20161269.3054                   20161264.8054
  -2642033.74246  -2045992.12943  24334909.4534                   24334911.6524
 11  8 20 15 59  0.0000000  0 10G03G06G07G10G13G16G19G20G23G08
    -98357.13347    -72544.68845  20879929.8444                   20879929.2704
    980091.67647    754618.48444  22521906.0004                   22521905.8554
  -2778104.17647  -2194701.33144  22339234.2034                   22339232.5554
   -850855.76646   -660099.18443  23805027.0474                   23805026.9384
  -1856544.60548  -1437835.17246  20014203.4924                   20014201.2034
   2450775.93047   1919711.51244  22846009.6414                   22846008.1454
  -2702973.22747  -2132233.74246  21167371.1724                   21167368.4344
   2390809.98846   1857264.39943  24561620.6484                   24561621.2504
    270478.89148    215703.96946  20155554.2584                   20155551.1994
  -2776426.84045  -2150713.91943  24309334.8054                   24309337.0314
 11  8 20 15 59 30.0000000  0 10G03G06G07G10G13G16G19G20G23G08
   -136925.13347   -102597.70645  20872591.0864                   20872590.0744
    966992.89147    744411.60344  22519413.6174                   22519413.5864
  -2903738.55547  -2292598.23345  22315326.3984                   22315325.3914
   -914954.80946   -710046.48443  23792828.8914                   23792829.6054
  -1943602.78947  -1505672.75046  19997636.9844                   19997634.4694
   2470435.69147   1935030.74944  22849750.8834                   22849749.0824
  -2815121.09047  -2219621.66346  21146030.1094                   21146027.2464
   2404709.14546   1868094.76543  24564264.7504                   24564265.9414
    240693.10248    192494.22946  20149886.3444                   20149882.8134
  -2911200.18046  -2255732.11343  24283689.0314                   24283689.6764
 11  8 20 16  0  0.0000000  0 10G03G06G07G10G13G16G19G20G23G08
   -175196.41047   -132419.48545  20865308.5474                   20865307.5704
    954053.01647    734328.55744  22516951.6644                   22516950.9534
  -3029668.07847  -2390725.11745  22291362.8674                   22291361.6134
   -978893.61346   -759868.93343  23780661.5864                   23780662.2664
  -2030422.78147  -1573324.68846  19981115.1724                   19981113.2504
   2489835.52347   1950147.45144  22853442.4454                   22853440.7974
  -2927047.36347  -2306836.92146  21124731.3914                   21124728.4344
   2418149.13346   1878567.40443  24566822.2664                   24566823.7544
    211150.77048    169474.20346  20144265.0314                   20144261.1524
  -3046351.57446  -2361044.86143  24257970.6254                   24257971.7704
 11  8 20 16  0 30.0000000  0 10G03G06G07G10G13G16G19G20G23G08
   -213171.30547   -162010.34045  20858081.8834                   20858081.2774
    941271.32447    724368.75844  22514518.8594                   22514518.9344
  -3155891.35247  -2489080.89245  22267342.9844                   22267342.8164
  -1042672.44146   -809566.72943  23768525.3204                   23768526.1764
  -2117001.93048  -1640788.97746  19964639.7814                   19964637.8914
   2508974.44547   1965060.80544  22857084.2664                   22857082.6374
  -3038748.81247  -2393877.00846  21103475.0944                   21103472.3594
   2431128.78146   1888681.35143  24569292.9844                   24569294.0594
    181852.01648    146643.97146  20138689.4924                   20138685.3834
  -3181879.99646  -2466651.33243  24232180.9534                   24232181.5124
 11  8 20 16  1  0.0000000  0 10G03G06G07G10G13G16G19G20G23G08
   -250849.55947   -191370.04045  20850911.9384                   20850911.1454
    928646.98447    714531.57144  22512117.2194                   22512116.9534
  -3282406.60947  -2587664.19145  22243268.5784                   22243267.1564
  -1106291.46946   -859140.01643  23756418.4454                   23756419.7344
  -2203337.60947  -1708063.54546  19948210.6564                   19948208.7704
   2527851.76646   1979770.35644  22860675.8364                   22860674.5234
  -3150222.33247  -2480739.46746  21082262.6254                   21082259.4384
   2443647.15646   1898435.81143  24571675.7274                   24571675.7974
    152797.54348    124004.09746  20133160.6174                   20133156.9414
  -3317784.16446  -2572550.60543  24206318.5864                   24206320.0554
 11  8 20 16  1 30.0000000  0 10G03G06G07G10G13G16G19G20G23G08
   -288234.84447   -220501.44045  20843797.8204                   20843796.9694
    916175.68447    704813.65444  22509743.5634                   22509743.3794
  -3409215.85247  -2686476.60145  22219137.2034                   22219136.1334
  -1169754.43246   -908591.68743  23744341.6954                   23744342.4534
  -2289431.61748  -1775149.80246  19931827.6334                   19931825.2774
   2546462.90646   1994272.48344  22864217.2194                   22864215.5864
  -3261468.49647  -2567424.76346  21061092.6804                   21061089.8444
   2455699.02746   1907826.75843  24573968.6564                   24573969.5164
    123983.62948    101551.66246  20127677.6094                   20127674.0234
  -3454066.87546  -2678744.89043  24180385.5554                   24180386.0704
 11  8 20 16  2  0.0000000  0 10G03G06G07G10G13G16G19G20G23G08
   -325332.79747   -249408.95745  20836738.5784                   20836737.6724
    903851.30147    695210.22244  22507398.3754                   22507398.4454
  -3536323.42247  -2785521.41745  22194949.1884                   22194948.3134
  -1233066.74646   -957925.99943  23732294.1484                   23732295.0514
  -2375286.66447  -1842049.85046  19915489.8444                   19915487.6414
   2564801.45747   2008562.21143  22867707.8284                   22867706.0984
  -3372489.71147  -2653934.78546  21039966.4384                   21039963.5514
   2467277.83246   1916849.09243  24576172.4454                   24576172.4774
     95405.14548     79282.68446  20122239.0864                   20122235.1684
  -3590733.10246  -2785237.97742  24154378.7114                   24154378.6414
 11  8 20 16  2 30.0000000  0 10G03G06G07G10G13G16G19G20G23G08
   1213277.10547    949507.81645  21129526.2424                   21129525.2814
   2467092.62147   1913320.29744  22804873.1804                   22804873.2504
  -2088303.87547  -1657194.51245  22470498.2274                   22470497.2194
    279192.45746    220457.76643  24020067.5944                   24020068.7504
   -885478.33648   -681160.24946  20198990.9384                   20198989.1374
   4158285.37947   3250237.94244  23170938.3914                   23170936.0274
  -1907859.60947  -1512664.55046  21318676.0554                   21318673.1724
   4053801.28146   3153101.06943  24878077.9694                   24878078.1684
   1642482.39148   1284797.39346  20416638.0944                   20416634.7274
  -2152357.82046  -1664425.97043  24428092.4774                   24428092.4614
 11  8 20 16  3  0.0000000  0 10G03G06G07G10G13G16G19G20G23G08
   1176755.75447    921049.58745  21122575.7274                   21122575.2464
   2455061.68447   1903945.50444  22802583.7194                   22802584.1454
  -2216000.66847  -1756698.48845  22446198.3754                   22446197.2624
    216182.33646    171358.95743  24008077.1724                   24008078.4384
   -970846.35947   -747680.80446  20182745.8054                   20182743.7854
   4176078.16047   3264102.36744  23174323.4844                   23174322.1524
  -2018419.25447  -1598814.90645  21297637.4614                   21297634.1024
   4064432.46946   3161384.88343  24880100.9064                   24880101.1884
   1614377.71148   1262897.61146  20411290.0004                   20411286.5314
  -2289785.50846  -1771512.43743  24401941.2194                   24401940.9414
 11  8 20 16  3 30.0000000  0 10G03G06G07G10G13G16G19G20G23G08
   1140519.94147    892813.87645  21115681.0554                   21115679.9144
   2443173.68046   1894682.06044  22800321.8204                   22800321.6914
  -2343992.21547  -1856432.14945  22421842.5394                   22421841.6724
    153320.70746    122375.82143  23996115.2114                   23996115.9304
  -1055969.55547   -814010.57046  20166547.4304                   20166545.7894
   4193594.43847   3277751.39944  23177657.3054                   23177656.0554
  -2128746.23847  -1684783.97046  21276642.7114                   21276639.8324
   4074585.66046   3169296.49043  24882033.2584                   24882033.7974
   1586507.85948   1241180.82046  20405986.6334                   20405983.0704
  -2427595.18046  -1878896.57443  24375716.2974                   24375716.6564
 11  8 20 16  4  0.0000000  0 10G03G06G07G10G13G16G19G20G23G08
   1104566.60247    864798.25545  21108839.6254                   21108838.4494
   2431425.10547   1885527.32244  22798086.3834                   22798086.1524
  -2472279.67647  -1956396.41345  22397430.3054                   22397428.8524
     90604.55546     73506.05043  23984181.2504                   23984181.2154
  -1140848.50847   -880150.03746  20150395.3834                   20150393.7934
   4210830.56647   3291182.06844  23180937.0474                   23180935.9414
  -2238840.36347  -1770571.59746  21255692.3834                   21255689.4614
   4084256.84455   3176832.38752  24883873.4384                   24883873.9494
   1558870.25048   1219644.99546  20400727.3134                   20400724.0554
  -2565788.70346  -1986579.80643  24349418.7424                   24349419.4024
 11  8 20 16  4 30.0000000  0  9G03G06G07G10G13G16G19G23G08
   1068897.34047    837004.02245  21102051.6094                   21102051.0164
   2419817.17646   1876482.11844  22795877.0944                   22795877.0044
  -2600858.95347  -2056588.04445  22372962.9844                   22372961.3284
     28035.67646     24751.05843  23972274.2424                   23972274.8134
  -1225478.85548   -946095.77746  20134290.9224                   20134289.3444
   4227787.58647   3304395.25244  23184163.8674                   23184162.5594
  -2348696.21947  -1856173.56146  21234787.4224                   21234784.7114
   1531467.01248   1198291.78846  20395512.4384                   20395509.1994
  -2704362.87546  -2094559.65043  24323049.1174                   24323049.6174
 11  8 20 16  5  0.0000000  0  9G03G06G07G10G13G16G19G23G08
   1033516.47747    809434.48945  21095318.7424                   21095318.2504
   2408352.78547   1867548.77344  22793695.7114                   22793695.0204
  -2729725.33247  -2157003.38045  22348440.0314                   22348438.1884
    -34382.23846    -23886.31843  23960396.5394                   23960396.6374
  -1309854.37947  -1011842.94446  20118235.1484                   20118233.0474
   4244468.55046   3317393.29344  23187337.5944                   23187337.0634
  -2458307.41847  -1941584.87046  21213929.2664                   21213926.0354
   1504301.99648   1177124.22346  20390342.9774                   20390339.7894
  -2843312.84046  -2202832.28043  24296607.5864                   24296608.2384
 11  8 20 16  5 30.0000000  0  9G03G06G07G10G13G16G19G23G08
    998440.07447    782102.20545  21088643.9774                   21088643.3014
   2397047.84447   1858739.70844  22791544.8754                   22791543.8094
  -2858860.30947  -2257628.03645  22323866.4844                   22323864.9184
    -96632.85546    -72393.30843  23948550.4844                   23948550.3484
  -1393956.06648  -1077376.73846  20102230.6884                   20102228.8834
   4260889.39146   3330188.69943  23190462.9924                   23190461.3754
  -2567654.10247  -2026790.08046  21193121.6174                   21193118.4264
   1477392.17648   1156155.50246  20385222.5004                   20385218.9144
  -2982620.96946  -2311383.99143  24270097.7584                   24270099.0944
 11  8 20 16  6  0.0000000  0  9G03G06G07G10G13G16G19G23G08
    963665.09447    755004.80545  21082026.3284                   21082025.8594
   2385898.78147   1850052.08644  22789423.5634                   22789422.1024
  -2988264.55547  -2358462.52845  22299241.4534                   22299240.2034
   -158719.34046   -120772.38943  23936735.6414                   23936735.7464
  -1477784.73848  -1142697.79246  20086278.6884                   20086276.4454
   4277046.87146   3342778.83643  23193537.6094                   23193535.8364
  -2676736.35247  -2111789.24146  21172363.9694                   21172360.8324
   1450734.89848   1135383.56246  20380149.8984                   20380146.4024
  -3122288.82046  -2420216.05543  24243520.3914                   24243520.6914
 11  8 20 16  6 30.0000000  0  9G03G06G07G10G13G16G19G23G08
    929189.24647    728140.47445  21075466.1024                   21075465.4384
   2374902.61347   1841483.59844  22787330.4304                   22787329.9454
  -3117938.81647  -2459507.37845  22274565.5474                   22274564.3164
   -220644.10246   -169025.41743  23924952.0634                   23924952.3014
  -1561339.52047  -1207805.42646  20070379.0554                   20070376.8484
   4292937.96946   3355161.45844  23196562.3364                   23196559.4924
  -2785553.35247  -2196581.69746  21151656.2734                   21151653.6764
   1424328.19148   1114806.88846  20375124.7424                   20375121.5704
  -3262318.23446  -2529329.79643  24216873.8054                   24216873.3094
 11  8 20 16  7  0.0000000  0  9G03G06G07G10G13G16G19G23G08
    895007.30947    701505.17345  21068961.5084                   21068960.9494
   2364053.61747   1833029.79144  22785266.1334                   22785265.6374
  -3247886.13347  -2560765.02445  22249837.6254                   22249836.2034
   -282412.32446   -217156.54643  23913197.9614                   23913198.7624
  -1644623.45748  -1272702.00146  20054530.3364                   20054528.3874
   4308556.77746   3367331.93443  23199533.2034                   23199532.2664
  -2894106.76647  -2281168.78646  21130999.3674                   21130996.7304
   1398167.19948   1094421.67046  20370146.7734                   20370143.1484
  -3402712.61346  -2638728.00743  24190157.5634                   24190157.3984
 11  8 20 16  7 30.0000000  0  9G03G06G07G10G13G16G19G23G08
    861117.40647    675097.43445  21062512.5634                   21062511.6174
   2353349.46147   1824688.86744  22783229.2974                   22783229.2194
  -3378106.39847  -2662235.33145  22225056.8364                   22225056.1764
   -344025.35546   -265166.73043  23901473.5864                   23901474.2304
  -1727635.69147  -1337386.86346  20038734.1564                   20038732.0664
   4323901.52047   3379288.80344  23202454.5084                   23202451.7234
  -3002395.25447  -2365549.42346  21110393.0084                   21110389.6764
   1372250.82448   1074227.07046  20365214.9304                   20365211.4534
  -3543472.14546  -2748410.71843  24163372.1094                   24163372.3404
 11  8 20 16  8  0.0000000  0  9G03G06G07G10G13G16G19G23G08
    827512.56347    648911.80845  21056117.6954                   21056117.0434
   2342782.72347   1816454.96444  22781217.9694                   22781218.3444
  -3508604.06647  -2763921.82445  22200224.2814                   22200222.8714
   -405490.54346   -313061.69343  23889776.3444                   23889777.5354
  -1810380.60548  -1401863.42046  20022988.0634                   20022986.0554
   4338964.83247   3391026.39344  23205320.6174                   23205318.2424
  -3110422.34847  -2449726.36946  21089836.2274                   21089832.9104
   1346572.45748   1054217.92046  20360328.7584                   20360325.2234
  -3684602.52046  -2858382.35543  24136515.3674                   24136515.3484
 11  8 20 16  8 30.0000000  0  9G03G06G07G10G13G16G19G23G08
    794193.66447    622949.00945  21049777.6804                   21049776.5234
   2332353.45346   1808328.24544  22779232.9844                   22779233.9694
  -3639376.96547  -2865822.76745  22175339.0234                   22175337.3404
   -466807.30546   -360841.01843  23878108.1094                   23878109.6884
  -1892855.16448  -1466129.32646  20007293.8444                   20007291.6954
   4353747.05946   3402544.93043  23208133.2034                   23208131.3524
  -3218184.45347  -2533696.83246  21069329.4924                   21069326.6564
   1321132.87548   1034394.84546  20355487.6254                   20355483.8714
  -3826101.65246  -2968641.31743  24109589.1254                   24109589.2074
 11  8 20 16  9  0.0000000  0  9G03G06G07G10G13G16G19G23G08
    761159.93047    597208.42045  21043491.3914                   21043490.4924
   2322060.47346   1800307.69144  22777274.5004                   22777274.6294
  -3770423.28147  -2967936.77245  22150401.3834                   22150400.4304
   -527976.15646   -408505.09243  23866468.5634                   23866469.9304
  -1975057.24247  -1530182.89746  19991651.0554                   19991649.1684
   4368247.21146   3413843.66344  23210892.5474                   23210891.7194
  -3325678.78947  -2617458.64246  21048873.8524                   21048871.0084
   1295931.98448   1014757.76046  20350692.0004                   20350688.3054
  -3967968.99646  -3079187.30843  24082593.2424                   24082592.7814
 11  8 20 16  9 30.0000000  0  9G03G06G07G10G13G16G19G23G08
    728410.01247    571688.97845  21037259.0084                   21037258.0634
   2311901.77746   1792391.76344  22775341.9534                   22775341.5434
  -3901742.28547  -3070263.26045  22125412.4454                   22125411.1764
   -588998.48846   -456054.99543  23854856.5004                   23854856.4734
  -2056985.96948  -1594023.47146  19976060.6564                   19976058.6054
   4382463.51646   3424921.21243  23213597.5394                   23213596.8014
  -3432904.27747  -2701010.96346  21028469.6724                   21028466.4734
   1270968.40248    995305.59546  20345941.6564                   20345938.2814
  -4110203.85546  -3190019.63643  24055524.5084                   24055526.5394
 11  8 20 16 10  0.0000000  0  9G03G06G07G10G13G16G19G23G08
    695941.62947    546388.89745  21031080.7894                   21031079.6564
   2301874.60947   1784578.35144  22773434.8444                   22773433.5234
  -4033333.95347  -3172802.18645  22100371.2344                   22100370.1564
   -649876.69946   -503492.61743  23843271.1804                   23843272.7664
  -2138641.00448  -1657650.77746  19960522.0704                   19960520.2154
   4396393.33646   3435775.49544  23216249.3054                   23216248.1024
  -3539859.58647  -2784352.75546  21008116.7274                   21008113.5434
   1246240.68048    976037.20746  20341236.4844                   20341232.8444
  -4252807.58246  -3301139.35643  24028388.8984                   24028389.1884
 11  8 20 16 10 30.0000000  0 11G03G06G07G10G13G16G19G11G23G08G28
    663738.86747    521295.79345  21024952.6484                   21024951.7974
   2291962.25447   1776854.38044  22771548.0784                   22771547.5274
  -4165212.37147  -3275564.58645  22075275.6024                   22075274.3634
   -710626.82446   -550830.40943  23831711.5474                   23831712.4024
  -2220035.75448  -1721075.27446  19945033.1254                   19945030.6604
   4410020.41046   3446393.93044  23218842.3754                   23218840.6684
  -3646557.82047  -2867494.24246  20987812.6094                   20987809.8634
   2864595.84815                  24678405.266
   1221732.90248    956940.20646  20336572.5784                   20336569.1604
  -4395794.71146  -3412557.76443  24001180.0234                   24001180.6684
   2861321.55156   2246306.07452  24569474.0234                   24569472.8204
 11  8 20 16 11  0.0000000  0 11G03G06G07G10G13G16G19G11G23G08G28
    631780.96947    496393.51645  21018871.2034                   21018870.7704
   2282144.07847   1769203.80044  22769680.2274                   22769678.8094
  -4297395.57847  -3378564.47545  22050122.0084                   22050120.5554
   -771269.27746   -598084.27143  23820171.2274                   23820172.3364
  -2301188.07047  -1784310.85246  19929590.8834                   19929588.2934
   4423324.42646   3456760.67244  23221373.6564                   23221372.5944
  -3753015.88747  -2950448.58346  20967554.4774                   20967551.7034
   2714799.313 5                  24649899.094
   1197425.03948    937998.97546  20331946.6254                   20331943.4184
  -4539184.14546  -3524289.73943  23973893.4384                   23973894.5514
   2711400.68846   2129484.58242  24540945.5474                   24540945.4064
 11  8 20 16 11 30.0000000  0 11G03G06G07G10G13G16G19G11G23G08G28
    600055.61747    471672.42445  21012833.9454                   21012833.6414
   2272407.18047   1761616.55244  22767826.5634                   22767826.4064
  -4429893.47347  -3481809.57845  22024908.3674                   22024907.1334
   -831816.35246   -645263.88843  23808650.3984                   23808650.6684
  -2382107.71947  -1847365.13346  19914191.6804                   19914189.9494
   4436293.20746   3466866.15444  23223841.6414                   23223840.2704
  -3859242.88747  -3033222.84546  20947340.3914                   20947337.2424
   2564501.695 5                  24621299.039
   1173305.39148    919204.41546  20327356.8914                   20327353.5554
  -4682985.84446  -3636342.93543  23946528.8914                   23946528.8984
   2561348.64546   2012560.87243  24512392.3134                   24512392.2704
 11  8 20 16 12  0.0000000  0 11G03G06G07G10G13G16G19G11G23G08G28
    568571.16847    447139.05345  21006843.4454                   21006842.3874
   2262759.16847   1754098.57944  22765990.5784                   22765990.5944
  -4562695.70747  -3585291.83245  21999637.1254                   21999636.3674
   -892259.71946   -692362.58343  23797147.8524                   23797149.3834
  -2462784.00847  -1910229.78846  19898839.9144                   19898837.4774
   4448934.34446   3476716.30644  23226247.1414                   23226246.0004
  -3965227.73047  -3115808.43946  20927171.8754                   20927168.9184
   2413714.96945   1902540.00452  24592604.0864                   24592605.2154
   1149382.20348    900562.93146  20322804.8754                   20322801.5164
  -4827190.35246  -3748710.12543  23919087.8674                   23919087.4344
   2411175.69946   1895543.00543  24483815.5394                   24483815.1804
 11  8 20 16 12 30.0000000  0 11G03G06G07G10G13G16G19G11G23G08G28
    537335.24648    422799.34045  21000899.3594                   21000898.5234
   2253207.28547   1746655.53244  22764172.6484                   22764173.0824
  -4695792.23047  -3689003.39445  21974309.8134                   21974308.3164
   -952591.66446   -739374.51443  23785667.7664                   23785667.8404
  -2543206.42648  -1972896.61646  19883535.8364                   19883533.5904
   4461255.60246   3486317.18243  23228591.9924                   23228590.7854
  -4070959.37547  -3198196.74446  20907052.2034                   20907048.8324
   2262450.59846   1784671.73042  24563820.6884                   24563820.5274
   1125663.85948    882081.07946  20318291.3834                   20318287.7274
  -4971788.53946  -3861383.91243  23891571.5634                   23891571.9264
   2260892.00446   1778438.86643  24455218.0474                   24455216.6214
 11  8 20 16 13  0.0000000  0 11G03G06G07G10G13G16G19G11G23G08G28
   2081766.98447   1626252.59345  21294794.7504                   21294794.1724
   3819169.46947   2966885.76844  23062165.2034                   23062165.7304
  -3253758.19547  -2565340.48145  22248719.5554                   22248718.4024
    562607.86746    441300.37443  24074000.2584                   24074001.2504
  -1047952.43047   -807763.64746  20168073.2274                   20168071.1884
   6048674.35946   4723266.84043  23530668.3754                   23530665.4574
  -2601013.16047  -2052784.11246  21186773.6094                   21186770.4884
   3686135.69545   2894036.75842  24834738.8834                   24834738.3134
   2677569.20748   2091357.93546  20613609.1644                   20613605.4844
  -3541355.65246  -2746760.85143  24163773.5554                   24163774.0394
   3685922.28146   2888852.16443  24726391.4694                   24726392.6174
 11  8 20 16 13 30.0000000  0 11G03G06G07G10G13G16G19G11G23G08G28
   2051032.91847   1602303.95545  21288946.2274                   21288945.6374
   3809813.39547   2959595.26244  23060384.7344                   23060385.9144
  -3387431.16447  -2669501.23445  22223282.5234                   22223281.4804
    502503.68046    394465.94043  24062563.2034                   24062564.0434
  -1127855.61747   -870025.87546  20152868.7274                   20152866.1844
   6060360.60546   4732372.90043  23532892.3834                   23532889.6604
  -2706224.29347  -2134766.80046  21166752.6174                   21166748.8674
   3533933.13746   2775437.41842  24805775.2274                   24805775.4494
   2654265.97348   2073199.54746  20609174.9384                   20609171.1804
  -3686731.13346  -2860040.34243  24136110.0234                   24136109.1454
   3535427.61746   2771583.60843  24697752.6094                   24697753.2464
 11  8 20 16 14  0.0000000  0 11G03G06G07G10G13G16G19G11G23G08G28
   2020556.78547   1578556.26445  21283146.8284                   21283146.1454
   3800561.77347   2952386.15644  23058624.9614                   23058625.2814
  -3521381.53147  -2773878.12245  22197792.7974                   22197791.6454
    442520.59846    347725.84843  24051147.9384                   24051149.5204
  -1207487.89147   -932077.01546  20137714.7344                   20137712.9414
   6071736.56346   4741237.18243  23535056.6804                   23535054.4304
  -2811163.34447  -2216537.48946  21146782.9384                   21146780.0164
   3381274.75046   2656482.88742  24776724.7664                   24776725.7304
   2631178.09448   2055208.96146  20604781.4694                   20604778.1374
  -3832485.41046  -2973615.11343  24108373.8754                   24108373.4694
   3384837.79746   2654240.88343  24669096.1724                   24669097.2464
 11  8 20 16 14 30.0000000  0 11G03G06G07G10G13G16G19G11G23G08G28
   1990341.65247   1555011.98545  21277396.5314                   21277396.2544
   3791417.11347   2945260.40844  23056884.5864                   23056884.8404
  -3655603.99647  -2878467.04645  22172251.1884                   22172249.8524
    382661.46546    301082.36643  24039757.1954                   24039758.0084
  -1286844.06247   -993913.01346  20122613.9534                   20122611.5664
   6082805.29346   4749862.08543  23537163.5084                   23537161.1764
  -2915824.01247  -2298091.25746  21126867.1724                   21126863.9064
   3228167.30946   2537178.45742  24747590.7194                   24747590.0784
   2608309.21548   2037389.01946  20600429.5234                   20600426.2074
  -3978613.38746  -3087480.99243  24080566.0554                   24080566.7304
   3234158.24246   2536828.26642  24640422.4534                   24640423.0274
 11  8 20 16 15  0.0000000  0 11G03G06G07G10G13G16G19G11G23G08G28
   1960388.39147   1531671.73845  21271696.8284                   21271696.4964
   3782379.63747   2938218.14644  23055165.1564                   23055164.7074
  -3790095.07847  -2983265.27545  22146657.9774                   22146656.8674
    322927.12146    254536.03643  24028389.8444                   24028391.0594
  -1365920.84447  -1055531.30346  20107566.0864                   20107564.2234
   6093567.63346   4758248.25543  23539210.5554                   23539210.0704
  -3020202.61747  -2379425.23046  21107004.2034                   21107001.5594
   3074615.57846   2417527.81342  24718370.5634                   24718370.2584
   2585660.00848   2019740.25546  20596119.3444                   20596116.0744
  -4125112.71146  -3201636.25343  24052688.2034                   24052688.3164
   3083391.60945   2419347.82842  24611732.3284                   24611732.6914
 11  8 20 16 15 30.0000000  0 11G03G06G07G10G13G16G19G11G23G08G28
   1930700.28147   1508538.12145  21266047.4454                   21266046.9414
   3773452.25047   2931261.69944  23053466.5234                   23053465.9144
  -3924849.23047  -3088268.52245  22121015.4694                   22121013.7194
    263320.78946    208089.48643  24017048.1024                   24017049.2734
  -1444712.51247  -1116927.43046  20092572.4144                   20092570.8134
   6104026.97346   4766398.29743  23541201.3834                   23541201.1374
  -3124292.68047  -2460534.37646  21087196.4454                   21087193.3674
   2920626.68046   2297536.46542  24689067.8444                   24689066.5944
   2563234.04748   2002265.43546  20591851.9304                   20591848.8404
  -4271978.69246  -3316077.36343  24024740.9384                   24024739.3134
   2932543.66045   2301803.95342  24583027.5164                   24583027.1724
 11  8 20 16 16  0.0000000  0 11G03G06G07G10G13G16G19G11G23G08G28
   1901283.69547   1485616.07145  21260449.8984                   21260449.4804
   3764641.22347   2924395.88744  23051789.9144                   23051789.5704
  -4059857.11347  -3193469.45045  22095324.3914                   22095323.0204
    203849.19546    161748.00143  24005730.5944                   24005731.6804
  -1523209.54347  -1178093.95046  20077634.7974                   20077632.7074
   6114189.91846   4774317.41244  23543135.0704                   23543135.4024
  -3228084.42647  -2541411.03246  21067445.5784                   21067442.8094
   2766211.71946   2177213.21542  24659682.4844                   24659682.5044
   2541038.99248   1984970.56146  20587628.4924                   20587625.0864
  -4419202.60546  -3430797.12443  23996725.2664                   23996725.2034
   2781622.97745   2184203.44942  24554307.6094                   24554307.6844
 11  8 20 16 16 30.0000000  0 11G03G06G07G10G13G16G19G11G23G08G28
   1872140.88747   1462907.34245  21254904.0704                   21254903.8914
   3755948.84447   2917622.56344  23050135.6954                   23050135.9224
  -4195113.50447  -3298864.03345  22069586.0474                   22069585.1024
    144515.23046    115513.67443  23994440.6174                   23994440.6024
  -1601407.15248  -1239027.16646  20062754.5864                   20062752.3164
   6124059.32846   4782007.76644  23545013.5864                   23545013.0744
  -3331572.17647  -2622050.84546  21047752.8444                   21047749.5664
   2611377.10946   2056562.90642  24630219.1334                   24630217.7464
   2519077.09448   1967857.36646  20583449.3834                   20583445.9144
  -4566779.70346  -3545792.27543  23968641.9454                   23968642.2304
   2630634.27345   2066549.93842  24525576.7974                   24525575.8134
 11  8 20 16 17  0.0000000  0 11G03G06G07G10G13G16G19G11G23G08G28
   1843282.62947   1440420.35045  21249412.7734                   21249412.6604
   3747384.99647   2910949.39444  23048506.3134                   23048505.8094
  -4330605.37547  -3404442.11945  22043802.3134                   22043801.4964
     85329.09846     69394.58143  23983175.8984                   23983178.1414
  -1679292.23847  -1299716.85946  20047933.3364                   20047931.4184
   6133645.82046   4789477.69843  23546837.7034                   23546837.2544
  -3434742.08647  -2702442.96246  21028120.0704                   21028117.1174
   2456137.86346   1935597.33943  24600676.9924                   24600677.8484
   2497359.40648   1950934.45646  20579316.1954                   20579313.3094
  -4714697.93446  -3661053.14443  23940493.4844                   23940493.0944
   2479590.47746   1948853.50842  24496834.0004                   24496833.0354
 11  8 20 16 17 30.0000000  0 11G03G06G07G10G13G16G19G11G23G08G28
   1814711.44547   1418157.05145  21243976.0634                   21243975.7154
   3738951.68447   2904377.92844  23046901.2504                   23046901.4924
  -4466327.58647  -3510199.68345  22017974.9774                   22017974.0514
     26293.29746     23392.59343  23971943.3524                   23971943.4184
  -1756860.05547  -1360159.31746  20033172.9224                   20033170.9924
   6142952.12446   4796729.28443  23548609.1644                   23548608.8324
  -3537588.88747  -2782583.33146  21008549.1174                   21008545.5634
   2300500.74246   1814321.62543  24571061.1024                   24571060.7034
   2475888.77748   1934204.06746  20575230.5474                   20575226.9844
  -4862952.79346  -3776576.43143  23912281.4224                   23912281.3244
   2328495.90646   1831117.55542  24468081.4924                   24468081.2464
 11  8 20 16 18  0.0000000  0 11G03G06G07G10G13G16G19G11G23G08G28
   1786431.95347   1396121.04045  21238594.7114                   21238594.1994
   3730653.33247   2897911.59944  23045322.5474                   23045322.2384
  -4602272.88347  -3616131.07045  21992105.1174                   21992104.0554
    -32587.38346    -22488.50243  23960738.3364                   23960738.9804
  -1834103.34847  -1420348.89746  20018473.7664                   20018471.8134
   6151983.55146   4803766.67544  23550327.6414                   23550327.2114
  -3640105.07447  -2862466.06246  20989040.4534                   20989037.7154
   2144473.87146   1692742.35443  24541370.2194                   24541369.5984
   2454670.21948   1917670.10146  20571193.2664                   20571189.6374
  -5011537.77346  -3892356.84143  23884006.4534                   23884007.5274
   2177357.43846   1713347.41842  24439320.6024                   24439320.7464
 11  8 20 16 18 30.0000000  0 11G03G06G07G10G13G16G19G11G23G08G28
   1758455.03547   1374320.82145  21233270.6644                   21233269.9964
   3722500.69147   2891558.84544  23043770.7194                   23043771.1334
  -4738427.50047  -3722225.58145  21966196.6954                   21966195.4694
    -91301.78946    -68239.97343  23949565.4694                   23949565.6684
  -1911008.81247  -1480275.25646  20003839.0314                   20003837.3134
   6160750.93846   4810598.28943  23551996.6564                   23551995.2734
  -3742276.39547  -2942080.08546  20969598.0314                   20969594.8364
   1988072.97346   1570871.58043  24511607.3834                   24511607.7894
   2433714.95748   1901341.29846  20567205.2974                   20567202.2704
  -5160439.50446  -4008384.14743  23855672.0864                   23855672.0044
   2026188.87146   1595553.86343  24410554.6954                   24410554.4104
 11  8 20 16 19  0.0000000  0 11G03G06G07G10G13G16G19G11G23G08G28
   1730781.75047   1352757.18745  21228004.9224                   21228003.7624
   3714494.20746   2885319.91044  23042247.0084                   23042247.2854
  -4874787.60947  -3828480.20945  21940248.4064                   21940246.5394
   -149848.97346   -113861.16443  23938424.3524                   23938425.0594
  -1987572.55547  -1539935.33146  19989269.4304                   19989267.7734
   6169255.81646   4817225.35443  23553615.0004                   23553613.4184
  -3844098.62947  -3021422.07946  20950221.9924                   20950218.4694
   1831303.34446   1448713.57643  24481775.5474                   24481775.3914
   2413024.69548   1885218.98246  20563267.9924                   20563264.7624
  -5309655.12546  -4124656.06243  23827276.7034                   23827277.1414
   1874992.99646   1477738.91442  24381782.2424                   24381781.9064
 11  8 20 16 19 30.0000000  0 11G03G06G07G10G13G16G19G11G23G08G28
   1703411.04347   1331429.36045  21222795.7274                   21222795.0554
   3706632.78546   2879194.06643  23040751.0164                   23040750.8134
  -5011351.40647  -3934893.55345  21914261.0164                   21914259.2194
   -208229.69546   -159352.69543  23927315.0704                   23927314.6174
  -2063793.41447  -1599328.21146  19974765.6564                   19974763.1524
   6177497.88446   4823647.64843  23555182.9614                   23555182.2894
  -3945569.82447  -3100490.55546  20930912.7424                   20930909.5594
   1674168.25446   1326270.65242  24451873.5784                   24451872.8874
   2392598.37948   1869302.34046  20559380.8364                   20559377.7464
  -5459183.78546  -4241171.80143  23798822.6334                   23798822.4344
   1723771.28946   1359903.92043  24353005.9614                   24353005.5864
 11  8 20 16 20  0.0000000  0 11G03G06G07G10G13G16G19G11G23G08G28
   1676352.73047   1310344.91345  21217647.2194                   21217646.4654
   3698926.00046   2873188.69843  23039284.2114                   23039284.2894
  -5148105.99247  -4041455.57145  21888237.5004                   21888236.1724
   -266433.96146   -204706.73543  23916239.5394                   23916239.2934
  -2139658.70347  -1658444.03546  19960328.4924                   19960326.9144
   6185487.46946   4829873.21543  23556704.0234                   23556702.3914
  -4046676.58248  -3179275.04746  20911673.0084                   20911669.3714
   1516682.46146   1203554.52342  24421905.8204                   24421904.1524
   2372446.65648   1853599.66146  20555546.7584                   20555543.0514
  -5609013.11746  -4357921.90443  23770310.3594                   23770311.3014
   1572535.77746   1242058.09243  24324226.2814                   24324226.5984
 11  8 20 16 20 30.0000000  0 11G03G06G07G10G13G16G19G11G23G08G28
   1649613.08647   1289508.80845  21212558.6094                   21212558.0984
   3691380.00446   2867308.60243  23037848.4224                   23037848.8094
  -5285042.36747  -4148159.22245  21862179.5084                   21862177.7814
   -324455.67646   -249918.45043  23905197.9064                   23905198.5314
  -2215159.88347  -1717276.13446  19945961.2504                   19945959.4224
   6193231.00047   4835907.07943  23558177.1644                   23558175.6564
  -4147409.89848  -3257768.53546  20892503.7664                   20892500.2934
   1358856.21146   1080573.06642  24391872.1254                   24391871.3164
   2352576.17648   1838116.13646  20551765.2734                   20551762.0234
  -5759134.43446  -4474899.53043  23741743.5394                   23741744.3484
   1421295.14146   1124208.27742  24295446.7734                   24295445.5434
 11  8 20 16 21  0.0000000  0 11G03G06G07G10G13G16G19G11G23G08G28
   1623194.64847   1268922.99145  21207531.5474                   21207530.7034
   3683996.34446   2861555.04244  23036444.3054                   23036444.1484
  -5422155.60547  -4255000.71345  21836087.7584                   21836086.1174
   -382292.30546   -294985.96843  23894192.3914                   23894192.3954
  -2290292.31247  -1775820.90346  19931663.6334                   19931662.1684
   6200731.03946   4841751.14443  23559604.2974                   23559603.7424
  -4247764.35548  -3335966.82146  20873406.8054                   20873403.7154
   1200695.83645    957331.27342  24361774.7194                   24361775.1454
   2332989.42248   1822853.69146  20548037.7034                   20548034.6644
  -5909543.79746  -4592101.56243  23713121.5704                   23713121.7234
   1270053.85546   1006357.94943  24266665.8674                   24266665.2664
 11  8 20 16 21 30.0000000  0 11G03G06G07G10G13G16G19G11G23G08G28
   1597094.24247   1248584.96645  21202564.7664                   21202564.1724
   3676771.80147   2855925.47344  23035069.9304                   23035068.9574
  -5559445.87547  -4361980.14045  21809961.6644                   21809961.1414
   -439946.82846   -339911.62243  23883220.3204                   23883221.1254
  -2365056.48847  -1834078.72646  19917436.7194                   19917434.9024
   6207985.28546   4847403.67243  23560984.2274                   23560983.5784
  -4347740.00047  -3413869.92746  20854381.9224                   20854378.7974
   1042203.06646    833830.39842  24331614.0784                   24331614.7734
   2313683.72748   1807810.25946  20544364.4774                   20544361.0354
  -6060241.82446  -4709528.54343  23684445.3594                   23684445.1054
   1118811.23046    888506.64143  24237885.5314                   24237885.2934
 11  8 20 16 22  0.0000000  0 11G03G06G07G10G13G16G19G11G23G08G28
   1571320.77047   1228501.69145  21197660.5004                   21197659.9144
   3669715.41847   2850426.95944  23033726.2814                   23033726.2034
  -5696900.84847  -4469087.91845  21783805.1884                   21783803.6804
   -497409.82846   -384688.03743  23872286.0554                   23872286.5704
  -2439440.84047  -1892040.57946  19903281.9844                   19903280.3324
   6215003.50846   4852872.31043  23562320.2034                   23562319.5784
  -4447324.55147  -3491468.28946  20835432.1484                   20835429.0984
    883391.62546    710081.31642  24301393.9694                   24301393.8554
   2294668.64848   1792993.28046  20540745.8364                   20540742.7704
  -6211217.14547  -4827171.60443  23655715.4774                   23655715.4884
    967578.69546    770663.14643  24209107.6024                   24209105.8594
 11  8 20 16 22 30.0000000  0 11G03G06G07G10G13G16G19G11G23G08G28
   3121296.76247   2436275.17345  21492611.3834                   21492609.8094
   5238248.43447   4072660.42044  23332208.0164                   23332208.9964
  -4259091.47747  -3348716.98745  22057411.2114                   22057409.6294
   1020741.93446    798287.36443  24161181.1174                   24161180.3204
   -938018.97747   -722101.47946  20188992.8754                   20188991.2934
   7797207.52346   6085758.45643  23863404.2194                   23863402.7664
  -2971090.57047  -2341156.10946  21116349.8674                   21116346.9224
   2299692.66046   1813692.58843  24570905.7814                   24570907.4734
   3851366.67647   3006004.68946  20836975.5234                   20836972.6054
  -4787041.10246  -3717424.01943  23926727.4844                   23926727.2734
   2391784.91046   1880434.32343  24480124.8984                   24480123.6174
 11  8 20 16 23  0.0000000  0 11G03G06G07G10G13G16G19G11G23G08G28
   3096182.82047   2416705.79945  21487831.7504                   21487831.3874
   5231532.75846   4067427.38244  23330930.1024                   23330930.7384
  -4396861.49647  -3456070.24645  22031194.0554                   22031193.5864
    963667.12546    753813.38743  24150319.0234                   24150318.8754
  -1011630.64847   -779461.26346  20174985.3054                   20174983.5354
   7803760.66446   6090864.71043  23864651.1954                   23864650.2814
  -3069878.71947  -2418133.90046  21097550.9144                   21097548.1414
   2140262.66846   1689461.52743  24540567.8674                   24540568.7704
   3832939.35248   2991645.69146  20833468.8204                   20833466.0434
  -4938558.64846  -3835489.56943  23897894.4534                   23897894.6254
   2240584.75846   1762616.00943  24451351.8364                   24451351.2194
 11  8 20 16 23 30.0000000  0 11G03G06G07G10G13G16G19G11G23G08G28
   3071404.69147   2397398.13045  21483117.3524                   21483116.2774
   5224993.55546   4062331.82044  23329685.2274                   23329686.8444
  -4534778.31247  -3563537.89745  22004949.1804                   22004948.6954
    906792.98446    709495.86143  24139496.5944                   24139497.3524
  -1084845.96947   -836512.18546  20161052.9304                   20161050.7734
   7810088.88746   6095795.69843  23865855.3204                   23865855.0164
  -3168257.64547  -2494792.80146  21078830.2814                   21078827.1214
   1980536.73446   1564999.74443  24510173.7344                   24510173.6134
   3814812.69948   2977520.99146  20830020.1564                   20830016.7034
  -5090337.66846  -3953758.87143  23869011.0084                   23869011.4414
   2089411.18046   1644818.50043  24422584.6414                   24422584.6374
 11  8 20 16 24  0.0000000  0 11G03G06G07G10G13G16G19G11G23G08G28
   3046965.55147   2378354.61145  21478466.5784                   21478465.5234
   5218633.34846   4057375.75944  23328475.2664                   23328476.6374
  -4672836.05547  -3671115.34345  21978678.1254                   21978677.0124
    850122.44146    665336.97043  24128713.1564                   24128713.3874
  -1157660.11347   -893250.48746  20147196.8594                   20147195.1214
   7816195.13346   6100553.71043  23867017.3594                   23867016.9064
  -3266221.80147  -2571128.50946  21060188.1884                   21060185.4064
   1820522.04746   1440313.07943  24479723.4064                   24479723.4494
   3796989.70748   2963632.91546  20826628.2974                   20826624.7814
  -5242373.02046  -4072227.95643  23840080.7894                   23840080.0394
   1938268.62946   1527045.11243  24393823.1254                   24393821.7774
 11  8 20 16 24 30.0000000  0 11G03G06G07G10G13G16G19G11G23G08G28
   3022867.39147   2359576.78845  21473880.5784                   21473880.1294
   5212453.93846   4052560.59544  23327300.2504                   23327300.2504
  -4811029.26247  -3778798.36145  21952381.0944                   21952379.3554
    793657.83246    621338.46443  24117967.9064                   24117969.7194
  -1230068.14847   -949672.34746  20133418.0474                   20133415.9804
   7822082.47346   6105141.12643  23868137.6484                   23868136.3914
  -3363765.82047  -2647136.83946  21041626.2114                   21041623.4654
   1660225.37146   1315406.60043  24449219.7734                   24449220.0944
   3779473.58648   2949983.95046  20823295.1644                   20823291.8364
  -5394660.52346  -4190893.47343  23811100.6254                   23811100.8204
   1787161.70746   1409299.46243  24365068.4144                   24365068.0314
 11  8 20 16 25  0.0000000  0 11G03G06G07G10G13G16G19G11G23G08G28
   2999119.33247   2341071.75145  21469361.5004                   21469360.6844
   5206464.11346   4047893.09944  23326159.6174                   23326161.2154
  -4949346.39547  -3886577.91345  21926059.8444                   21926058.5394
    737408.20346    577507.58243  24107264.2034                   24107265.5084
  -1302059.18747  -1005769.28546  20119718.3674                   20119716.7664
   7827760.32046   6109565.41743  23869217.7274                   23869217.2854
  -3460878.06248  -2722808.72546  21023146.5084                   21023143.3634
   1499660.09446   1190290.92743  24418665.3364                   24418665.9264
   3762272.97747   2936580.84646  20820021.8524                   20820018.7504
  -5547188.42246  -4309746.33143  23782075.4304                   23782075.9494
   1636101.80546   1291590.56443  24336322.2814                   24336322.6414
 11  8 20 16 25 30.0000000  0 11G03G06G07G10G13G16G19G11G23G08G28
   2975726.02747   2322843.15044  21464909.8204                   21464909.3364
   5200668.84446   4043377.21544  23325057.6484                   23325057.7194
  -5087778.78547  -3994447.30045  21899717.0944                   21899715.5084
    681378.78546    533848.23443  24096601.8834                   24096602.9264
  -1373625.10947  -1061534.94546  20106099.8364                   20106098.2154
   7833234.92646   6113831.21543  23870259.4454                   23870259.1174
  -3557550.19547  -2798137.66046  21004750.4694                   21004747.1844
   1338836.45346   1064973.84043  24388061.5704                   24388061.8524
   3745393.32848   2923427.85046  20816809.8364                   20816806.7464
  -5699949.12146  -4428780.59043  23753006.2894                   23753005.6844
   1485096.55146   1173924.13543  24307586.5634                   24307587.0204
 11  8 20 16 26  0.0000000  0 11G03G06G07G10G13G16G19G11G23G08G28
   2952687.02747   2304890.64744  21460525.7194                   21460524.8794
   5195067.21546   4039012.22744  23323991.0864                   23323992.2974
  -5226324.06647  -4102404.65645  21873352.5944                   21873351.2194
    625568.87546    490359.93043  24085981.5234                   24085982.5554
  -1444764.68047  -1116968.39846  20092562.4534                   20092560.9734
   7838506.53946   6117938.84343  23871262.9774                   23871262.4454
  -3653779.72747  -2873121.72546  20986438.4304                   20986435.1764
   1177758.24646    939458.37343  24357409.8524                   24357409.1884
   3728834.98848   2910525.20146  20813658.9924                   20813655.8484
  -5852940.64846  -4547994.74143  23723893.5864                   23723892.5164
   1334147.83646   1056301.75543  24278861.5784                   24278862.4964
 11  8 20 16 26 30.0000000  0 11G03G06G07G10G13G16G19G11G23G08G28
   2930001.57047   2287213.63245  21456208.6884                   21456208.3484
   5189658.51646   4034797.61944  23322962.1414                   23322962.6454
  -5364979.80947  -4210448.09445  21846967.1174                   21846966.2304
    569978.06346    447042.36343  24075403.0474                   24075404.4414
  -1515475.90647  -1172068.07446  20079106.5004                   20079105.0124
   7843574.81646   6121888.07843  23872228.3134                   23872226.9384
  -3749564.52047  -2947759.21646  20968211.2344                   20968208.5354
   1016429.47746    813747.72343  24326709.0394                   24326709.2274
   3712597.22348   2897872.35946  20810568.8204                   20810565.6484
  -6006161.58246  -4667387.60943  23694736.1024                   23694736.2504
   1183257.14546    938724.54843  24250148.4924                   24250148.1214
 11  8 20 16 27  0.0000000  0 11G03G06G07G10G13G16G19G11G23G08G28
   2907678.73447   2269819.19445  21451961.2424                   21451960.3984
   5184451.34446   4030740.00044  23321972.2344                   23321971.1564
  -5503733.42247  -4318567.78345  21820563.1724                   21820562.1564
    514615.53546    403902.76943  24064867.9844                   24064869.0084
  -1585747.55547  -1226825.22946  20065734.4774                   20065732.7734
   7848449.89546   6125686.75943  23873156.3444                   23873154.9184
  -3844892.73447  -3022040.96346  20950071.0084                   20950068.2664
    854863.89846    687852.42743  24295964.1724                   24295963.9064
   3696689.32048   2885476.56845  20807541.7194                   20807538.5594
  -6159600.40646  -4786950.30943  23665537.0944                   23665537.2624
   1032435.60246    821201.32843  24221448.1484                   24221448.2274
 11  8 20 16 27 30.0000000  0 11G03G06G07G10G13G16G19G11G23G08G28
   2885719.54747   2252708.07745  21447782.2034                   21447781.7504
   5179446.85946   4026840.33744  23321019.1414                   23321018.6214
  -5642580.85947  -4426760.58745  21794141.9534                   21794140.1724
    459482.35946    360941.70643  24054376.6254                   24054377.1254
  -1655576.22347  -1281237.20146  20052446.1884                   20052444.9224
   7853133.66846   6129336.35843  23874046.8594                   23874046.0864
  -3939760.11747  -3095963.60846  20932018.2974                   20932015.3014
    693067.12946    561777.12943  24265174.9304                   24265175.4104
   3681112.56348   2873338.79246  20804577.6094                   20804574.5864
  -6313253.54746  -4906680.00743  23636299.1254                   23636298.3284
    881686.68846    703734.63843  24192762.0004                   24192761.8324
 11  8 20 16 28  0.0000000  0 11G03G06G07G10G13G16G19G11G23G08G28
   2864123.23447   2235879.74745  21443672.7664                   21443672.2194
   5174643.72346   4023097.54943  23320105.1564                   23320105.2034
  -5781519.84847  -4535024.72445  21767702.5084                   21767701.2504
    404577.71546    318158.83143  24043928.3444                   24043929.1644
  -1724960.23047  -1335302.69546  20039243.3054                   20039241.4414
   7857626.17246   6132836.83643  23874901.3984                   23874900.9064
  -4034165.14847  -3169525.97946  20914053.5474                   20914050.6844
    531043.39546    435524.93943  24234342.6884                   24234343.4964
   3665866.62948   2861458.79745  20801676.8444                   20801673.3674
  -6467119.24646  -5026575.25543  23607018.3984                   23607018.4414
    731012.11746    586325.94943  24164089.3674                   24164088.6334
 11  8 20 16 28 30.0000000  0 11G03G06G07G10G13G16G19G11G23G08G28
   2842888.73847   2219333.36445  21439631.9224                   21439631.5904
   5170041.18046   4019511.08043  23319229.4064                   23319229.3094
  -5920547.67647  -4643358.10345  21741246.0164                   21741245.0824
    349901.27746    275553.83543  24033524.9304                   24033524.6954
  -1793898.37947  -1389020.75646  20026124.7584                   20026123.1024
   7861927.34046   6136188.35743  23875720.1094                   23875720.3554
  -4128105.56247  -3242726.30446  20896177.3134                   20896174.3874
    368796.67646    309099.06243  24203468.1804                   24203468.6174
   3650951.05148   2849836.22246  20798838.3364                   20798835.4144
  -6621195.44546  -5146634.64543  23577698.8914                   23577698.0554
    580413.57446    468976.50042  24135431.7664                   24135429.9024
 11  8 20 16 29  0.0000000  0 11G03G06G07G10G13G16G19G11G23G08G28
   2822013.55947   2203066.93745  21435659.7734                   21435659.2304
   5165636.52746   4016078.76343  23318390.9454                   23318391.1564
  -6059663.59847  -4751760.10045  21714773.6024                   21714772.3364
    295450.31346    233124.46443  24023162.4064                   24023163.0824
  -1862390.60547  -1442391.33546  20013091.0784                   20013089.3594
   7866035.90646   6139389.75243  23876502.1254                   23876502.5744
  -4221580.87947  -3315564.22946  20878389.6174                   20878386.4104
    206329.26246    182501.14743  24172552.5004                   24172551.6374
   3636363.58648   2838469.33745  20796062.6644                   20796059.5554
  -6775482.28146  -5266858.13043  23548339.3134                   23548338.8364
    429890.73846    351685.99543  24106787.8754                   24106787.1294
 11  8 20 16 29 30.0000000  0 11G03G06G07G10G13G16G19G11G23G08G28
   2801497.35247   2187080.23445  21431755.6254                   21431755.2934
   5161429.09846   4012800.25843  23317589.9614                   23317590.2464
  -6198865.03547  -4860228.75145  21688284.3364                   21688283.1054
    241224.44946    190870.52143  24012843.9614                   24012844.0704
  -1930435.28547  -1495413.18346  20000142.5944                   20000140.8674
   7869952.19146   6142441.28443  23877247.5554                   23877246.9774
  -4314589.00048  -3388038.08746  20860690.4534                   20860687.6454
     43645.45746     55734.66743  24141594.5084                   24141594.3054
   3622104.19548   2827358.09746  20793348.8834                   20793346.0004
  -6929977.84846  -5387244.23343  23518939.2894                   23518939.5864
    279445.48446    234455.98443  24078158.9774                   24078158.3164
 11  8 20 16 30  0.0000000  0 11G03G06G07G10G13G16G19G11G23G08G28
   2781345.97747   2171377.82245  21427921.3204                   21427920.8874
   5157424.80546   4009679.87543  23316829.0004                   23316829.0824
  -6338142.32447  -4968756.50645  21661780.4694                   21661779.5514
    187230.10246    148796.90943  24002569.2584                   24002568.8874
  -1998023.77747  -1548079.55346  19987281.4144                   19987279.0124
   7873683.10546   6145348.40343  23877957.9614                   23877957.3484
  -4407120.60248  -3460140.63346  20843082.6644                   20843079.5944
   -119243.80546    -71191.97243  24110597.5944                   24110597.7504
   3608179.20348   2816507.41545  20790698.8364                   20790695.9884
  -7084673.16446  -5507785.96043  23489501.6724                   23489501.5204
    129086.46946    117293.14943  24049546.6954                   24049545.7034
 11  8 20 16 30 30.0000000  0 11G03G06G07G10G13G16G19G11G23G08G28
   2761556.18447   2155957.16445  21424155.0394                   21424154.8794
   5153620.56346   4006715.44043  23316104.9694                   23316105.1484
  -6477495.18047  -5077343.14945  21635263.0004                   21635261.7384
    133464.20746    106901.42743  23992338.1174                   23992338.0864
  -2065157.22347  -1600391.35046  19974505.8284                   19974504.0004
   7877226.59446   6148109.50143  23878631.9844                   23878632.3054
  -4499175.91448  -3531872.07046  20825564.7114                   20825562.3054
   -282336.60946   -198277.21343  24079562.0944                   24079562.8874
   3594585.71948   2805915.04445  20788112.3674                   20788109.2704
  -7239568.61346  -5628483.70243  23460025.8754                   23460025.0514
    -21186.93746       197.08543  24020950.2664                   24020949.5394
 11  8 20 16 31  0.0000000  0 11G03G06G07G10G13G16G19G11G23G08G28
   2742126.31347   2140816.99444  21420457.0944                   21420457.2584
   5150014.19546   4003905.25344  23315418.7114                   23315419.8984
  -6616922.21147  -5185987.58445  21608730.7274                   21608729.2464
     79924.80546     65182.34343  23982149.9384                   23982150.6254
  -2131835.34847  -1652348.34946  19961817.3364                   19961816.0274
   7880581.72746   6150723.77343  23879271.1484                   23879270.4024
  -4590754.47747  -3603231.99946  20808137.9694                   20808134.9534
   -445629.91446   -325518.67143  24048488.7664                   24048487.9104
   3581322.10948   2795579.72245  20785588.2344                   20785585.6644
  -7394663.55546  -5749336.85943  23430512.6884                   23430512.1954
   -171374.39846   -116832.15643  23992371.1644                   23992369.6414
 11  8 20 16 31 30.0000000  0 11G03G06G07G10G13G16G19G11G23G08G28
   2723054.78547   2125955.99044  21416828.7894                   21416827.6764
   5146604.14546   4001247.99744  23314769.7814                   23314771.2304
  -6756421.71547  -5294688.49145  21582184.9304                   21582183.7034
     26610.32846     23638.58943  23972004.4144                   23972004.6884
  -2198057.33647  -1703949.93746  19949215.7894                   19949214.0704
   7883747.91446   6153190.85143  23879873.3834                   23879872.3164
  -4681854.84848  -3674219.30446  20790802.3984                   20790799.5904
   -609120.68046   -452914.02043  24017376.8914                   24017376.3404
   3568387.19548   2785500.51945  20783127.1174                   20783124.0634
  -7549956.89546  -5870344.64343  23400961.1094                   23400960.9184
   -321475.04346   -233793.67443  23963806.6954                   23963805.8714
 11  8 20 16 32  0.0000000  0 11G03G06G07G10G13G16G19G11G23G08G28
   4279757.07447   3338970.72344  21713058.6334                   21713058.4494
   6718805.19146   5226339.65144  23613950.7584                   23613951.1954
  -5320570.29347  -4175843.23145  21855418.6804                   21855416.3364
   1548937.80146   1209867.72843  24261694.1564                   24261694.4844
   -688403.87147   -527596.61646  20236493.3984                   20236491.4774
   9462141.47746   7383107.84143  24180232.0234                   24180230.4224
  -3197056.37547  -2517233.49646  21073350.0784                   21073347.1294
    802616.67346    647141.07743  24286021.6884                   24286021.5704
   5131196.59448   4003274.03245  21080519.5784                   21080516.7114
  -6130025.91446  -4763904.85843  23671165.0474                   23671164.5744
   1103933.37146    876914.30743  24235054.0084                   24235053.3404
 11  8 20 16 32 30.0000000  0 11G03G06G07G10G13G16G19G11G23G08G28
   4261390.99647   3324659.44244  21709563.9534                   21709563.5044
   6715776.62546   5223979.63244  23613374.3674                   23613374.6054
  -5460214.49247  -4284656.86745  21828845.1804                   21828843.7734
   1496063.31346   1168666.76643  24251632.1564                   24251632.7154
   -753717.77347   -578490.57846  20224064.3364                   20224063.0164
   9464923.19546   7385275.31943  24180760.4614                   24180760.4574
  -3287202.82047  -2587477.46946  21056195.8284                   21056192.8164
    638735.54746    519441.64743  24254836.5864                   24254835.9844
   5118909.58248   3993699.70345  21078181.3364                   21078178.7304
  -6285718.41446  -4885223.61443  23641537.8364                   23641537.5704
    954002.78946    760085.35543  24206522.8674                   24206522.2974
 11  8 20 16 33  0.0000000  0 11G03G06G07G10G13G16G19G11G23G08G28
   4243377.37547   3310622.79544  21706135.8914                   21706135.4344
   6712938.55146   5221768.08044  23612833.6564                   23612834.3794
  -5599926.06647  -4393523.02245  21802258.3594                   21802257.5824
   1443408.93046   1127637.35143  24241612.2344                   24241613.0124
   -818574.09447   -629027.98646  20211723.0784                   20211721.3484
   9467513.71546   7387293.70843  24181254.1024                   24181253.5004
  -3376868.16447  -2657346.58546  21039132.9614                   21039130.1644
    474667.02746    391596.10343  24223615.0554                   24223614.9454
   5106946.54748   3984377.81045  21075905.0944                   21075902.1094
  -6441606.48446  -5006694.77444  23611872.8284                   23611873.1024
    804160.61346    643325.21343  24178009.0314                   24178007.6564
 11  8 20 16 33 30.0000000  0 11G03G06G07G10G13G16G19G11G23G08G28
   4225711.35947   3296857.04444  21702774.9304                   21702773.9494
   6710285.94946   5219701.07743  23612329.1484                   23612329.5864
  -5739706.37947  -4502442.74245  21775659.6564                   21775658.1134
   1390969.99246   1086775.83943  24231633.0164                   24231634.7624
   -882975.79347   -679211.14246  20199467.5704                   20199465.9414
   9469909.75845   7389160.65243  24181710.0864                   24181709.3634
  -3466054.74648  -2726842.63346  21022161.3444                   21022158.5164
    310410.58646    263604.12243  24192357.8754                   24192357.2464
   5095302.85548   3975304.77245  21073689.5474                   21073686.8444
  -6597692.07846  -5128319.90243  23582171.4844                   23582170.7274
    654404.41046    526632.08043  24149510.5004                   24149509.7504
 11  8 20 16 34  0.0000000  0 11G03G06G07G10G13G16G19G11G23G08G28
   4208390.48447   3283360.18944  21699479.2194                   21699478.5204
   6707816.30546   5217776.55643  23611858.3054                   23611859.2704
  -5879554.57447  -4611415.35145  21749047.0004                   21749046.0164
   1338743.72346   1046079.98643  24221695.3674                   24221696.4844
   -946923.20747   -729040.33446  20187298.9844                   20187297.4024
   9472109.76245   7390874.79443  24182128.4454                   24182128.1524
  -3554762.22347  -2795965.32746  21005281.0164                   21005278.0634
    145969.37146    135468.23943  24161065.9614                   24161065.2894
   5083976.86348   3966479.27345  21071533.6954                   21071531.2344
  -6753975.15247  -5250098.90943  23552430.9304                   23552431.6524
    504734.29746    410006.06543  24121028.9844                   24121029.3404
 11  8 20 16 34 30.0000000  0 11G03G06G07G10G13G16G19G11G23G08G28
   4191411.48047   3270129.77045  21696247.7034                   21696247.2894
   6705526.37146   5215992.13743  23611423.8364                   23611423.0004
  -6019469.99647  -4720440.34845  21722421.8364                   21722420.7854
   1286727.09446   1005547.54843  24211796.7814                   24211797.4454
  -1010417.59448   -778516.48846  20175216.6484                   20175214.5944
   9474111.94945   7392434.86043  24182510.1954                   24182509.3794
  -3642991.05147  -2864715.07346  20988491.6804                   20988488.5664
    -18655.32446      7189.29243  24129738.1094                   24129739.0984
   5072965.06348   3957898.62545  21069438.7734                   21069436.2424
  -6910456.02747  -5372032.01044  23522653.8834                   23522654.0944
    355149.36746    293446.38943  24092564.4304                   24092563.9884
 11  8 20 16 35  0.0000000  0 11G03G06G07G10G13G16G19G11G23G08G28
   4174771.52747   3257163.54344  21693081.5864                   21693081.5864
   6703413.35946   5214345.59843  23611021.3834                   23611021.5044
  -6159451.86347  -4829517.12745  21695784.0234                   21695782.8554
   1234917.60546    965176.44443  24201938.1564                   24201938.7664
  -1073459.46948   -827640.05346  20163220.2194                   20163218.1994
   9475914.48046   7393839.37243  24182852.6094                   24182852.4224
  -3730741.75847  -2933092.24746  20971793.6024                   20971790.4774
   -183460.90246   -121230.52743  24098376.8984                   24098376.4804
   5062265.32048   3949561.12545  21067402.3134                   21067399.7774
  -7067134.32447  -5494118.93743  23492838.7424                   23492838.7704
    205649.19546    176952.71043  24064116.0234                   24064115.6024
 11  8 20 16 35 30.0000000  0 11G03G06G07G10G13G16G19G11G23G08G28
   4158469.63747   3244460.70244  21689978.9534                   21689979.2894
   6701476.01246   5212835.86643  23610652.7274                   23610652.9494
  -6299497.79347  -4938643.80345  21669134.3674                   21669132.9694
   1183314.39146    924966.11943  24192117.9614                   24192117.6294
  -1136047.34848   -876409.85146  20151309.5864                   20151307.9734
   9477517.85946   7395088.64543  24183158.9534                   24183158.2854
  -3818012.28947  -3001095.26446  20955185.9304                   20955183.1294
   -348443.30146   -249788.22443  24066981.3284                   24066981.5634
   5051876.67248   3941466.01945  21065425.7504                   21065423.1804
  -7224008.31247  -5616358.40843  23462987.0554                   23462986.6914
     56235.45746     60526.48543  24035683.5004                   24035682.2304
 11  8 20 16 36  0.0000000  0 11G03G06G07G10G13G16G19G11G23G08G28
   4142502.43047   3232018.69545  21686940.3284                   21686940.9224
   6699711.23446   5211460.67443  23610316.9534                   23610316.5354
  -6439607.21547  -5047819.96545  21642472.6644                   21642471.1844
   1131914.51646    884914.28843  24182337.0084                   24182337.2734
  -1198182.74248   -924827.06846  20139485.9694                   20139484.1604
   9478919.97346   7396181.14243  24183424.8984                   24183424.6134
  -3904803.10547  -3068724.46746  20938670.5084                   20938667.5554
   -513600.48846   -378482.08343  24035553.8594                   24035553.0784
   5041796.33248   3933611.17145  21063507.3444                   21063504.5204
  -7381077.99246  -5738750.30943  23433096.6414                   23433097.4264
    -93092.75846    -55833.11343  24007267.0084                   24007266.4574
 11  8 20 16 36 30.0000000  0 11G03G06G07G10G13G16G19G11G23G08G28
   4126863.08647   3219832.14745  21683964.5084                   21683964.9774
   6698112.56346   5210214.86543  23610013.0944                   23610013.2384
  -6579782.87147  -5157047.74845  21615798.0474                   21615796.5044
   1080711.19146    845015.56043  24172592.8984                   24172595.1334
  -1259869.79747   -972894.92946  20127747.3054                   20127745.5634
   9480115.81346   7397112.86643  24183653.5634                   24183653.0554
  -3991118.34847  -3135983.11146  20922245.1414                   20922242.4534
   -678934.04346   -507313.31143  24004091.8754                   24004091.1604
   5032018.05948   3925991.70845  21061647.3284                   21061643.5984
  -7538347.35247  -5861297.88343  23403170.3134                   23403169.5554
   -242339.32046   -172129.05743  23978866.9144                   23978865.5634
 11  8 20 16 37  0.0000000  0 11G03G06G07G10G13G16G19G11G23G08G28
   4111554.01647   3207902.96344  21681050.9534                   21681051.5984
   6696681.75446   5209099.89943  23609740.3054                   23609740.9534
  -6720019.27747  -5266322.84345  21589112.0394                   21589110.5594
   1029706.63746    805271.68442  24162887.2424                   24162888.7774
  -1321104.57448  -1020610.36246  20116095.0704                   20116092.8674
   9481108.53946   7397886.29143  24183841.8524                   24183841.5394
  -4076953.37948  -3202867.57246  20905911.5004                   20905908.4104
   -844436.29346   -636276.05143  23972596.9224                   23972597.0474
   5022543.97748   3918609.25645  21059844.4224                   21059840.9694
  -7695811.25846  -5983996.98343  23373205.1564                   23373205.2854
   -391500.11346   -288358.26543  23950482.0554                   23950481.2584
 11  8 20 16 37 30.0000000  0 11G03G06G07G10G13G16G19G11G23G08G28
   4096580.94947   3196235.60545  21678202.2344                   21678202.3364
   6695424.97746   5208120.47643  23609501.4614                   23609502.2704
  -6860306.62147  -5375637.65645  21562416.1484                   21562414.9454
    978907.19545    765687.65642  24153219.5234                   24153221.8204
  -1381879.28947  -1067967.31146  20104530.0164                   20104527.8954
   9481905.36746   7398507.13943  24183993.5004                   24183993.5234
  -4162299.59048  -3269371.12746  20889670.3444                   20889667.5744
  -1010096.74646   -765362.02543  23941072.6094                   23941072.4184
   5013381.05948   3911469.29045  21058100.7504                   21058097.4804
  -7853460.97746  -6106840.90843  23343205.7114                   23343205.5274
   -540566.65246   -404513.94843  23922115.6804                   23922114.7854
 11  8 20 16 38  0.0000000  0 11G03G06G07G10G13G16G19G11G23G08G28
   4081943.98447   3184830.12044  21675416.7114                   21675417.5164
   6694342.30546   5207276.73543  23609294.7664                   23609296.1994
  -7000641.22347  -5484989.27245  21535711.5634                   21535710.2304
    928312.97346    726263.58642  24143591.7274                   24143594.3754
  -1442191.30947  -1114963.70746  20093052.7894                   20093051.3794
   9482508.21946   7398976.73543  24184108.7664                   24184108.7894
  -4247154.25848  -3335491.66346  20873523.1724                   20873520.1764
  -1175909.62146   -894566.82843  23909519.8524                   23909519.4774
   5004528.89548   3904571.46145  21056415.8914                   21056412.7424
  -8011292.96546  -6229826.82843  23313170.9694                   23313171.1604
   -689536.28946   -520594.13243  23893767.2274                   23893767.9024
 11  8 20 16 38 30.0000000  0 11G03G06G07G10G13G16G19G11G23G08G28
   4067645.97747   3173688.77444  21672696.0944                   21672695.9964
   6693436.70346   5206571.02143  23609122.8594                   23609123.8834
  -7141016.51647  -5594372.61545  21508998.7114                   21508997.3094
    877926.92246    687001.63443  24134004.2114                   24134006.2074
  -1502035.45347  -1161595.53946  20081664.8984                   20081663.1374
   9482921.24646   7399298.44643  24184187.0164                   24184187.1954
  -4331511.62147  -3401224.69746  20857470.4454                   20857467.2894
  -1341866.77746  -1023884.00843  23877938.9384                   23877939.5314
   4995990.62948   3897918.21545  21054791.4224                   21054788.5864
  -8169301.41446  -6352950.25443  23283103.4534                   23283103.0944
   -838403.89846   -636594.81143  23865439.0164                   23865439.0704
 11  8 20 16 39  0.0000000  0 11G03G06G07G10G13G16G19G11G23G08G28
   4053690.61747   3162814.42044  21670040.7734                   21670040.3134
   6692711.82446   5206006.10043  23608985.9694                   23608986.4144
  -7281424.94947  -5703781.77645  21482280.0394                   21482278.9224
    827753.03146    647905.03143  24124456.6644                   24124458.3244
  -1561406.26647  -1207858.52546  20070366.9534                   20070365.0274
   9483149.51246   7399476.33343  24184230.7664                   24184230.4344
  -4415365.75048  -3466565.58846  20841513.5394                   20841510.9964
  -1507959.42646  -1153306.83143  23846333.1334                   23846332.4144
   4987770.41848   3891512.79445  21053227.2664                   21053224.2234
  -8327479.54346  -6476205.88743  23253002.5634                   23253002.3164
   -987162.77346   -752510.81343  23837130.9304                   23837131.6604
 11  8 20 16 39 30.0000000  0 11G03G06G07G10G13G16G19G11G23G08G28
   4040091.43847   3152217.60744  21667453.0474                   21667452.3134
   6692181.20346   5205592.55643  23608884.3284                   23608885.6684
  -7421849.31247  -5813203.33145  21455558.2274                   21455556.5434
    777804.98046    608984.42743  24114951.5234                   24114953.4384
  -1620288.35247  -1253740.69946  20059162.1414                   20059160.1954
   9483207.66046   7399521.48442  24184241.7734                   24184241.2304
  -4498700.48048  -3531501.76246  20825655.5634                   20825652.6294
  -1674168.80146  -1282820.59543  23814704.2194                   23814703.8324
   4979881.98848   3885365.93945  21051726.2664                   21051723.1954
  -8485811.00846  -6599581.02243  23222873.1564                   23222872.6844
  -1135797.40646   -868329.93043  23808846.1484                   23808846.6764
 11  8 20 16 40  0.0000000  0 11G03G06G07G10G13G16G19G11G23G08G28
   4026857.98047   3141905.78944  21664934.7584                   21664934.1524
   6691854.86746   5205338.13643  23608822.7814                   23608823.7074
  -7562275.45747  -5922626.29945  21428835.5704                   21428834.4534
    728093.19546    570247.94243  24105492.9614                   24105493.4064
  -1678669.87547  -1299232.82446  20048052.6484                   20048050.7704
   9483107.52745   7399443.33642  24184221.1954                   24184222.6294
  -4581503.40247  -3596023.53946  20809898.8364                   20809895.5744
  -1840479.57446  -1412413.27943  23783056.8204                   23783056.5824
   4972335.87548   3879485.80145  21050290.2114                   21050287.2854
  -8644282.68746  -6723065.46743  23192717.1024                   23192717.2544
  -1284295.27346   -984042.48143  23780588.1174                   23780587.6054
 11  8 20 16 40 30.0000000  0 11G03G06G07G10G13G16G19G11G23G08G28
   4013997.80947   3131884.78244  21662487.8134                   21662486.9384
   6691739.98446   5205248.53243  23608799.6334                   23608801.8134
  -7702692.48447  -6032042.14845  21402115.2114                   21402114.1564
    678624.36346    531700.83443  24096078.2734                   24096079.7934
  -1736541.49247  -1344327.62546  20037040.0554                   20037038.4964
   9482857.81645   7399248.59843  24184175.4534                   24184174.7234
  -4663764.96947  -3660123.45146  20794244.6174                   20794241.8164
  -2006878.94546  -1542075.10843  23751391.2584                   23751390.9924
   4965139.34448   3873878.04545  21048920.9304                   21048917.9614
  -8802884.02046  -6846650.86043  23162536.4454                   23162535.9344
  -1432646.70346  -1099640.98443  23752357.9614                   23752357.9844
 11  8 20 16 41  0.0000000  0 11G03G06G07G10G13G16G19G11G23G08G28
   5576934.08247   4349757.14944  21959904.4694                   21959903.3834
   8267259.89546   6432926.31843  23908611.5944                   23908613.1644
  -6267668.78547  -4913841.85445  21675191.1804                   21675190.0084
   2204823.79746   1720947.08243  24386504.2274                   24386506.1294
   -218475.88347   -161419.38046  20325917.8834                   20325916.3914
  11057882.96146   8626540.83242  24483892.2424                   24483892.3014
  -3170056.39847  -2496194.72146  21078487.9454                   21078485.3634
   -597933.37946   -444195.46743  24019504.8364                   24019504.0314
   6533715.84448   5096145.39845  21347410.3284                   21347408.2934
  -7386183.44146  -5742728.32343  23432125.2894                   23432124.9774
     -5421.24646     12482.79443  24023949.9774                   24023949.2074
 11  8 20 16 41 30.0000000  0 11G03G06G07G10G13G16G19G11G23G08G28
   5564830.95747   4340326.10744  21957601.2114                   21957600.9924
   8267579.45346   6433175.24943  23908672.3444                   23908673.2504
  -6408044.90247  -5023225.82345  21648478.6484                   21648477.6334
   2155853.13346   1682788.13243  24377186.0314                   24377187.4144
   -275310.25447   -205705.92646  20315103.0164                   20315101.5044
  11057349.67245   8626125.19942  24483790.6334                   24483791.4454
  -3251216.12147  -2559436.06046  21063043.7034                   21063041.1804
   -764483.49646   -573974.71843  23987811.3134                   23987811.6094
   6527230.28548   5091091.67245  21346176.6254                   21346174.0594
  -7545023.55546  -5866499.82543  23401899.2734                   23401898.7154
   -153461.21946   -102872.98343  23995779.3754                   23995778.9454
 11  8 20 16 42  0.0000000  0 11G03G06G07G10G13G16G19G11G23G08G28
   5553106.42647   4331190.03944  21955370.1174                   21955370.0434
   8268116.19146   6433593.43443  23908775.3594                   23908775.5704
  -6548394.90247  -5132589.45945  21621771.0234                   21621769.4414
   2107131.72746   1644823.33443  24367914.9064                   24367915.7734
   -331623.43048   -249586.36346  20304386.8984                   20304385.7344
  11056676.81646   8625600.77742  24483663.0164                   24483663.1524
  -3331821.42647  -2622245.40446  21047704.6174                   21047702.4064
   -931100.89846   -703806.41843  23956105.0004                   23956104.7934
   6521100.54748   5086315.21045  21345010.5704                   21345007.4454
  -7703978.44546  -5990360.71043  23371650.9694                   23371650.7114
   -301342.16846   -218104.82343  23967638.7194                   23967638.5394
 11  8 20 16 42 30.0000000  0 11G03G06G07G10G13G16G19G11G23G08G28
   5541765.28947   4322352.72344  21953212.0864                   21953211.8164
   8268874.92646   6434184.53943  23908919.7114                   23908920.8484
  -6688710.35247  -5241926.16045  21595069.6094                   21595068.6724
   2058664.15246   1607056.29543  24358692.0554                   24358693.3484
   -387408.45348   -293055.24146  20293771.2504                   20293769.8914
  11055870.51646   8624972.38043  24483509.8754                   24483510.4454
  -3411865.10947  -2684617.12846  21032473.3834                   21032470.5314
  -1097775.37546   -833682.60143  23924388.1024                   23924387.8914
   6515331.52048   5081819.82445  21343912.3674                   21343909.6804
  -7863040.23446  -6114304.93243  23341382.6644                   23341381.7424
   -449056.57846   -333206.97343  23939529.4384                   23939528.9654
 11  8 20 16 43  0.0000000  0 11G03G06G07G10G13G16G19G11G23G08G28
   5530799.06647   4313807.57344  21951124.8054                   21951125.1804
   8269847.33246   6434942.17043  23909105.1254                   23909105.9884
  -6828995.37547  -5351239.18845  21568374.3364                   21568372.9454
   2010442.47346   1569480.96943  24349515.0164                   24349517.1174
   -442672.00047   -336117.79046  20283254.9224                   20283253.3754
  11054924.38346   8624235.04543  24483329.6484                   24483329.4224
  -3491353.09847  -2746555.82546  21017347.0634                   21017344.4414
  -1264509.89147   -963605.55443  23892659.6884                   23892659.7584
   6509915.27748   5077599.32345  21342881.6414                   21342878.9964
  -8022213.78146  -6238336.26144  23311093.1804                   23311092.5164
   -596610.33246   -448183.91743  23911450.4614                   23911450.5984
 11  8 20 16 43 30.0000000  0 11G03G06G07G10G13G16G19G11G23G08G28
   5520204.84847   4305552.31644  21949109.2344                   21949109.0594
   8271030.75246   6435864.18943  23909330.6884                   23909330.5704
  -6969249.08647  -5460527.76345  21541684.6954                   21541683.5434
   1962463.47746   1532094.61743  24340384.9694                   24340386.6564
   -497415.07447   -378774.73746  20272837.7274                   20272836.3914
  11053836.67246   8623387.43043  24483122.9774                   24483123.1604
  -3570286.18047  -2808062.13146  21002326.9144                   21002324.0784
  -1431302.28946  -1093573.65843  23860919.1564                   23860919.8954
   6504848.93048   5073651.45545  21341918.0084                   21341915.2234
  -8181499.02746  -6362454.57043  23280781.7974                   23280781.2274
   -744004.03146   -563036.16543  23883402.4064                   23883401.5004
 11  8 20 16 44  0.0000000  0 11G03G06G07G10G13G16G19G11G23G08G28
   5509975.77047   4297581.53244  21947163.0784                   21947162.5944
   8272418.20746   6436945.31143  23909595.0164                   23909594.1294
  -7109474.56647  -5569794.36945  21515000.7894                   21514999.6914
   1914720.86346   1494892.56443  24331300.4064                   24331302.0354
   -551642.52747   -421029.93846  20262518.1724                   20262517.2854
  11052602.64546   8622425.75843  24482888.0554                   24482888.2624
  -3648668.90647  -2869139.60946  20987411.2424                   20987408.8054
  -1598153.82046  -1223587.74743  23829169.2114                   23829169.2734
   6500125.69548   5069970.96745  21341019.5004                   21341016.2704
  -8340899.37546  -6486662.60143  23250449.0234                   23250448.5744
   -891242.08646   -677767.17243  23855383.5234                   23855383.1524
 11  8 20 16 44 30.0000000  0 11G03G06G07G10G13G16G19G11G23G08G28
   5500104.62147   4289889.64944  21945284.7664                   21945284.6484
   8274003.27746   6438180.40443  23909895.1414                   23909895.8164
  -7249674.29747  -5679040.90245  21488321.6254                   21488320.6604
   1867207.87946   1457869.39143  24322259.5394                   24322260.8594
   -605359.28948   -462887.18246  20252296.7424                   20252295.0864
  11051216.91446   8621345.82543  24482624.5634                   24482624.7894
  -3726505.20747  -2929791.28746  20972599.5164                   20972596.4654
  -1765065.57846  -1353648.87943  23797407.1724                   23797406.7544
   6495739.34448   5066552.96245  21340184.5234                   21340181.2274
  -8500418.50047  -6610963.20444  23220093.0554                   23220093.3054
  -1038328.64846   -792380.08043  23827394.0004                   23827393.0234
 11  8 20 16 45  0.0000000  0 11G03G06G07G10G13G16G19G11G23G08G28
   5490581.08247   4282468.65544  21943472.2194                   21943472.4414
   8275775.31346   6439561.03743  23910232.7344                   23910232.8634
  -7389854.78547  -5788272.44645  21461646.6094                   21461645.2854
   1819914.33246   1421017.25843  24313259.1414                   24313261.0004
   -658574.12948   -504353.31446  20242170.2664                   20242168.9884
  11049670.80946   8620140.93543  24482330.9924                   24482330.7074
  -3803803.66047  -2990023.86346  20957889.3134                   20957887.1524
  -1932042.84046  -1483760.99943  23765632.5554                   23765631.8954
   6491679.43848   5063389.34645  21339411.9384                   21339408.9614
  -8660063.56647  -6735361.92044  23189714.0004                   23189713.4184
  -1185271.88346   -906881.32643  23799431.3914                   23799430.3444
 11  8 20 16 45 30.0000000  0 11G03G06G07G10G13G16G19G11G23G08G28
   5481403.64847   4275317.35444  21941726.0554                   21941726.2734
   8277733.08246   6441086.54143  23910606.4224                   23910605.7584
  -7530013.54747  -5897487.04645  21434974.8204                   21434973.6024
   1772838.77046   1384334.94443  24304301.3754                   24304303.2034
   -711286.80547   -545428.15146  20232139.4614                   20232137.6024
  11047964.53946   8618811.26843  24482005.6564                   24482006.5164
  -3880563.18747  -3049836.50646  20943283.5164                   20943280.2704
  -2099081.33646  -1613920.81443  23733845.3444                   23733845.9264
   6487944.80148   5060479.17145  21338700.9454                   21338697.9654
  -8819832.57847  -6859857.25743  23159310.7034                   23159310.8954
  -1332070.85946  -1021270.10743  23771496.8364                   23771496.4414
 11  8 20 16 46  0.0000000  0 11G03G06G07G10G13G16G19G11G23G08G28
   5472568.27047   4268432.56944  21940045.0634                   21940044.8364
   8279873.16846   6442754.03143  23911013.6334                   23911013.2344
  -7670150.12547  -6006684.37045  21408308.1724                   21408306.7034
   1725977.47346   1347819.58843  24295383.6174                   24295384.8984
   -763498.69947   -586112.77246  20222204.0784                   20222202.4344
  11046096.04745   8617355.18743  24481650.5004                   24481650.1564
  -3956785.12947  -3109230.24446  20928778.8284                   20928775.9694
  -2266179.32846  -1744127.02643  23702048.0704                   23702047.2114
   6484532.03947   5057819.83045  21338052.0474                   21338049.4964
  -8979725.92647  -6984449.43844  23128884.3524                   23128884.1094
  -1478726.85246  -1135547.48143  23743589.7424                   23743587.8204
 11  8 20 16 46 30.0000000  0 11G03G06G07G10G13G16G19G11G23G08G28
   5464067.67647   4261808.66944  21938427.2894                   21938427.3874
   8282187.93846   6444557.67943  23911453.9144                   23911454.1454
  -7810268.31247  -6115867.34745  21381644.1724                   21381642.8444
   1679323.21146   1311465.50543  24286506.2344                   24286506.5944
   -815215.91447   -626411.93046  20212362.5944                   20212361.2274
  11044059.62146   8615768.30243  24481263.4304                   24481263.2704
  -4032474.92648  -3168209.31546  20914375.1414                   20914372.4184
  -2433338.90246  -1874381.15643  23670238.2034                   23670238.6214
   6481433.70748   5055405.48145  21337462.4534                   21337459.4224
  -9139747.76246  -7109141.81543  23098433.2424                   23098432.6174
  -1625244.74246  -1249717.20043  23715707.8914                   23715705.9774
 11  8 20 16 47  0.0000000  0 11G03G06G07G10G13G16G19G11G23G08G28
   5455903.23447   4255446.69444  21936873.9454                   21936873.6684
   8284679.14146   6446498.80943  23911927.8524                   23911928.8164
  -7950362.50047  -6225031.64545  21354985.5164                   21354984.4534
   1632877.62146   1275274.13443  24277667.5474                   24277668.3754
   -866435.12947   -666323.02946  20202615.8054                   20202614.4494
  11041858.09846   8614052.67242  24480844.6094                   24480843.6524
  -4107628.93047  -3226770.90846  20900074.2114                   20900071.0434
  -2600553.28546  -2004678.04243  23638418.3054                   23638418.3324
   6478651.30948   5053237.31045  21336932.8594                   21336930.1844
  -9299893.23047  -7233930.42844  23067958.4064                   23067957.7034
  -1771620.63346  -1363776.31243  23687853.2034                   23687851.6484
 11  8 20 16 47 30.0000000  0 11G03G06G07G10G13G16G19G11G23G08G28
   5448066.93847   4249340.40444  21935382.0554                   21935382.6134
   8287338.66846   6448571.10943  23912433.8984                   23912434.6054
  -8090436.81247  -6334180.44045  21328329.7734                   21328328.6884
   1586632.73446   1239239.09143  24268866.9534                   24268867.7704
   -917162.91848   -705851.19246  20192962.3054                   20192961.0514
  11039485.75046   8612204.01242  24480392.4384                   24480391.8324
  -4182252.95347  -3284919.49446  20885873.5164                   20885870.6484
  -2767824.77746  -2135019.44543  23606587.8914                   23606588.1024
   6476177.18448   5051309.37745  21336462.0784                   21336459.9454
  -9460166.92647  -7358818.98444  23037459.2664                   23037459.2344
  -1917860.29746  -1477729.22143  23660024.7114                   23660024.0784
 11  8 20 16 48  0.0000000  0 11G03G06G07G10G13G16G19G11G23G08G28
   5440551.10946   4243483.85744  21933951.5944                   21933952.4144
   8290159.27046   6450768.88643  23912970.2424                   23912972.2304
  -8230494.30547  -6443316.12045  21301678.0634                   21301675.9064
   1540581.18046   1203354.77543  24260104.6024                   24260105.2074
   -967404.86347   -745000.78946  20183401.8134                   20183400.4804
  11036936.54746   8610217.51242  24479907.0004                   24479907.1564
  -4256352.18047  -3342659.16645  20871772.9694                   20871770.4614
  -2935155.48446  -2265406.98343  23574745.2424                   23574745.2154
   6474004.12547   5049616.02945  21336048.6254                   21336045.9344
  -9620572.92647  -7483810.66843  23006934.9144                   23006934.7114
  -2063968.58946  -1591579.76943  23632220.4774                   23632220.5634
 11  8 20 16 48 30.0000000  0 11G03G06G07G10G13G16G19G11G23G08G28
   5433357.89547   4237878.68444  21932583.4144                   21932583.1334
   8293142.90246   6453093.66143  23913538.3834                   23913539.8484
  -8370529.28147  -6552434.27845  21275030.2584                   21275028.8834
   1494724.67646   1167622.38043  24251378.2344                   24251379.1374
  -1017157.45747   -783769.08746  20173934.4064                   20173932.8594
  11034213.97745   8608095.85542  24479389.1564                   24479388.8524
  -4329922.89148  -3399987.01646  20857773.1174                   20857770.1884
  -3102538.11346  -2395834.94443  23542894.2814                   23542894.2894
   6472133.83647   5048158.60045  21335693.0084                   21335689.8634
  -9781105.84847  -7608901.18744  22976386.5084                   22976386.5824
  -2209941.70346  -1705325.05043  23604442.7664                   23604443.6214
 11  8 20 16 49  0.0000000  0 11G03G06G07G10G13G16G19G11G23G08G28
   5426476.42647   4232516.43444  21931273.7424                   21931274.4304
   8296279.41846   6455537.63443  23914135.8674                   23914137.1764
  -8510547.71147  -6661539.52045  21248385.3834                   21248383.9694
   1449053.34446   1132034.26643  24242688.0474                   24242688.8134
  -1066429.46947   -822162.88246  20164558.1024                   20164556.5434
  11031309.82445   8605832.85242  24478836.4774                   24478835.7664
  -4402973.10247  -3456909.26746  20843872.1644                   20843869.4574
  -3269976.94946  -2526306.70943  23511031.3914                   23511031.6054
   6470556.18847   5046929.20945  21335392.6484                   21335389.7544
  -9941772.93047  -7734096.31444  22945813.0394                   22945812.5744
  -2355787.18046  -1818970.86243  23576688.8984                   23576689.8714
 11  8 20 16 49 30.0000000  0 11G03G06G07G10G13G16G19G11G23G08G28
   5419901.64147   4227393.17544  21930022.7894                   21930023.1644
   8299563.88746   6458096.84643  23914760.4534                   23914761.6334
  -8650550.58247  -6770632.65945  21221743.5944                   21221742.5004
   1403561.95746   1096586.33943  24234030.4144                   24234031.9844
  -1115223.89147   -860184.55046  20155272.9614                   20155271.5824
  11028220.96946   8603425.89743  24478248.9614                   24478248.4224
  -4475505.54348  -3513428.07046  20830069.2584                   20830066.8204
  -3437471.79746  -2656822.12643  23479158.5234                   23479157.9614
   6469266.48447   5045924.18845  21335147.2974                   21335144.5664
 -10102575.74647  -7859397.17344  22915213.0474                   22915213.1764
  -2501507.58246  -1932519.18743  23548960.3524                   23548960.3634
 11  8 20 16 50  0.0000000  0 11G03G06G07G10G13G16G19G11G23G08G28
   6989054.10547   5450109.32444  22228623.1174                   22228622.8714
   9878416.67646   7688371.61043  24215205.9924                   24215207.9774
  -7215108.97347  -5652106.72845  21494898.9384                   21494897.7734
   2933672.94146   2288880.58643  24525201.1884                   24525201.9614
    411882.47347    329768.42846  20445871.8284                   20445870.3244
  12600369.14046   9828476.35443  24777418.8754                   24777420.1484
  -2972095.83248  -2341939.99946  21116159.2034                   21116156.3324
  -2029591.12146  -1559772.16243  23747069.0474                   23747068.8094
   8043685.06647   6272743.80045  21634748.9454                   21634746.7854
  -8688084.99646  -6757196.53644  23184381.1954                   23184381.1604
  -1071675.48446   -818364.24944  23821048.3674                   23821047.9844
 11  8 20 16 50 30.0000000  0 11G03G06G07G10G13G16G19G11G23G08G28
   6983090.73847   5445462.49344  22227488.3364                   22227488.1374
   9881995.78846   7691160.45443  24215887.7974                   24215888.6724
  -7355070.17247  -5761167.38346  21468265.3364                   21468264.1054
   2888540.54746   2253712.40143  24516612.5004                   24516613.5904
    364045.81648    292493.09346  20436768.6564                   20436767.0824
  12596914.19546   9825784.08443  24776761.7584                   24776762.5084
  -3043588.81648  -2397648.84346  21102554.0784                   21102551.8054
  -2197182.81646  -1690363.08943  23715177.3834                   23715177.3954
   8042969.80947   6272186.39945  21634613.0314                   21634610.2814
  -8849150.34447  -6882701.98944  23153731.9774                   23153730.9454
  -1217140.49246   -931713.62143  23793366.7814                   23793367.2424
 11  8 20 16 51  0.0000000  0 11G03G06G07G10G13G16G19G11G23G08G28
   6977435.64147   5441055.82744  22226412.2034                   22226411.8794
   9885725.06646   7694066.21643  24216597.7114                   24216597.8404
  -7495002.14547  -5870205.26646  21441637.1174                   21441636.0554
   2843590.14546   2218686.13343  24508057.8524                   24508060.3014
    316693.04348    255594.79546  20427757.7974                   20427756.1804
  12593281.62546   9822953.42243  24776071.2034                   24776071.3054
  -3114556.21148  -2452948.12246  21089049.6414                   21089046.4964
  -2364812.23446  -1820983.34243  23683278.1094                   23683278.6804
   8042544.67647   6271855.05645  21634532.2034                   21634529.7424
  -9010339.13746  -7008303.60844  23123058.1414                   23123058.6094
  -1362471.72746  -1044958.69143  23765711.5004                   23765711.8134
 11  8 20 16 51 30.0000000  0 11G03G06G07G10G13G16G19G11G23G08G28
   6972097.67647   5436896.32144  22225396.1024                   22225396.3404
   9889613.54546   7697096.08343  24217337.7504                   24217337.8204
  -7634891.35947  -5979209.85145  21415017.4064                   21415015.9024
   2798830.57446   2183808.46343  24499541.0554                   24499542.9104
    269834.69548    219081.76446  20418840.8524                   20418839.2854
  12589482.08646   9819992.66743  24775348.8594                   24775348.9534
  -3184987.18048  -2507829.43646  21075647.1174                   21075644.1214
  -2532464.48846  -1951621.38743  23651375.8594                   23651375.1024
   8042418.39847   6271756.60545  21634507.3834                   21634505.5474
  -9171638.97347  -7133991.75644  23092364.0704                   23092364.4414
  -1507657.89546  -1158090.71944  23738083.1724                   23738083.8594
 11  8 20 16 52  0.0000000  0 11G03G06G07G10G13G16G19G11G23G08G28
   6967086.50047   5432991.45644  22224443.2034                   22224443.0234
   9893671.66846   7700258.15543  24218109.5164                   24218110.3164
  -7774723.37147  -6088169.84146  21388408.0784                   21388406.8954
   2754272.41045   2149087.73442  24491062.1414                   24491063.6844
    223482.53148    182963.17346  20410020.7664                   20410019.4654
  12585527.92646   9816911.42743  24774596.4304                   24774595.9494
  -3254869.50848  -2562283.20346  21062349.0944                   21062346.2934
  -2700124.10546  -2082265.16843  23619471.3364                   23619470.3094
   8042601.58647   6271899.28245  21634543.2114                   21634541.2424
  -9333035.87947  -7259755.56444  23061650.7664                   23061651.0474
  -1652686.11846  -1271099.64943  23710485.2894                   23710485.5204
 11  8 20 16 52 30.0000000  0 11G03G06G07G10G13G16G19G11G23G08G28
   6962406.35547   5429344.50044  22223552.3914                   22223551.7664
   9897903.46146   7703555.61043  24218915.1024                   24218915.6724
  -7914489.95347  -6197078.85246  21361811.5634                   21361810.3404
   2709919.68445   2114527.19343  24482622.2894                   24482623.3244
    177641.80547    147243.09746  20401297.1564                   20401296.1094
  12581425.08246   9813714.35543  24773815.4844                   24773815.0434
  -3324197.14848  -2616304.74546  21049156.5554                   21049153.5434
  -2867781.41046  -2212907.19043  23587566.4384                   23587566.4414
   8043098.14147   6272286.14445  21634637.6724                   21634634.9924
  -9494522.32447  -7385589.10244  23030921.2974                   23030921.2734
  -1797550.25846  -1383980.79243  23682918.8674                   23682918.4964
 11  8 20 16 53  0.0000000  0 11G03G06G07G10G13G16G19G11G23G08G28
   6958060.25447   5425957.86744  22222725.6094                   22222725.6024
   9902312.19946   7706990.91043  24219753.5394                   24219755.0234
  -8054184.15247  -6305931.47845  21335228.1414                   21335227.1804
   2665775.52746   2080129.00843  24474221.7584                   24474223.2074
    132317.25048    111925.21546  20392672.5704                   20392671.3404
  12577178.12146   9810404.90543  24773006.7894                   24773007.0634
  -3392965.48047  -2669890.48146  21036070.0944                   21036067.1484
  -3035427.51646  -2343540.43543  23555664.5084                   23555665.3404
   8043911.24247   6272919.66945  21634792.1804                   21634790.1214
  -9656091.99647  -7511487.54244  23000175.4844                   23000175.4454
  -1942245.06247  -1496729.97043  23655384.4064                   23655384.0864
 11  8 20 16 53 30.0000000  0 11G03G06G07G10G13G16G19G11G23G08G28
   6954053.85547   5422835.94844  22221962.7504                   22221962.9264
   9906903.98046   7710568.81543  24220627.5864                   24220628.9844
  -8193796.05948  -6414719.96645  21308661.2814                   21308659.8524
   2621846.00446   2045898.19943  24465862.3204                   24465863.9344
     87516.43448     77015.47346  20384147.0004                   20384145.3484
  12572795.09045   9806989.43842  24772172.6804                   24772172.4144
  -3461166.57447  -2723034.20946  21023091.7734                   21023089.0044
  -3203051.05146  -2474156.17043  23523766.5784                   23523765.5594
   8045046.87947   6273804.51045  21635008.7734                   21635006.5314
  -9817735.60947  -7637443.57444  22969415.6414                   22969415.4694
  -2086762.21546  -1609340.64443  23627883.5234                   23627882.7274
 11  8 20 16 54  0.0000000  0 11G03G06G07G10G13G16G19G11G23G08G28
   6950392.25847   5419982.66944  22221266.5164                   22221266.4694
   9911684.02046   7714293.42643  24221537.6094                   24221538.2304
  -8333315.87948  -6523436.71746  21282111.4384                   21282110.1094
   2578136.50446   2011838.76443  24457544.6954                   24457545.9884
     43245.59848     42518.68946  20375722.7734                   20375720.7774
  12568282.93445   9803473.33242  24771313.0314                   24771313.8164
  -3528793.39547  -2775730.44246  21010223.1804                   21010220.3874
  -3370641.19946  -2604745.79743  23491876.3984                   23491875.0904
   8046510.27747   6274944.75445  21635286.8984                   21635284.5514
  -9979443.79747  -7763449.93044  22938644.6644                   22938643.9264
  -2231093.92247  -1721806.86243  23600418.0634                   23600417.9024
 11  8 20 16 54 30.0000000  0 11G03G06G07G10G13G16G19G11G23G08G28
   6947077.08247   5417399.34644  22220635.1254                   22220635.8284
   9916654.12946   7718166.12643  24222483.0864                   24222484.8244
  -8472737.93748  -6632077.27346  21255580.3984                   21255578.9344
   2534648.37946   1977951.79143  24449270.1724                   24449270.7154
      -492.14848      8437.29746  20367399.7344                   20367398.0554
  12563645.25845   9799859.44942  24770431.4454                   24770431.7344
  -3595842.16847  -2827976.24146  20997464.1174                   20997461.3444
  -3538190.78946  -2735303.83643  23459991.8524                   23459991.4884
   8048303.01247   6276341.64945  21635628.3674                   21635625.6524
 -10141211.94147  -7889502.99544  22907860.3204                   22907860.0984
  -2375236.43747  -1834125.67443  23572989.3444                   23572987.7504
 11  8 20 16 55  0.0000000  0 11G03G06G07G10G13G16G19G11G23G08G28
   6944104.41847   5415082.94844  22220069.0704                   22220069.5474
   9921810.81646   7722184.31043  24223464.3914                   24223465.5234
  -8612061.70347  -6740641.22546  21229067.7664                   21229066.6564
   2491377.78146   1944234.44143  24441035.7344                   24441036.8244
    -43699.21548    -25230.57846  20359177.6174                   20359176.1454
  12558880.57045   9796146.62942  24769524.3524                   24769525.6564
  -3662315.12147  -2879773.35146  20984815.0004                   20984811.9614
  -3705697.53146  -2865828.55443  23428115.9844                   23428115.3244
   8050421.66047   6277992.46145  21636031.7814                   21636029.1604
 -10303039.94946  -8015602.74344  22877065.4844                   22877065.5594
  -2519191.09847  -1946298.10443  23545595.3444                   23545594.6374
 11  8 20 16 55 30.0000000  0 11G03G06G07G10G13G16G19G11G23G08G28
   6941472.71947   5413032.18044  22219569.3674                   22219569.1954
   9927152.60546   7726346.53643  24224481.4534                   24224482.1454
  -8751284.30948  -6849126.35246  21202574.5004                   21202573.0594
   2448323.59446   1910685.59743  24432843.9924                   24432843.6134
    -86375.57848    -58484.91246  20351056.3364                   20351054.9924
  12553989.21145   9792335.07842  24768593.6484                   24768594.1604
  -3728211.48847  -2931121.17546  20972274.8984                   20972271.9414
  -3873157.66846  -2996316.86843  23396250.2584                   23396248.9774
   8052864.66447   6279896.03245  21636496.5784                   21636494.3674
 -10464925.77346  -8141747.50644  22846259.2194                   22846259.9414
  -2662957.11346  -2058323.49043  23518237.2114                   23518236.2734
 11  8 20 16 56  0.0000000  0 11G03G06G07G10G13G16G19G11G23G08G28
   6939177.41447   5411243.59344  22219131.7424                   22219132.0044
   9932675.38746   7730650.00843  24225531.9924                   24225532.6134
  -8890405.95348  -6957532.82746  21176100.8134                   21176099.4224
   2405481.43846   1877302.05343  24424689.5474                   24424691.3834
   -128524.03948    -91327.89646  20343036.2274                   20343034.8834
  12548968.58245   9788422.75842  24767639.6174                   24767638.1954
  -3793534.32447  -2982022.10846  20959844.4924                   20959841.1884
  -4040569.92646  -3126767.92343  23364392.0004                   23364391.6724
   8055627.72347   6282049.00145  21637022.2504                   21637020.2814
 -10626869.86346  -8267937.69844  22815442.8914                   22815442.5704
  -2806536.73046  -2170203.69943  23490914.5474                   23490914.4884
 11  8 20 16 56 30.0000000  0 11G03G06G07G10G13G16G19G11G23G08G28
   6937217.93047   5409716.65244  22218759.3054                   22218759.2304
   9938379.23446   7735094.41343  24226618.2664                   24226618.3554
  -9029422.63348  -7065857.49846  21149646.8524                   21149645.5594
   2362850.88346   1844083.43743  24416578.2034                   24416579.5944
   -170143.44948   -123758.62046  20335116.2194                   20335114.7854
  12543820.54745   9784411.27342  24766659.3984                   24766658.8014
  -3858282.08647  -3032474.90846  20947523.2274                   20947520.3594
  -4207928.52346  -3257177.18643  23332544.4534                   23332543.6454
   8058710.89547   6284451.40345  21637609.2814                   21637606.6054
 -10788868.99247  -8394170.75844  22784615.2424                   22784615.2664
  -2949927.39146  -2281936.61843  23463627.9614                   23463628.1414
 11  8 20 16 57  0.0000000  0 11G03G06G07G10G13G16G19G11G23G08G28
   6935589.18047   5408447.44244  22218449.4144                   22218449.7384
   9944259.35246   7739676.20443  24227736.5314                   24227737.1134
  -9168335.15247  -7174101.01146  21123212.6024                   21123211.3404
   2320427.09845   1811025.82042  24408503.7814                   24408505.7814
   -211237.57448   -155780.06146  20327296.2424                   20327295.0514
  12538542.38345   9780298.31642  24765654.9534                   24765654.7154
  -3922457.81247  -3082481.97246  20935311.0944                   20935308.4104
  -4375232.94946  -3387544.23243  23300707.7034                   23300707.0084
   8062108.82847   6287099.06845  21638256.3674                   21638253.1054
 -10950924.58646  -8520447.83644  22753776.5084                   22753777.3874
  -3093131.99246  -2393524.63743  23436377.1884                   23436376.8754
 11  8 20 16 57 30.0000000  0 11G03G06G07G10G13G16G19G11G23G08G28
   6934287.21547   5407432.88444  22218201.2504                   22218202.6334
   9950311.80946   7744392.26343  24228889.0634                   24228889.3954
  -9307143.37948  -7282263.27046  21096798.6564                   21096796.8324
   2278206.29345   1778126.40642  24400471.0004                   24400471.2194
   -251809.40248   -187394.50246  20319575.7194                   20319574.4144
  12533132.05545   9776082.43842  24764624.8984                   24764625.3014
  -3986063.81647  -3132045.11246  20923207.4384                   20923204.7584
  -4542481.42246  -3517867.61643  23268880.8754                   23268880.7194
   8065817.60547   6289988.95545  21638961.9224                   21638958.9494
 -11113036.78547  -8646768.98644  22722928.0554                   22722927.8834
  -3236152.43746  -2504969.06043  23409160.9694                   23409161.0234
 11  8 20 16 58  0.0000000  0 10G03G06G07G10G13G19G11G23G08G28
   6933311.52746   5406672.51244  22218016.1174                   22218016.4804
   9956536.44946   7749242.49743  24230073.3594                   24230074.5864
  -9445843.02348  -7390340.90346  21070404.9144                   21070403.3134
   2236188.02045   1745384.84442  24392473.8594                   24392475.1454
   -291857.98048   -218601.20346  20311954.8984                   20311953.1804
  -4049098.97347  -3181163.43746  20911212.1724                   20911209.6454
  -4709669.06646  -3648143.65543  23237066.2344                   23237065.5744
   8069836.88347   6293120.79345  21639726.4614                   21639724.4184
 -11275202.79747  -8773132.09144  22692069.2344                   22692068.7774
  -3378986.77046  -2616268.51343  23381980.4144                   23381980.4614
 11  8 20 16 58 30.0000000  0 10G03G06G07G10G13G19G11G23G08G28
   8508082.35546   6633766.58244  22517685.3834                   22517685.6724
  11538353.46146   8981827.13543  24531083.5234                   24531084.3484
  -8009004.85248  -6270726.72646  21343826.3444                   21343824.3634
   3769793.92246   2940402.33242  24684309.5234                   24684311.2464
   1244039.71148    978202.15746  20604226.2114                   20604224.9884
  -2536139.13347  -2002233.70546  21199118.8134                   21199116.3364
  -3301363.94546  -2550762.98943  23505058.3284                   23505057.8324
   9649587.01647   7524094.83545  21940343.0944                   21940340.7704
  -9861992.92247  -7671929.57244  22960993.8364                   22960994.1414
  -1946207.48846  -1499817.07443  23654629.3444                   23654628.7664
 11  8 20 16 59  0.0000000  0 10G03G06G07G10G13G19G11G23G08G28
   8507770.48046   6633523.51044  22517625.4224                   22517626.0664
  11544934.58246   8986955.04843  24532335.7274                   24532336.7034
  -8147462.80148  -6378616.03346  21317478.1174                   21317476.9494
   3728192.29346   2907985.40642  24676393.4454                   24676395.2624
   1205053.27048    947823.09446  20596807.5784                   20596806.0594
  -2598015.91847  -2050449.39146  21187344.0394                   21187341.6174
  -3468400.60546  -2680921.40943  23473271.8284                   23473271.2854
   9654239.26647   7527719.88345  21941228.3524                   21941225.9184
 -10024243.02347  -7798358.20144  22930118.9534                   22930119.1054
  -2088650.67246  -1610811.68943  23627523.8914                   23627522.5664
 11  8 20 16 59 30.0000000  0 10G03G06G07G10G13G19G11G23G08G28
   8507795.93846   6633543.23543  22517629.5394                   22517631.5084
  11551700.17245   8992226.88143  24533622.6884                   24533623.9574
  -8285787.92248  -6486401.82946  21291155.5004                   21291154.3244
   3686804.95346   2875735.46542  24668517.6174                   24668518.8094
   1166605.58648    917863.84446  20589491.0944                   20589489.8754
  -2659305.18047  -2098207.26946  21175681.5234                   21175678.6484
  -3635347.36747  -2811009.74243  23441503.0864                   23441502.5274
   9659213.57047   7531595.89845  21942175.2424                   21942172.1764
 -10186523.98447  -7924810.87444  22899237.5004                   22899237.3554
  -2230889.22347  -1721646.87943  23600456.6254                   23600455.0514
 11  8 20 17  0  0.0000000  0 10G03G06G07G10G13G19G11G23G08G28
   8508142.80546   6633813.44643  22517696.2424                   22517696.5824
  11558634.33246   8997629.98043  24534942.5164                   24534943.9534
  -8423991.70747  -6594093.08046  21264856.1484                   21264854.8324
   3645615.85946   2843639.98442  24660680.3674                   24660680.5904
   1128681.78548    888312.80846  20582274.1724                   20582273.3324
  -2720021.20747  -2145518.47246  21164127.2894                   21164124.4454
  -3802214.35546  -2941035.97443  23409749.3054                   23409748.9384
   9664494.02747   7535710.48145  21943179.9064                   21943177.5514
 -10348847.71147  -8051296.87644  22868348.8054                   22868348.4304
  -2372936.82047  -1832333.26843  23573426.7114                   23573425.2894
 11  8 20 17  0 30.0000000  0 10G03G06G07G10G13G19G11G23G08G28
   8508801.34446   6634326.50743  22517821.7424                   22517821.7274
  11565727.91046   9003157.43743  24536291.5314                   24536294.6414
  -8562078.96548  -6701693.53246  21238579.4454                   21238577.5004
   3604615.55946   2811691.57842  24652879.2584                   24652879.2544
   1091273.49647    859163.46846  20575155.8594                   20575154.3594
  -2780171.99647  -2192389.24446  21152681.3524                   21152678.0744
  -3969005.51246  -3071003.05443  23378009.6024                   23378008.9304
   9670071.24647   7540056.29145  21944241.1804                   21944238.9144
 -10511219.89847  -8177820.64244  22837450.5944                   22837449.3634
  -2514800.51647  -1942876.36643  23546430.6644                   23546429.1454
 11  8 20 17  1  0.0000000  0 10G03G06G07G10G13G19G11G23G08G28
   8509762.76247   6635075.58744  22518005.5944                   22518004.9064
  11572972.16845   9008802.14643  24537670.5234                   24537672.9804
  -8700054.74248  -6809207.10846  21212323.4304                   21212321.7854
   3563794.96946   2779883.22342  24645110.6024                   24645111.1644
   1054372.81347    830409.65646  20568133.8444                   20568132.6174
  -2839764.84847  -2238825.23146  21141341.0084                   21141338.1604
  -4135724.15246  -3200913.57343  23346284.0944                   23346284.1644
   9675936.38347   7544626.46645  21945357.5784                   21945355.1214
 -10673646.11747  -8304386.50744  22806541.7504                   22806541.6214
  -2656487.11747  -2053281.49743  23519468.3754                   23519466.7274
 11  8 20 17  1 30.0000000  0 10G03G06G07G10G13G19G11G23G08G28
   8511016.03147   6636052.08044  22518244.0004                   22518243.7624
  11580356.59046   9014556.17043  24539076.2114                   24539078.7504
  -8837924.89847  -6916638.40046  21186087.5084                   21186086.1414
   3523143.70346   2748206.77843  24637375.1804                   24637375.8794
   1017970.56348    802044.24946  20561207.2894                   20561205.3914
  -2898809.11747  -2284833.75646  21130105.0084                   21130102.1914
  -4302374.88346  -3330771.33443  23314571.6884                   23314570.9184
   9682078.75047   7549412.64845  21946526.3444                   21946523.9614
 -10836132.90647  -8430999.56644  22775621.1254                   22775621.3444
  -2798005.01247  -2163555.11344  23492538.4224                   23492537.3674
 11  8 20 17  2  0.0000000  0 10G03G06G07G10G13G19G11G23G08G28
   8512552.82047   6637249.54944  22518536.4384                   22518536.3364
  11587873.41046   9020413.35543  24540506.9774                   24540509.5864
  -8975693.59048  -7023990.61446  21159870.9614                   21159870.1604
   3482653.66446   2716656.06143  24629670.2274                   24629672.3674
    982059.93047    774061.92046  20554372.9844                   20554372.1454
  -2957311.35947  -2330419.91346  21118972.4694                   21118969.4804
  -4468960.36346  -3460578.13043  23282871.3524                   23282871.5664
   9688490.09447   7554408.44345  21947746.3134                   21947743.6374
 -10998684.88347  -8557663.39144  22744688.7814                   22744688.1054
  -2939359.97747  -2273701.80544  23465639.2974                   23465637.7774
 11  8 20 17  2 30.0000000  0 10G03G06G07G10G13G19G11G23G08G28
   8514370.62146   6638665.91544  22518882.1484                   22518882.4224
  11595520.46146   9026372.00143  24541962.0314                   24541964.1174
  -9113358.66848  -7131262.08446  21133674.2504                   21133672.9924
   3442322.21946   2685228.93843  24621995.2274                   24621997.0864
    946639.21948    746461.33346  20547633.1024                   20547631.9454
  -3015272.42647  -2375584.36746  21107943.1484                   21107940.1174
  -4635477.10946  -3590331.41743  23251184.4614                   23251184.5084
   9695167.99647   7559611.91044  21949017.0314                   21949015.1024
 -11161300.33647  -8684376.71544  22713743.0084                   22713743.5044
  -3080552.27746  -2383721.73644  23438770.8364                   23438770.6294
 11  8 20 17  3  0.0000000  0 10G03G06G07G10G13G19G11G23G08G28
   8516456.22746   6640290.98044  22519279.0164                   22519279.7154
  11603284.83646   9032422.10942  24543440.7034                   24543441.8364
  -9250928.63748  -7238459.45946  21107495.2814                   21107494.1294
   3402136.53946   2653915.29443  24614348.1414                   24614350.3204
    911696.19548    719232.97146  20540983.7584                   20540982.5594
  -3072704.05147  -2420336.30246  21097014.2274                   21097010.8324
  -4801932.30146  -3720036.75943  23219509.0864                   23219508.6334
   9702099.45747   7565012.96645  21950335.9694                   21950333.9844
 -11323988.78147  -8811146.88644  22682785.5394                   22682784.9024
  -3221592.70746  -2493623.28644  23411931.4844                   23411930.8554
 11  8 20 17  3 30.0000000  0 10G03G06G07G10G13G19G11G23G08G28
   8518801.97346   6642118.81144  22519725.0314                   22519726.8524
  11611159.15646   9038557.84842  24544939.2274                   24544939.9344
  -9388406.83648  -7345585.31246  21081334.3054                   21081332.9654
   3362088.97746   2622709.32843  24606727.4064                   24606729.4614
    877224.46948    692371.86146  20534423.7584                   20534422.7034
  -3129612.40247  -2464680.46646  21086184.6024                   21086181.6954
  -4968328.30546  -3849695.96643  23187844.5004                   23187844.4844
   9709276.63747   7570605.51445  21951701.7424                   21951699.4104
 -11486753.99247  -8937976.92944  22651811.8754                   22651811.5004
  -3362486.74647  -2603410.85344  23385121.2114                   23385119.8794
 11  8 20 17  4  0.0000000  0 10G03G06G07G10G13G19G11G23G08G28
   8521401.63746   6644144.39244  22520220.2504                   22520221.5864
  11619137.64546   9044774.75042  24546457.4224                   24546457.4694
  -9525794.86348  -7452640.90846  21055189.9774                   21055188.6374
   3322173.46546   2591606.21942  24599131.9384                   24599134.2114
    843219.16848    665874.19846  20527953.0554                   20527951.9884
  -3186001.99647  -2508620.40646  21075454.0004                   21075451.6094
  -5134665.07046  -3979308.98243  23156191.6414                   23156191.2544
   9716693.71947   7576384.96245  21953113.7034                   21953111.4804
 -11649597.98047  -9064868.31044  22620824.0164                   22620822.9964
  -3503237.96546  -2713087.08244  23358336.4384                   23358336.0554
 11  8 20 17  4 30.0000000  0 10G03G06G07G10G13G19G11G23G08G28
   8524245.79346   6646360.56544  22520761.7114                   22520762.5434
  11627211.45346   9051065.91842  24547993.8594                   24547994.1684
  -9663097.75847  -7559630.17246  21029061.8674                   21029060.8674
   3282380.87946   2560598.90642  24591560.2344                   24591561.8134
    809672.36348    639733.80646  20521569.3834                   20521568.3014
  -3241880.68747  -2552162.26346  21064820.5944                   21064818.1414
  -5300945.89846  -4108878.44843  23124549.6094                   23124549.8594
   9724340.75447   7582343.60444  21954568.8984                   21954566.4694
 -11812525.73847  -9191824.97544  22589819.8524                   22589819.2384
  -3643853.33246  -2822657.42844  23331578.3594                   23331577.6524
 11  8 20 17  5  0.0000000  0 10G03G06G07G10G13G19G11G23G08G28
   8527330.17246   6648763.90144  22521348.6414                   22521349.4774
  11635376.08646   9057427.90242  24549546.3524                   24549547.7274
  -9800315.52347  -7666553.09746  21002950.6254                   21002949.0744
   3242706.84846   2529684.02742  24584009.6564                   24584011.8204
    776580.24248    613947.71346  20515272.1174                   20515270.9694
  -3297251.52747  -2595308.38246  21054284.1094                   21054281.4884
  -5467169.56646  -4238403.36643  23092918.3754                   23092917.9614
   9732213.88347   7588478.43245  21956067.2584                   21956064.7734
 -11975538.29347  -9318847.72944  22558799.7504                   22558799.2854
  -3784335.57447  -2932124.04344  23304845.4924                   23304845.0944
 11  8 20 17  5 30.0000000  0 10G03G06G07G10G13G19G11G23G08G28
   8530647.61746   6651348.85544  22521979.9454                   22521979.6914
  11643625.19146   9063855.75442  24551116.2584                   24551117.8404
  -9937450.06648  -7773411.16546  20976854.6254                   20976853.2624
   3203144.30946   2498855.99242  24576481.4454                   24576482.5204
    743937.30548    588511.62746  20509059.9144                   20509058.5634
  -3352120.05947  -2638063.09746  21043843.1094                   21043840.7034
  -5633337.37146  -4367884.75043  23061297.6954                   23061297.6844
   9740306.39547   7594784.21545  21957607.5164                   21957604.5944
 -12138638.86347  -9445939.04944  22527761.7664                   22527762.0744
  -3924689.03146  -3041490.27444  23278137.3284                   23278136.9654
 11  8 20 17  6  0.0000000  0 10G03G06G07G10G13G19G11G23G08G28
   8534201.60947   6654118.09944  22522657.0554                   22522656.5864
  11651962.37546   9070352.23543  24552703.5944                   24552704.9344
 -10074493.96547  -7880198.61646  20950775.9224                   20950774.7034
   3163696.66046   2468117.42143  24568975.1804                   24568976.2234
    711747.27348    563428.46246  20502934.3984                   20502933.3554
  -3406481.50447  -2680422.69146  21033498.4534                   21033495.8284
  -5799439.61746  -4497315.01443  23029689.1254                   23029689.0164
   9748621.38347   7601263.34045  21959189.3984                   21959187.2624
 -12301819.98847  -9573093.11944  22496709.5234                   22496710.1604
  -4064908.04746  -3150751.79544  23251453.4384                   23251453.5824
 11  8 20 17  6 30.0000000  0 10G03G06G07G10G13G19G11G23G08G28
   8537987.28547   6657067.89143  22523376.7664                   22523376.8094
  11660383.84446   9076914.29543  24554306.0944                   24554308.2894
 -10211446.74647  -7986915.05846  20924714.8054                   20924713.9144
   3124359.59046   2437465.10542  24561489.5234                   24561491.2704
    680006.99648    538695.74546  20496894.7584                   20496893.6994
  -3460338.82447  -2722389.46846  21023249.7194                   21023246.9064
  -5965475.30146  -4626693.49143  22998093.4064                   22998093.7464
   9757154.28947   7607912.26945  21960813.6644                   21960811.4104
 -12465081.59047  -9700309.94144  22465641.9304                   22465642.2194
  -4204994.60546  -3259910.12444  23224796.1484                   23224795.6994
 11  8 20 17  7  0.0000000  0 10G03G06G07G10G13G19G11G23G08G28
   8542009.82046   6660202.26343  22524141.0634                   22524142.8324
  11668894.72746   9083546.09643  24555925.5084                   24555927.8244
 -10348299.33648  -8093553.42746  20898672.4774                   20898671.5274
   3085138.31346   2406902.94942  24554026.0164                   24554026.9304
    648722.46147    514318.16846  20490941.7664                   20490940.3244
  -3513686.00047  -2763958.70045  21013098.0634                   21013095.2854
  -6131433.28547  -4756011.36143  22966513.3134                   22966512.6954
   9765910.25447   7614735.01245  21962479.0004                   21962477.2384
 -12628414.99647  -9827582.70244  22434560.7974                   22434560.9534
  -4344941.52346  -3368959.57944  23198164.7664                   23198164.9064
 11  8 20 17  7 30.0000000  0 10G03G06G07G10G13G19G11G23G08G28
  10121683.60246   7891116.79643  22824743.5784                   22824744.1454
  13252909.30946  10317843.04843  24857353.3914                   24857355.4384
  -8909628.12548  -6972510.93846  21172442.5864                   21172441.4804
   4621448.24246   3604027.48343  24846376.3674                   24846377.6024
   2193310.10547   1717892.93746  20784866.5314                   20784865.4804
  -1991105.44547  -1577532.32445  21302835.9064                   21302832.6524
  -4721888.16847  -3657664.47843  23234741.0084                   23234739.8134
  11350303.10947   8849326.75644  22263979.2424                   22263977.3834
 -11216396.34447  -8727308.41144  22703258.7504                   22703259.1174
  -2909327.84446  -2250299.56744  23471352.7894                   23471352.7384
 11  8 20 17  8  0.0000000  0 10G03G06G07G10G13G19G11G23G08G28
  10126166.18046   7894609.63443  22825597.0164                   22825597.5944
  13261586.50446  10324604.46443  24859005.1884                   24859007.8674
  -9046279.67248  -7078992.66146  21146438.8284                   21146437.2974
   4582444.83246   3573635.08743  24838954.0554                   24838956.4064
   2162927.01248   1694217.75046  20779085.3834                   20779083.9184
  -2043441.56247  -1618313.74545  21292876.4844                   21292873.2114
  -4887687.14147  -3786858.43943  23203190.7424                   23203189.6914
  11359491.61747   8856486.53345  22265728.1484                   22265725.7384
 -11379874.48447  -8854693.94544  22672150.2274                   22672150.0234
  -3049002.63346  -2359137.04743  23444774.4694                   23444772.6454
 11  8 20 17  8 30.0000000  0 10G03G06G07G10G13G19G11G23G08G28
  10130881.85546   7898284.11044  22826494.6644                   22826495.8324
  13270350.84445  10331433.66143  24860673.6804                   24860674.3324
  -9182820.56247  -7185388.13046  21120455.6174                   21120454.5784
   4543554.00046   3543330.52743  24831554.1414                   24831555.3244
   2132998.75848   1670897.01146  20773389.9224                   20773388.3444
  -2095266.91447  -1658697.13845  21283013.7734                   21283011.1804
  -5053394.38346  -3915980.94643  23171657.1484                   23171656.5434
  11368899.67647   8863817.41445  22267518.7344                   22267516.5434
 -11543415.70347  -8982128.63944  22641029.2114                   22641029.4964
  -3188534.50846  -2467863.13643  23418222.1334                   23418220.8094
 11  8 20 17  9  0.0000000  0 10G03G06G07G10G13G19G11G23G08G28
  10135824.90246   7902135.76544  22827435.7114                   22827436.1214
  13279197.01245  10338326.66442  24862355.9924                   24862357.6644
  -9319251.80947  -7291698.18146  21094493.6254                   21094492.1804
   4504770.17246   3513109.23943  24824173.8674                   24824175.6914
   2103521.22348   1647927.48146  20767781.0554                   20767779.0084
  -2146585.63347  -1698685.78746  21273248.8134                   21273245.8834
  -5219009.52746  -4045031.69143  23140141.2664                   23140140.9804
  11378521.77347   8871315.07144  22269349.5164                   22269347.6484
 -11707021.77047  -9109613.85944  22609895.9844                   22609895.8444
  -3327926.78147  -2576480.42443  23391696.6954                   23391695.6724
 11  8 20 17  9 30.0000000  0 10G03G06G07G10G13G19G11G23G08G28
  10140996.37947   7906165.39244  22828420.0314                   22828420.8094
  13288126.39155  10345284.52052  24864054.8984                   24864056.6174
  -9455567.94147  -7397918.51146  21068553.7114                   21068552.5004
   4466094.20746   3482971.98743  24816813.0474                   24816816.0474
   2074496.16448   1625310.52246  20762257.3984                   20762255.8164
  -2197395.62147  -1738277.98546  21263579.5554                   21263576.5784
  -5384525.87547  -4174005.45643  23108645.7114                   23108643.9064
  11388358.82847   8878980.22544  22271221.5704                   22271219.7194
 -11870687.72347  -9237145.71944  22578751.3674                   22578751.4574
  -3467176.52347  -2684986.71743  23365198.6174                   23365196.4344
 11  8 20 17 10  0.0000000  0 10G03G06G07G10G13G19G11G23G08G28
  10146393.35246   7910370.74144  22829446.5004                   22829447.8594
  13297136.42246  10352305.27042  24865769.6644                   24865771.6724
  -9591767.20747  -7504047.79646  21042635.8284                   21042634.4774
   4427523.57346   3452916.87143  24809473.3524                   24809476.4064
   2045921.29748   1603044.36946  20756819.6094                   20756818.3134
  -2247698.45347  -1777475.00345  21254007.1804                   21254004.6174
  -5549940.41446  -4302899.88043  23077167.5164                   23077166.6684
  11398407.87147   8886810.54844  22273133.8444                   22273131.9804
 -12034412.11347  -9364723.14944  22547595.9844                   22547595.4144
  -3606284.10246  -2793382.22843  23338726.9694                   23338726.1484
 11  8 20 17 10 30.0000000  0 10G03G06G07G10G13G19G11G23G08G28
  10152008.96146   7914746.47844  22830515.4144                   22830515.9494
  13306220.59045  10359383.69143  24867498.6954                   24867499.7734
  -9727851.91848  -7610087.82946  21016739.5944                   21016738.5554
   4389051.22346   3422938.33943  24802152.6094                   24802154.6764
   2017790.70748   1581124.39346  20751466.5864                   20751465.4344
  -2297500.24647  -1816281.63546  21244530.6484                   21244527.7814
  -5715254.31246  -4431715.87843  23045709.2664                   23045708.5354
  11408661.91847   8894800.62745  22275084.9774                   22275083.4774
 -12198197.83247  -9492348.36744  22516428.3754                   22516428.0084
  -3745254.51646  -2901670.80643  23312281.5394                   23312280.9384
 11  8 20 17 11  0.0000000  0 10G03G06G07G10G13G19G11G23G08G28
  10157841.73446   7919291.41243  22831624.6254                   22831625.8054
  13315377.98845  10366519.27042  24869241.5084                   24869242.7504
  -9863818.82847  -7716036.05346  20990866.2034                   20990864.9144
   4350675.86346   3393035.36343  24794850.8524                   24794852.4844
   1990103.91448   1559550.25146  20746198.1804                   20746196.9384
  -2346800.80547  -1854697.66146  21235148.9454                   21235146.1054
  -5880462.90646  -4560449.77243  23014270.9844                   23014270.2304
  11419119.72347   8902949.50045  22277075.3284                   22277073.3554
 -12362041.93047  -9620019.07244  22485249.9384                   22485249.7344
  -3884086.66847  -3009851.65644  23285862.3444                   23285861.7034
 11  8 20 17 11 30.0000000  0 10G03G06G07G10G13G19G11G23G08G28
  10163883.69946   7923999.34743  22832775.0554                   22832775.0634
  13324600.87945  10373705.84842  24870995.0784                   24870997.7544
  -9999671.41048  -7821895.21146  20965014.0634                   20965012.6994
   4312389.45746   3363201.72342  24787563.7504                   24787566.7074
   1962853.71548   1538316.29946  20741012.2034                   20741011.3874
  -2395606.93047  -1892728.43246  21225861.5474                   21225858.8754
  -6045568.34046  -4689103.34643  22982852.3594                   22982851.8754
  11429772.81347   8911250.51444  22279102.5084                   22279100.9144
 -12525948.50447  -9747738.47044  22454059.3984                   22454059.1644
  -4022786.40647  -3117929.32944  23259469.0084                   23259468.6914
 11  8 20 17 12  0.0000000  0  9G03G07G10G13G19G11G23G08G28
  10170132.38746   7928868.38543  22833964.7344                   22833964.5904
 -10135407.72348  -7927663.75746  20939184.8834                   20939183.1844
   4274189.67246   3333435.54742  24780294.3984                   24780298.0944
   1936038.35248   1517421.16946  20735909.6414                   20735908.7114
  -2443920.60247  -1930375.47746  21216667.6334                   21216665.2584
  -6210567.25446  -4817673.92243  22951454.0394                   22951453.6524
  11440619.37547   8919702.29344  22281166.4614                   22281164.9344
 -12689915.98847  -9875505.31444  22422857.4614                   22422856.9574
  -4161353.96947  -3225904.02544  23233100.4064                   23233099.2584
 11  8 20 17 12 30.0000000  0  9G03G07G10G13G19G11G23G08G28
  10176594.25046   7933903.48943  22835194.0864                   22835193.9884
 -10271016.48447  -8033332.90546  20913379.0474                   20913377.6914
   4236083.03546   3303741.96542  24773043.8984                   24773046.6254
   1909665.31648   1496870.73846  20730890.7274                   20730889.8674
  -2491733.67647  -1967632.42746  21207569.2894                   21207566.4344
  -6375447.07446  -4946151.67044  22920078.9924                   22920078.1254
  11451665.73047   8928309.78044  22283268.5004                   22283266.8054
 -12853933.49646 -10003311.11244  22391645.8594                   22391645.6414
  -4299780.69147  -3333769.00144  23206758.9144                   23206758.6174
 11  8 20 17 13  0.0000000  0  9G03G07G10G13G19G11G23G08G28
  10183282.19946   7939114.80743  22836466.2194                   22836467.7504
 -10406479.93447  -8138888.83746  20887601.1564                   20887599.8634
   4198082.74246   3274131.23643  24765813.4774                   24765814.8834
   1883748.17248   1476675.52746  20725958.8984                   20725958.0474
  -2539032.16847  -2004488.41646  21198568.7664                   21198566.1134
  -6540189.01246  -5074521.99644  22888728.9844                   22888728.4694
  11462924.63747   8937082.85045  22285411.1884                   22285409.4924
 -13017983.89547 -10131142.58644  22360428.1414                   22360427.9884
  -4438051.30546  -3441512.27944  23180445.9614                   23180445.9494
 11  8 20 17 13 30.0000000  0  9G03G07G10G13G19G11G23G08G28
  10190196.77746   7944502.74043  22837782.2504                   22837783.6644
 -10541792.38347  -8244327.10146  20861852.2974                   20861850.8404
   4160189.59446   3244604.02943  24758602.8444                   24758604.3484
   1858288.50848   1456836.80646  20721114.3834                   20721113.3524
  -2585813.78547  -2040941.63246  21189666.8674                   21189663.6334
  -6704786.30946  -5202779.61144  22857407.3524                   22857407.1884
  11474396.85947   8946022.18244  22287594.5554                   22287593.1644
 -13182062.08246 -10258995.68144  22329205.4774                   22329205.5784
  -4576162.84447  -3549131.67744  23154165.1644                   23154164.4024
 11  8 20 17 14  0.0000000  0  9G03G07G10G13G19G11G23G08G28
  10197327.04746   7950058.70343  22839140.3054                   22839139.5164
 -10676960.86747  -8349653.18946  20836130.4774                   20836129.4024
   4122392.48846   3215151.60942  24751410.0234                   24751412.2704
   1833276.04748   1437346.54945  20716354.7584                   20716353.6214
  -2632088.89547  -2077000.17946  21180860.8204                   21180857.8244
  -6869244.10946  -5330928.53444  22826112.3364                   22826111.8984
  11486071.13747   8955118.91344  22289816.3364                   22289814.7034
 -13346175.44547 -10386876.20644  22297975.3914                   22297975.5944
  -4714124.32046  -3656634.07344  23127911.7114                   23127911.7384
 11  8 20 17 14 30.0000000  0  9G03G07G10G13G19G11G23G08G28
  10204667.85646   7955778.66543  22840537.4694                   22840536.9344
 -10811985.40247  -8454867.10046  20810436.5634                   20810434.8914
   4084686.62146   3185770.25743  24744235.3284                   24744237.4534
   1808706.68848   1418201.56846  20711679.3204                   20711678.0354
  -2677861.41447  -2112667.09046  21172150.4454                   21172147.7774
  -7033561.60946  -5458968.11143  22794843.3674                   22794842.7344
  11497942.78147   8964369.44044  22292075.6564                   22292073.8524
 -13510324.35947 -10514784.44444  22266739.3364                   22266738.4304
  -4851938.32847  -3764021.57444  23101686.2194                   23101685.9844
 11  8 20 17 15  0.0000000  0  9G03G07G10G13G19G11G23G08G28
  10212202.14846   7961649.44443  22841970.3914                   22841970.0354
 -10946878.56247  -8559978.64246  20784766.7344                   20784765.3524
   4047054.55546   3156446.57243  24737073.8984                   24737075.8364
   1784563.47748   1399388.64146  20707085.2584                   20707084.1994
  -2723147.62547  -2147955.07546  21163532.6254                   21163530.2114
  -7197750.20746  -5586907.24543  22763599.7424                   22763598.8714
  11509994.35547   8973760.17044  22294368.8984                   22294367.2704
 -13674521.84847 -10642730.51844  22235493.2344                   22235492.6254
  -4989620.00847  -3871305.97344  23075486.4924                   23075486.0274
 11  8 20 17 15 30.0000000  0 10G03G24G07G10G13G19G11G23G08G28
  10219917.36746   7967661.21443  22843438.9924                   22843439.1564
  13861485.52015                  24212921.391
 -11081647.97347  -8664993.75246  20759121.0394                   20759119.3054
   4009484.12546   3127170.75243  24729924.9304                   24729926.7384
   1760834.93048   1380898.83546  20702569.7894                   20702568.5314
  -2767959.14847  -2182873.13846  21155004.5554                   21155002.5594
  -7361816.40247  -5714751.00744  22732378.7194                   22732378.7074
  11522213.38347   8983281.43644  22296693.7894                   22296691.9184
 -13838776.37147 -10770721.05045  22204236.7034                   22204235.9964
  -5127179.66847  -3978495.29844  23049309.8134                   23049309.2304
 11  8 20 17 16  0.0000000  0 10G03G24G07G10G13G19G11G23G08G28
  11803218.73446   9201402.43743  23144730.5944                   23144731.8324
  15272532.902 5                  24481434.930
  -9640879.10547  -7542316.68946  21033290.0864                   21033288.4614
   5547382.38345   4325532.95342  25022576.6254                   25022579.2034
   3312928.19948   2590322.12546  20997923.2734                   20997922.0044
  -1236887.64147   -989830.42145  21446358.2034                   21446355.8444
  -5950343.09046  -4614901.65644  23000972.9844                   23000972.1994
  13110005.24647  10220521.71244  22598840.7274                   22598839.3094
 -12427672.52047  -9671159.56344  22472760.8204                   22472760.5904
  -3689204.91047  -2857995.45343  23322947.2504                   23322946.4184
 11  8 20 17 16 30.0000000  0 10G03G24G07G10G13G19G11G23G08G28
  11811253.83246   9207663.47943  23146259.4694                   23146261.5394
  15107989.87115                  24450123.523
  -9775429.60247  -7647161.22646  21007685.6804                   21007684.4884
   5509893.80545   4296320.91442  25015442.6884                   25015445.4454
   3289988.92648   2572447.34645  20993557.9694                   20993556.5944
  -1280788.39547  -1024038.82846  21438004.4454                   21438002.1254
  -6114188.52746  -4742573.42644  22969794.6254                   22969793.7934
  13122517.27747  10230271.28245  22601222.0004                   22601219.6484
 -12592070.00047  -9799261.45744  22441476.5944                   22441476.1524
  -3826556.12147  -2965022.34844  23296810.1954                   23296809.3714
 11  8 20 17 17  0.0000000  0 10G03G24G07G10G13G19G11G23G08G28
  11819446.77346   9214047.44843  23147819.8984                   23147820.5434
  14943292.066 5                  24418782.719
  -9909865.41847  -7751916.39946  20982103.5394                   20982102.0434
   5472444.25045   4267139.39142  25008315.6254                   25008318.9304
   3267443.23448   2554879.24246  20989267.9694                   20989266.6764
  -1324234.10947  -1057892.65145  21429737.1094                   21429734.5744
  -6277916.68746  -4870153.75244  22938637.8444                   22938637.5274
  13135173.61747  10240133.28744  22603630.8674                   22603628.1334
 -12756534.77347  -9927415.79544  22410179.7664                   22410179.7894
  -3963801.57847  -3071966.81244  23270693.5164                   23270692.2704
 11  8 20 17 17 30.0000000  0 10G03G24G07G10G13G19G11G23G08G28
  11827797.49646   9220554.45843  23149407.8914                   23149409.8444
  14778444.797 5                  24387412.531
 -10044182.31247  -7856578.90546  20956544.1884                   20956542.6174
   5435033.06345   4237987.69942  25001196.9144                   25001199.3634
   3245291.56348   2537618.17146  20985052.5314                   20985051.5634
  -1367224.32447  -1091391.54345  21421556.1174                   21421553.8364
  -6441522.01647  -4997638.41844  22907505.2974                   22907504.7734
  13147973.78147  10250107.34444  22606066.5554                   22606064.7584
 -12921062.35247 -10055619.09444  22378871.9534                   22378871.0084
  -4100939.66447  -3178827.62744  23244596.5164                   23244595.5784
 11  8 20 17 18  0.0000000  0 10G03G24G07G10G13G19G11G23G08G28
  11836306.42646   9227184.73943  23151027.7814                   23151029.2464
  14613454.145 5                  24356016.047
 -10178374.84847  -7961144.51046  20931008.2344                   20931006.7624
   5397660.98045   4208866.53142  24994085.3674                   24994088.1454
   3223534.96548   2520664.95146  20980912.1174                   20980911.4184
  -1409757.82047  -1124534.54845  21413462.6254                   21413459.5984
  -6604997.93446  -5125022.21144  22876396.3914                   22876395.6094
  13160918.43847  10260193.98744  22608529.5474                   22608527.8984
 -13085648.30947 -10183867.85344  22347552.1334                   22347551.3014
  -4237967.73447  -3285602.70544  23218521.1254                   23218520.4574
 11  8 20 17 18 30.0000000  0  9G03G24G07G13G19G11G23G08G28
  11844975.21146   9233939.56043  23152677.4774                   23152679.0704
  14448327.438 5                  24324593.938
 -10312436.64147  -8065608.21846  20905496.6954                   20905495.5514
   3202175.38748   2504021.08846  20976847.9774                   20976846.9494
  -1451832.13747  -1157319.74946  21405455.7114                   21405453.3244
  -6768337.36346  -5252299.66344  22845313.9144                   22845312.9024
  13174009.13347  10270394.42844  22611020.3134                   22611019.1484
 -13250286.66447 -10312157.42645  22316222.3594                   22316222.2154
  -4374882.07447  -3392289.13944  23192467.2194                   23192465.6724
 11  8 20 17 19  0.0000000  0  9G03G24G07G13G19G11G23G08G28
  11853810.59046   9240824.17343  23154358.1954                   23154360.1294
  14283076.973 5                  24293147.047
 -10446356.55948  -8169961.38846  20880012.5314                   20880011.2624
   3181220.44148   2487692.53845  20972860.4614                   20972859.1684
  -1493439.43447  -1189741.05145  21397538.2894                   21397535.2934
  -6931527.19147  -5379460.56644  22814260.0314                   22814259.3444
  13187252.87947  10280714.13344  22613541.1884                   22613539.2584
 -13414966.26247 -10440479.17445  22284884.7344                   22284883.9144
  -4511673.39547  -3498879.74544  23166436.8524                   23166435.4144
 11  8 20 17 19 30.0000000  0  9G03G24G07G13G19G11G23G08G28
  11862830.63346   9247852.70243  23156075.4844                   23156076.6644
  14117726.539 5                  24261681.258
 -10580111.90247  -8274186.33746  20854560.0554                   20854558.4844
   3160688.71548   2471693.75646  20968953.4694                   20968952.0474
  -1534560.45347  -1221783.42745  21389713.4064                   21389710.9024
  -7094543.50447  -5506486.24244  22783238.7894                   22783237.9264
  13200667.32447  10291166.85744  22616093.7274                   22616091.8244
 -13579664.83247 -10568815.68845  22253544.0864                   22253543.2814
  -4648321.91447  -3605359.04144  23140433.0864                   23140432.8054
 11  8 20 17 20  0.0000000  0  9G03G24G07G13G19G11G23G08G28
  11872043.50046   9255031.48643  23157828.3594                   23157829.3554
  13952290.281 5                  24230200.164
 -10713689.00847  -8378272.37446  20829140.5634                   20829139.5864
   3140589.41048   2456031.93545  20965128.3674                   20965126.9384
  -1575186.20347  -1253439.88845  21381982.8054                   21381980.2234
  -7257372.10247  -5633365.64644  22752253.3524                   22752252.7814
  13214260.88747  10301759.16544  22618680.5554                   22618679.3984
 -13744369.75447 -10697157.11745  22222201.0634                   22222200.9264
  -4784816.93747  -3711718.77644  23114458.7194                   23114458.4224
 11  8 20 17 20 30.0000000  0  9G03G24G07G13G19G11G23G08G28
  11881445.32846   9262357.46143  23159617.3284                   23159618.7854
  13786769.285 5                  24198702.891
 -10847088.03147  -8482219.66046  20803756.1954                   20803754.8054
   3120918.12548   2440703.62245  20961385.0554                   20961384.1174
  -1615320.47747  -1284713.37045  21374345.5084                   21374343.2034
  -7420011.51246  -5760097.61944  22721304.5634                   22721303.3954
  13228029.12947  10312487.55144  22621300.7274                   22621299.4184
 -13909080.83647 -10825503.39945  22190857.8284                   22190857.2624
  -4921160.60947  -3817960.54044  23088513.7504                   23088512.6804
 11  8 20 17 21  0.0000000  0  9G03G24G07G13G19G11G23G08G28
  11891043.59446   9269836.53443  23161444.2734                   23161444.8714
  13621176.49246  10636955.10952  24167191.8204                   24167193.4104
 -10980296.88347  -8586018.77546  20778407.3364                   20778405.8554
   3101682.77748   2425714.99845  20957725.1024                   20957723.9494
  -1654955.02047  -1315597.46645  21366803.2664                   21366800.4654
  -7582448.53547  -5886671.93644  22690393.2664                   22690393.1524
  13241979.25047  10323357.67644  22623955.4384                   22623954.2384
 -14073786.47347 -10953845.43045  22159515.4534                   22159514.8444
  -5057343.75447  -3924077.24944  23062598.6724                   23062598.1604
 11  8 20 17 21 30.0000000  0  9G03G24G07G13G19G11G23G08G28
  11900830.68846   9277462.76343  23163306.7274                   23163308.0204
  13455510.68446  10507864.90242  24135666.4614                   24135667.6134
 -11113317.93447  -8689671.54946  20753094.1954                   20753092.9574
   3082876.70748   2411060.87845  20954146.1484                   20954145.3204
  -1694096.17247  -1346097.09245  21359354.7114                   21359352.4964
  -7744684.27347  -6013089.37144  22659521.2814                   22659520.8794
  13256104.09047  10334363.91744  22626643.3754                   22626641.7304
 -14238489.11347 -11082185.13045  22128173.7194                   22128172.9224
  -5193371.16847  -4030072.61444  23036713.3524                   23036713.0234
 11  8 20 17 22  0.0000000  0  9G03G24G07G13G19G11G23G08G28
  11910802.10246   9285232.55143  23165204.0004                   23165205.5314
  13289772.93446  10378718.69743  24104126.7504                   24104129.5474
 -11246150.63747  -8793177.54246  20727816.8204                   20727815.4454
   3064496.28947   2396738.44145  20950648.4144                   20950647.7854
  -1732747.69547  -1376215.18745  21351999.6094                   21351996.9964
  -7906717.14147  -6139348.72644  22628687.3204                   22628687.1414
  13270399.23447  10345502.91444  22629363.7734                   22629362.3324
 -14403189.01647 -11210522.68745  22096832.1644                   22096831.7344
  -5329245.33246  -4135948.55944  23010857.3594                   23010857.1484
 11  8 20 17 22 30.0000000  0  9G03G24G07G13G19G11G23G08G28
  11920947.47746   9293138.03043  23167134.2424                   23167135.9574
  13123957.87946  10249512.20742  24072574.4224                   24072575.9574
 -11378801.14147  -8896541.54146  20702573.7894                   20702572.6764
   3046531.00447   2382739.49145  20947229.6414                   20947229.0434
  -1770919.34447  -1405959.35846  21344735.6954                   21344733.2194
  -8068552.07847  -6265453.84444  22597891.5314                   22597890.8674
  13284853.60947  10356765.96744  22632114.5164                   22632113.2194
 -14567892.70747 -11338863.21445  22065490.0474                   22065489.8284
  -5464975.00047  -4241711.91744  22985028.9774                   22985028.7154
 11  8 20 17 23  0.0000000  0  9G03G24G07G13G19G11G23G08G28
  11931269.10546   9301180.77243  23169098.7974                   23169100.2814
  12958074.03146  10120252.08642  24041007.3594                   24041009.1764
 -11511262.32447  -8999758.03746  20677367.6484                   20677366.4304
   3028983.97747   2369066.43345  20943890.8054                   20943889.9104
  -1808607.91847  -1435327.10145  21337564.2034                   21337561.4924
  -8230180.87947  -6391398.36544  22567134.0704                   22567133.8834
  13299470.08247  10368155.34044  22634896.3674                   22634894.2344
 -14732593.14847 -11467201.18245  22034148.3594                   22034148.1604
  -5600555.18047  -4347358.78644  22959229.0554                   22959228.1804
 11  8 20 17 23 30.0000000  0  9G03G24G07G13G19G11G23G08G28
  11941771.44146   9309364.33143  23171097.5704                   23171098.9414
  12792131.07045   9990945.96142  24009429.8204                   24009431.1564
 -11643525.35247  -9102820.12846  20652198.7734                   20652197.5234
   3011859.65647   2355722.75745  20940631.9454                   20940631.4024
  -1845808.78547  -1464314.81645  21330485.0784                   21330482.5004
  -8391593.21147  -6517174.20044  22536418.8204                   22536417.5944
  13314252.41047  10379673.92644  22637708.9614                   22637707.9964
 -14897281.90247 -11595530.07045  22002809.2974                   22002809.0204
  -5735979.92647  -4452884.55144  22933458.7114                   22933457.9774
 11  8 20 17 24  0.0000000  0  9G03G24G07G13G19G11G23G08G28
  11952445.30946   9317681.64743  23173128.1644                   23173130.0124
  12626125.37545   9861590.90642  23977839.6254                   23977841.9614
 -11775594.64147  -9205731.26546  20627067.4144                   20627065.3914
   2995149.07047   2342701.49045  20937451.9304                   20937451.4804
  -1882530.52747  -1492929.18945  21323497.0474                   21323494.6254
  -8552792.68447  -6642784.14044  22505743.0634                   22505742.3954
  13329191.21547  10391314.48244  22640552.3364                   22640550.2934
 -15061963.87147 -11723853.67145  21971471.3444                   21971470.5514
  -5871256.09847  -4558294.50144  22907716.2504                   22907715.8364
 11  8 20 17 24 30.0000000  0  9G03G24G07G13G19G11G23G08G28
  13538717.04346  10553737.34643  23474986.2274                   23474987.7504
  14035494.93846  10959801.00442  24246032.4534                   24246035.7504
 -10332034.06647  -8080878.85446  20901767.3204                   20901765.7704
   4554280.01647   3557608.67545  21234145.0864                   21234144.6134
   -343344.29747   -293563.30346  21616394.5314                   21616392.2344
  -7138341.19547  -5540614.14244  22774904.3914                   22774903.4184
  14919713.08247  11630682.05744  22943218.1174                   22943216.9024
 -13651201.82047 -10624558.54945  22239930.2894                   22239929.9734
  -4430950.83647  -3435978.69144  23181797.0634                   23181796.0164
 11  8 20 17 25  0.0000000  0  9G03G24G07G13G19G11G23G08G28
  13549752.49646  10562336.27143  23477086.0784                   23477087.1334
  13869399.43046  10830375.95342  24214426.0394                   24214428.5434
 -10463682.85947  -8183462.32246  20876715.8054                   20876714.1684
   4538416.92647   3545247.77545  21231126.0634                   21231125.7424
   -379086.66447   -321414.51746  21609592.8674                   21609590.8714
  -7299078.47747  -5665863.93344  22744317.0234                   22744316.7344
  14934983.80147  11642581.21844  22946123.7664                   22946123.1174
 -13815837.36747 -10752845.95845  22208600.9614                   22208600.9844
  -4565905.64847  -3541138.25844  23156115.9844                   23156115.3874
 11  8 20 17 25 30.0000000  0  9G03G24G07G13G19G11G23G08G28
  13560969.96546  10571077.09643  23479220.8594                   23479221.9064
  13703268.81346  10700923.58642  24182812.7114                   24182814.9344
 -10595113.24647  -8285875.60546  20851704.9694                   20851704.0234
   4522978.81347   3533218.02945  21228188.8594                   21228187.8954
   -414337.59047   -348882.80045  21602885.0084                   21602882.4884
  -7459574.58647  -5790925.80444  22713775.5234                   22713775.5004
  14950421.45746  11654610.46344  22949061.4534                   22949060.8204
 -13980441.89847 -10881109.20545  22177278.1564                   22177277.4104
  -4700695.69147  -3646169.43644  23130466.1884                   23130464.7704
 11  8 20 17 26  0.0000000  0  9G03G24G07G13G19G11G23G08G28
  13572370.29346  10579960.39243  23481390.9844                   23481391.8524
  13537109.80946  10571449.06342  24151193.3984                   24151196.4614
 -10726319.26647  -8388114.05846  20826737.4614                   20826736.1604
   4507967.68447   3521521.00045  21225332.5234                   21225331.2624
   -449095.24247   -375966.70946  21596270.8284                   21596268.4024
  -7619822.91847  -5915794.60844  22683281.0474                   22683280.5784
  14966026.54747  11666770.15544  22952031.6644                   22952030.3444
 -14145010.32447 -11009344.32345  22145961.8524                   22145961.3484
  -4835317.64147  -3751069.60344  23104849.0314                   23104848.1914
 11  8 20 17 26 30.0000000  0  9G03G24G07G13G19G11G23G08G28
  13583966.01846  10588995.94343  23483597.3594                   23483598.0704
  13370940.42646  10441966.44142  24119572.3594                   24119575.4924
 -10857284.31647  -8490164.73246  20801815.6884                   20801814.1254
   4493396.14547   3510166.51945  21222559.5864                   21222558.4804
   -483346.55547   -402656.06245  21589752.7504                   21589750.5864
  -7779805.37147  -6040456.21244  22652837.3594                   22652837.1294
  14981811.57847  11679070.05044  22955034.7274                   22955034.4144
 -14309525.55547 -11137537.97645  22114655.6884                   22114655.0704
  -4969757.28147  -3855827.75744  23079265.4844                   23079264.8834
 11  8 20 17 27  0.0000000  0  9G03G24G07G13G19G11G23G08G28
  13595761.63346  10598187.26343  23485841.2584                   23485842.6254
  13204770.73046  10312483.63742  24087952.1884                   24087954.2234
 -10987999.06647  -8592020.36646  20776941.4304                   20776939.8284
   4479268.75847   3499158.11845  21219871.0394                   21219870.2974
   -517086.81647   -428947.18645  21583332.3364                   21583330.2114
  -7939511.60547  -6164902.57844  22622446.5084                   22622446.1564
  14997781.05547  11691513.70344  22958074.4694                   22958073.4734
 -14473978.95347 -11265683.45545  22083361.0314                   22083359.9384
  -5104007.94947  -3960438.66844  23053719.0554                   23053716.9774
 11  8 20 17 27 30.0000000  0  9G03G24G07G13G19G11G23G08G28
  13607764.67246  10607540.10543  23488125.5944                   23488127.6524
  13038613.81646  10183010.74642  24056333.1414                   24056335.4104
 -11118451.09047  -8693671.29046  20752117.2274                   20752115.8984
   4465593.06347   3488501.68645  21217269.1334                   21217267.4024
   -550308.03947   -454833.87945  21577010.8444                   21577008.0634
  -8098928.00847  -6289123.10644  22592110.6414                   22592109.9654
  15013942.13647  11704106.59544  22961150.4534                   22961148.1954
 -14638358.69547 -11393771.54745  22052080.6724                   22052079.8834
  -5238060.27347  -4064894.97744  23028209.1024                   23028208.3714
 11  8 20 17 28  0.0000000  0  9G03G24G07G13G19G11G23G08G28
  13619979.31646  10617057.90543  23490450.2664                   23490452.2384
  12872479.94946  10053555.87643  24024718.4844                   24024721.2624
 -11248631.52747  -8795110.58246  20727344.7664                   20727343.1884
   4452373.35547   3478200.57945  21214753.3284                   21214752.6174
   -583005.30147   -480312.29145  21570788.8364                   21570785.9964
  -8258044.71547  -6413110.11244  22561830.8984                   22561830.6604
  15030298.94147  11716852.07244  22964261.9694                   22964261.4304
 -14802656.36747 -11521795.64645  22020815.7814                   22020815.0084
  -5371907.99647  -4169191.88544  23002739.1564                   23002737.7894
 11  8 20 17 28 30.0000000  0  9G03G24G07G13G19G11G23G08G28
  13632408.42646  10626742.87343  23492815.7894                   23492817.7774
  12706377.64146   9924125.47143  23993110.5084                   23993113.5044
 -11378532.82048  -8896332.36146  20702625.5164                   20702623.9454
   4439613.27747   3468257.60345  21212324.8984                   21212324.0474
   -615175.23047   -505379.78245  21564667.1724                   21564664.4384
  -8416852.99246  -6536856.74844  22531611.2664                   22531611.0234
  15046854.29347  11729752.25844  22967412.4844                   22967411.9574
 -14966864.01247 -11649749.63745  21989568.1334                   21989567.0904
  -5505546.31647  -4273325.60544  22977308.3594                   22977307.0784
 11  8 20 17 29  0.0000000  0  9G03G24G07G13G19G11G23G08G28
  13645042.45746  10636587.49443  23495219.3834                   23495221.3954
  12540302.61746   9794716.41842  23961507.6724                   23961509.8484
 -11508160.16847  -8997340.67046  20677958.0394                   20677956.4804
   4427303.25047   3458665.32945  21209982.9064                   21209982.0594
   -646826.99647   -530043.51645  21558643.7424                   21558641.1914
  -8575356.75046  -6660366.10644  22501448.6564                   22501448.6254
  15063598.41847  11742799.50244  22970599.0634                   22970598.3754
 -15130986.56247 -11777637.29145  21958336.5704                   21958336.0004
  -5638982.96547  -4377302.17344  22951916.3524                   22951914.9144
 11  8 20 17 29 30.0000000  0  9G03G24G07G13G19G11G23G08G28
  13657881.52346  10646591.87543  23497662.4844                   23497664.9654
  12374260.72346   9665333.14443  23929910.9454                   23929913.2384
 -11637508.48447  -9098131.56146  20653343.8754                   20653342.7114
   4415443.26247   3449423.72745  21207725.6564                   21207725.3984
   -677960.25447   -554303.21445  21552720.0084                   21552716.8554
  -8733550.09447  -6783633.60744  22471345.6174                   22471345.0514
  15080531.18046  11755993.76244  22973821.1884                   22973820.9224
 -15295019.61747 -11905455.21345  21927122.1804                   21927121.7704
  -5772215.77747  -4481119.93544  22926563.2194                   22926562.1374
 11  8 20 17 30  0.0000000  0  9G03G24G07G13G19G11G23G08G28
  13670924.28146  10656755.03843  23500145.1564                   23500146.8444
  12208256.40246   9535979.18143  23898320.2034                   23898323.3094
 -11766574.49647  -9198702.45946  20628783.3284                   20628782.0514
   4404032.25447   3440531.99145  21205554.4144                   21205553.4654
   -708575.59447   -578159.35745  21546893.9924                   21546891.0354
  -8891428.62947  -6906655.77844  22441302.7034                   22441301.6024
  15097651.37947  11769334.06344  22977079.3914                   22977078.6644
 -15458960.48447 -12033201.30545  21895925.2504                   21895924.7504
  -5905244.30147  -4584778.47844  22901248.6484                   22901247.5164
 11  8 20 17 30 30.0000000  0  9G03G24G07G13G19G11G23G08G28
  13684160.00846  10667068.43743  23502664.2664                   23502665.3284
  12042284.85946   9406650.66443  23866738.0084                   23866740.7034
 -11895364.26647  -9299058.13046  20604275.8524                   20604274.1604
   4393059.83247   3431981.99345  21203465.9224                   21203465.3134
   -738683.60547   -601620.16945  21541164.2344                   21541161.7344
  -9048997.44547  -7029436.65944  22411318.1174                   22411317.3524
  15114947.64146  11782811.54744  22980370.8524                   22980369.7344
 -15622814.80547 -12160879.97145  21864744.8444                   21864743.9804
  -6038077.10547  -4688284.54044  22875971.2664                   22875969.5864
 11  8 20 17 31  0.0000000  0  9G03G24G07G13G19G11G23G08G28
  13697576.50046  10677522.72543  23505216.9224                   23505217.9184
  11876338.89146   9277342.18243  23835159.4844                   23835162.2584
 -12023885.65247  -9399204.63846  20579818.9384                   20579817.0274
   4382513.56347   3423764.07945  21201459.3914                   21201458.9844
   -768296.39547   -624695.09145  21535528.4384                   21535526.2544
  -9206263.34447  -7151981.46344  22381391.8754                   22381390.5784
  15132407.34446  11796416.42044  22983693.7584                   22983692.7934
 -15786591.01247 -12288497.74845  21833578.8284                   21833578.6564
  -6170725.01647  -4791646.52644  22850729.2664                   22850727.7424
 11  8 20 17 31 30.0000000  0  9G03G24G07G13G19G11G23G08G28
  13711164.15246  10688110.40043  23507802.6174                   23507803.0704
  11710414.75446   9148050.71542  23803585.3984                   23803587.8954
 -12152143.36747  -9499145.71546  20555412.1094                   20555410.6454
   4372383.64547   3415870.57845  21199531.8594                   21199531.0824
   -797423.06647   -647391.22945  21529986.2424                   21529983.5434
  -9363230.10247  -7274293.15844  22351521.2894                   22351520.9884
  15150020.89547  11810141.11144  22987045.4454                   22987044.3014
 -15950294.15247 -12416058.60245  21802427.7114                   21802427.2274
  -6303195.50047  -4894870.27644  22825520.9694                   22825519.0744
 11  8 20 17 32  0.0000000  0  9G03G24G07G13G19G11G23G08G28
  13724909.41846  10698820.86243  23510418.2974                   23510419.7814
  11544504.99246   9018770.42642  23772013.1644                   23772015.8714
 -12280146.16447  -9598888.15046  20531053.9384                   20531052.3404
   4362657.21547   3408291.51545  21197681.0474                   21197680.5394
   -826076.66447   -669718.73845  21524533.6174                   21524531.5234
  -9519905.28947  -7396377.67244  22321707.2814                   22321706.6294
  15167774.87547  11823975.26144  22990423.9304                   22990423.1334
 -16113933.23047 -12543569.56045  21771288.0944                   21771287.0744
  -6435500.13347  -4997964.77044  22800344.0084                   22800342.5904
 11  8 20 17 32 30.0000000  0  9G03G24G07G13G19G11G23G08G28
  15314227.96946  11937250.79343  23812855.2504                   23812856.8674
  12954036.77346  10117106.90843  24040238.1644                   24040240.4654
 -10832469.27747  -8470828.21946  20806537.8754                   20806536.2894
   5928750.43447   4628623.85545  21495698.4844                   21495697.6994
    721159.84447    535920.08145  21818962.7344                   21818960.8444
  -8100861.92247  -6290629.56244  22591741.7114                   22591741.6334
  16761084.59846  13065515.21743  23293620.3364                   23293619.1054
 -14702082.15647 -11443425.84545  22039953.8914                   22039954.0634
  -4992216.57847  -3873328.19544  23074991.7194                   23074989.9144
 11  8 20 17 33  0.0000000  0  9G03G24G07G13G19G11G23G08G28
  15328274.27746  11948195.89343  23815528.0314                   23815530.9224
  12788158.28546   9987850.94643  24008672.8204                   24008675.0784
 -10959962.92647  -8570173.92446  20782276.5314                   20782275.1214
   5919816.37947   4621662.19445  21493998.7034                   21493997.6564
    693439.13347    514319.50145  21813688.1564                   21813685.7464
  -8256951.03947  -6412257.42144  22562039.5234                   22562038.5434
  16779104.51247  13079556.61143  23297049.6954                   23297048.7194
 -14865593.47347 -11570837.23645  22008838.8524                   22008838.4264
  -5124198.14147  -3976170.93344  23049876.4304                   23049875.0634
 11  8 20 17 33 30.0000000  0  9G03G24G07G13G19G11G23G08G28
  15342464.22746  11959252.91843  23818229.5864                   23818230.9694
  12622296.98846   9858608.40743  23977109.8984                   23977112.7624
 -11087201.43447  -8669320.81146  20758064.0164                   20758062.5744
   5911271.95747   4615004.16045  21492372.8834                   21492371.9884
    666178.47347    493077.39545  21808500.3054                   21808498.1374
  -8412745.55547  -6533655.71744  22532392.6644                   22532392.4304
  16797250.15246  13093695.91043  23300503.1414                   23300502.2934
 -15029040.88747 -11698198.83745  21977735.8754                   21977735.1294
  -5256021.95747  -4078890.78344  23024791.1804                   23024789.9024
 11  8 20 17 34  0.0000000  0  9G03G24G07G13G19G11G23G08G28
  15356796.81646  11970421.05443  23820957.9924                   23820958.7774
  12456457.31346   9729382.80243  23945551.4454                   23945554.5784
 -11214181.53147  -8768266.33946  20733900.4384                   20733898.8754
   5903115.65647   4608648.54145  21490820.6254                   21490820.1884
    639376.78547    472192.92645  21803400.5944                   21803398.0634
  -8568241.08247  -6654821.04644  22502802.8524                   22502802.4264
  16815520.06347  13107932.09043  23303980.1884                   23303978.7734
 -15192421.14147 -11825508.10645  21946645.5634                   21946644.8914
  -5387687.66847  -4181487.38144  22999736.0234                   22999735.1024
 11  8 20 17 34 30.0000000  0  9G03G24G07G13G19G11G23G08G28
  15371272.72346  11981700.90243  23823712.8984                   23823713.4574
  12290645.75446   9600178.96043  23913999.3284                   23914001.0354
 -11340898.12547  -8867006.53246  20709786.5944                   20709785.7384
   5895348.41847   4602596.10945  21489342.6804                   21489342.0044
    613034.86747    451666.74645  21798387.7734                   21798385.1024
  -8723431.01247  -6775748.23744  22473271.0784                   22473270.8364
  16833915.21947  13122265.84143  23307480.6094                   23307479.5904
 -15355728.72747 -11952760.73145  21915569.6414                   21915569.0704
  -5519192.37947  -4283958.54244  22974710.8204                   22974710.7584
 11  8 20 17 35  0.0000000  0  9G03G24G07G13G19G11G23G08G28
  15385904.55946  11993102.18543  23826496.1884                   23826497.6994
  12124880.68046   9471011.44943  23882454.7504                   23882457.1884
 -11467333.57847  -8965527.65546  20685727.1954                   20685725.8524
   5887982.71947   4596856.54045  21487941.2194                   21487940.7424
    587165.82847    431509.01445  21793465.1024                   21793462.5124
  -8878297.24246  -6896423.19244  22443801.2584                   22443800.2894
  16852447.58247  13136706.52944  23311007.0704                   23311006.2624
 -15518946.70747 -12079943.56245  21884509.8284                   21884509.2344
  -5650522.07447  -4386293.34444  22949719.9064                   22949719.1604
 11  8 20 17 35 30.0000000  0  9G03G24G07G13G19G11G23G08G28
  15400687.35546  12004621.18143  23829308.6024                   23829310.7504
  11959162.84446   9341880.73842  23850920.4694                   23850921.3954
 -11593488.32447  -9063830.05246  20661720.6804                   20661719.0594
   5881013.66847   4591426.07045  21486614.8754                   21486614.8634
    561765.14847    411716.27145  21788631.9694                   21788629.1024
  -9032838.82847  -7016845.19144  22414393.0234                   22414392.3014
  16871112.23047  13151250.27443  23314559.3204                   23314558.1684
 -15682075.59047 -12207056.95045  21853467.7034                   21853466.8914
  -5781679.47747  -4488493.91644  22924761.7034                   22924760.9184
 11  8 20 17 36  0.0000000  0  9G03G24G07G13G19G11G23G08G28
  15415624.65646  12016260.58043  23832151.8364                   23832152.6764
  11793501.19546   9212793.75343  23819395.9144                   23819397.9104
 -11719354.75447  -9161907.78346  20637768.7974                   20637767.4024
   5874444.46947   4586307.15945  21485365.2274                   21485364.2664
    536836.12547    392291.02245  21783888.0634                   21783885.1024
  -9187047.03947  -7137007.41244  22385048.2274                   22385047.8094
  16889912.15646  13165899.40043  23318136.0944                   23318135.8484
 -15845107.65647 -12334094.89845  21822443.4774                   21822443.0784
  -5912659.66447  -4590556.35544  22899837.1484                   22899836.6564
 11  8 20 17 36 30.0000000  0  9G03G24G07G13G19G11G23G08G28
  15430723.29346  12028025.59442  23835025.4614                   23835025.3134
  11627908.11746   9083760.19043  23787883.4924                   23787886.8164
 -11844921.29347  -9259751.83246  20613874.6094                   20613873.0864
   5868281.91447   4581505.11645  21484191.8444                   21484191.2814
    512385.62147    373238.65845  21779234.8524                   21779232.4454
  -9340909.59047  -7256900.29444  22355769.3834                   22355768.4104
  16908853.74246  13180658.91043  23321740.9064                   23321740.3984
 -16008031.45747 -12461048.46945  21791439.9224                   21791439.5744
  -6043453.98847  -4692474.00844  22874947.8444                   22874946.4264
 11  8 20 17 37  0.0000000  0  9G03G24G07G13G19G11G23G08G28
  15445980.10546  12039913.91842  23837928.4534                   23837929.6334
  11462386.71146   8954782.60543  23756386.5164                   23756388.9924
 -11970185.89847  -9357360.61146  20590037.4844                   20590035.6804
   5862523.08247   4577017.67045  21483096.4224                   21483096.0824
    488411.02047    354557.11545  21774673.1644                   21774670.6604
  -9494423.73847  -7376521.69944  22326556.4844                   22326555.5354
  16927934.40646  13195526.82443  23325372.1954                   23325371.4454
 -16170845.05947 -12587916.18745  21760457.8134                   21760457.0124
  -6174063.33647  -4794247.52344  22850093.5634                   22850092.5474
 11  8 20 17 37 30.0000000  0  9G03G24G07G13G19G11G23G08G28
  15461394.82046  12051925.30142  23840861.8594                   23840862.5354
  11296941.99646   8825864.71943  23724903.5234                   23724906.1724
 -12095144.68047  -9454731.07846  20566258.7734                   20566257.0004
   5857167.22747   4572844.21845  21482077.3674                   21482076.9694
    464911.79747    336246.00945  21770200.9534                   21770198.5944
  -9647584.41847  -7495867.62844  22297410.1564                   22297409.8594
  16947152.69146  13210501.94743  23329029.9774                   23329029.1604
 -16333544.77347 -12714695.16045  21729497.2274                   21729496.5864
  -6304486.58247  -4895875.99944  22825275.1024                   22825273.9224
 11  8 20 17 38  0.0000000  0  9G03G24G07G13G19G11G23G08G28
  15476959.14546  12064053.22742  23843823.5784                   23843823.7194
  11131571.19346   8697004.38443  23693434.9384                   23693436.5704
 -12219801.59447  -9551866.33346  20542537.1024                   20542535.5084
   5852205.64547   4568978.00545  21481133.1884                   21481132.5944
    441879.95347    318299.07045  21765818.3834                   21765815.8404
  -9800394.36747  -7614940.31744  22268331.8984                   22268330.9454
  16966500.33646  13225577.88743  23332711.6804                   23332709.8164
 -16496134.44947 -12841388.39945  21698557.4224                   21698556.5554
  -6434730.35947  -4997364.62644  22800490.2344                   22800489.3714
 11  8 20 17 38 30.0000000  0  9G03G24G07G13G19G11G23G08G28
  15492665.74246  12076292.12142  23846812.1174                   23846813.1334
  10966272.75446   8568200.49543  23661979.4384                   23661981.1334
 -12344159.13347  -9648768.30946  20518872.5864                   20518871.1054
   5847631.35247   4565413.54945  21480262.8054                   21480261.8674
    419308.03947    300710.52245  21761522.7734                   21761520.4454
  -9952855.01247  -7733740.78844  22239319.6484                   22239318.6414
  16985969.91846  13240748.85343  23336416.0004                   23336414.9184
 -16658616.36747 -12967997.66445  21667637.7974                   21667636.6914
  -6564800.00847  -5098717.57044  22775739.0474                   22775737.9224
 11  8 20 17 39  0.0000000  0  9G03G24G07G13G19G11G23G08G28
  15508507.67646  12088636.39142  23849826.8284                   23849827.1454
  10801045.21946   8439451.83343  23630536.8984                   23630540.1644
 -12468220.00047  -9745439.10746  20495265.0394                   20495263.3674
   5843436.51247   4562144.79545  21479464.3674                   21479463.8204
    397189.19147    283475.03945  21757314.0474                   21757311.0554
 -10104968.34847  -7852270.64744  22210373.4454                   22210372.5704
  17005553.91046  13256008.97443  23340142.5474                   23340141.5004
 -16820993.41847 -13094525.20745  21636738.7344                   21636737.9494
  -6694701.18047  -5199939.25044  22751019.5704                   22751018.4454
 11  8 20 17 39 30.0000000  0  9G03G24G07G13G19G11G23G08G28
  15524481.33646  12101083.30942  23852866.3594                   23852868.0084
  10635890.80946   8310760.13043  23599108.9614                   23599111.7584
 -12591982.54347  -9841877.44546  20471713.9224                   20471712.2934
   5839618.15647   4559169.40345  21478737.6954                   21478737.1054
    375519.93047    266589.88145  21753190.0084                   21753187.9344
 -10256732.27047  -7970528.21745  22181493.3754                   22181492.5744
  17025248.80547  13271355.48443  23343891.2274                   23343889.3754
 -16983264.29747 -13220970.02145  21605859.4064                   21605858.9454
  -6824435.25847  -5301030.72544  22726331.8054                   22726330.4534
 11  8 20 17 40  0.0000000  0  9G03G24G07G13G19G11G23G08G28
  15540579.34446  12113627.08743  23855929.8834                   23855931.7424
  10470807.94546   8182124.21043  23567695.3204                   23567697.2584
 -12715449.87947  -9938085.75146  20448218.7814                   20448216.9654
   5836168.59047   4556481.37845  21478081.1564                   21478081.1644
    354293.06647    250049.41845  21749151.2114                   21749148.6174
 -10408148.33647  -8088514.74344  22152679.7194                   22152679.1844
  17045047.02746  13286782.53743  23347658.5394                   23347657.2664
 -17145431.69947 -13347334.20145  21574999.9844                   21574999.5704
  -6954007.81247  -5401996.31244  22701675.1804                   22701674.2234
 11  8 20 17 40 30.0000000  0  9G03G24G07G13G19G11G23G08G28
  15556796.58246  12126263.81642  23859016.5164                   23859017.3874
  10305796.49246   8053543.85143  23536294.7664                   23536296.8984
 -12838622.93047 -10034064.75546  20424779.2424                   20424777.4614
   5833081.95747   4554076.14945  21477494.1564                   21477493.7504
    333503.37547    233849.62245  21745195.2734                   21745192.5234
 -10559216.80547  -8206230.41744  22123932.5554                   22123931.9144
  17064942.49646  13302285.30543  23351444.9614                   23351443.5664
 -17307496.67647 -13473618.55445  21544159.9304                   21544159.6564
  -7083422.77347  -5502839.11544  22677048.1414                   22677046.6724
 11  8 20 17 41  0.0000000  0  9G03G24G07G13G19G11G23G08G28
  17148546.66446  13366588.50442  24161916.0944                   24161918.4844
  11716282.23046   9152623.70543  23804700.7664                   23804702.6764
 -11386078.82047  -8902212.20046  20701189.5084                   20701187.7894
   7405772.60247   5779549.32945  21776767.1954                   21776766.5084
   1888565.57847   1445586.38345  22041113.5164                   22041110.9774
  -9134512.64147  -7096071.27844  22395044.7664                   22395044.1214
  18660349.00046  14545459.10043  23655039.8054                   23655039.5124
 -15894034.80947 -12372219.66645  21813132.8984                   21813132.1644
  -5637259.76247  -4375958.81944  22952243.5164                   22952241.9804
 11  8 20 17 41 30.0000000  0  9G03G24G07G13G19G11G23G08G28
  17164975.56346  13379390.18143  24165043.0164                   24165044.2074
  11551404.66446   9024147.65543  23773326.2504                   23773328.7934
 -11508676.38347  -8997742.77346  20677859.6644                   20677857.8754
   7403384.65647   5777688.53145  21776313.0864                   21776312.4804
   1868623.21547   1430046.81845  22037318.7734                   22037316.3874
  -9284895.89147  -7213253.01544  22366427.7584                   22366426.7814
  18680412.47346  14561092.79343  23658858.5234                   23658858.2074
 -16055907.42647 -12498354.15145  21782329.5084                   21782328.3834
  -5766380.72347  -4476572.52944  22927672.4144                   22927671.7894
 11  8 20 17 42  0.0000000  0  9G03G24G07G13G19G11G23G08G28
  17181494.21946  13392261.76343  24168187.2894                   24168187.8794
  11386586.53146   8895718.07143  23741962.1644                   23741963.7384
 -11630995.12947  -9093056.09046  20654583.2974                   20654581.7584
   7401329.58247   5776087.12445  21775922.1254                   21775921.1214
   1849088.64547   1414825.01345  22033601.1954                   22033598.7734
  -9434944.25847  -7330173.77845  22337874.3204                   22337873.5474
  18700543.25446  14576778.99844  23662689.6024                   23662689.2384
 -16217693.44947 -12624421.16245  21751542.5394                   21751541.8594
  -5895367.98447  -4577082.08544  22903127.2114                   22903125.8834
 11  8 20 17 42 30.0000000  0  9G03G24G07G13G19G11G23G08G28
  17198096.82046  13405198.73042  24171346.7274                   24171347.2074
  11221827.43846   8767334.35943  23710609.5394                   23710612.1954
 -11753036.48047  -9188153.24546  20631359.2894                   20631358.1914
   7399601.34847   5774740.40645  21775592.6804                   21775592.3284
   1829955.78947   1399916.25945  22029960.5394                   22029958.0204
  -9584658.19947  -7446833.95445  22309384.5084                   22309384.1414
  18720735.34046  14592512.92743  23666531.5864                   23666531.9494
 -16379393.88747 -12750421.47545  21720772.0314                   21720770.7974
  -6024226.08647  -4677490.96544  22878606.4774                   22878605.1644
 11  8 20 17 43  0.0000000  0  9G03G24G07G13G19G11G23G08G28
  17214779.03546  13418197.67843  24174520.7034                   24174521.3594
  11057128.44947   8638997.55043  23679268.2894                   23679269.9734
 -11874800.16447  -9283034.05046  20608188.9384                   20608187.5394
   7398195.13347   5773644.60545  21775325.7194                   21775325.0904
   1811220.07047   1385316.96545  22026395.2664                   22026392.4264
  -9734036.74647  -7563232.78944  22280958.5704                   22280958.4064
  18740983.96946  14608290.92343  23670385.6334                   23670385.0634
 -16541008.43047 -12876354.87145  21690017.4844                   21690016.7934
  -6152957.51247  -4777801.13744  22854109.4534                   22854109.0704
 11  8 20 17 43 30.0000000  0  9G03G24G07G13G19G11G23G08G28
  17231533.08646  13431252.71142  24177709.0234                   24177708.9924
  10892487.80146   8510706.18343  23647937.6334                   23647940.9614
 -11996289.57448  -9377701.11746  20585069.7194                   20585068.4734
   7397103.36347   5772793.82945  21775117.4614                   21775117.5474
   1792873.81647   1371021.15945  22022903.8364                   22022901.6214
  -9883082.38347  -7679372.21345  22252596.6024                   22252595.8094
  18761281.31346  14624106.84543  23674248.3134                   23674248.1724
 -16702540.61747 -13002224.08045  21659279.1484                   21659278.5004
  -6281568.21147  -4878017.24744  22829636.0004                   22829635.1054
 11  8 20 17 44  0.0000000  0  9G03G24G07G13G19G11G23G08G28
  17248360.20346  13444364.67642  24180910.9774                   24180911.5984
  10727911.84847   8382465.22143  23616620.5784                   23616623.1174
 -12117499.60947  -9472150.50746  20562004.9144                   20562002.9734
   7396326.14147   5772188.15145  21774969.8834                   21774969.6524
   1774918.17247   1357029.71545  22019486.9224                   22019484.8554
 -10031789.02347  -7795247.48845  22224298.2664                   22224298.1334
  18781627.80946  14639961.09943  23678119.6254                   23678119.3554
 -16863984.59847 -13128024.55945  21628557.0394                   21628556.9104
  -6410055.59047  -4978137.25544  22805185.6724                   22805184.6564
 11  8 20 17 44 30.0000000  0  9G03G24G07G13G19G11G23G08G28
  17265253.93445  13457528.50042  24184124.4144                   24184126.1484
  10563399.92246   8254274.14543  23585314.4454                   23585316.7114
 -12238431.85947  -9566383.42946  20538992.1334                   20538990.3524
   7395856.86747   5771822.42045  21774881.2114                   21774879.9304
   1757346.16047   1343337.21245  22016143.3524                   22016141.0904
 -10180157.25847  -7910859.02145  22196065.0944                   22196064.1414
  18802016.53946  14655848.24444  23681999.7664                   23681999.5234
 -17025342.46547 -13253757.95245  21597851.8364                   21597851.3014
  -6538424.74647  -5078165.14144  22780757.3134                   22780756.9694
 11  8 20 17 45  0.0000000  0  8G24G07G13G19G11G23G08G28
  10398959.48047   8126138.82743  23554022.4384                   23554025.5004
 -12359080.03947  -9660394.99146  20516033.0164                   20516032.0314
   7395696.74247   5771697.59445  21774849.7504                   21774849.9144
   1740159.65247   1329945.09845  22012872.7814                   22012870.3094
 -10328180.22747  -8026201.58344  22167896.7194                   22167896.1844
  18822449.42646  14671769.79343  23685888.2584                   23685887.7384
 -17186607.71947 -13379419.15145  21567164.3134                   21567163.5514
  -6666672.05947  -5178098.09644  22756352.8834                   22756352.0594
 11  8 20 17 45 30.0000000  0  8G24G07G13G19G11G23G08G28
  10234603.35546   7998069.21143  23522745.5314                   23522748.6174
 -12479432.70347  -9754176.29246  20493130.8914                   20493129.4884
   7395853.05147   5771819.34045  21774880.1644                   21774879.6094
   1723365.69947   1316858.88845  22009677.1884                   22009674.7194
 -10475845.15247  -8141265.09744  22139797.4064                   22139796.6334
  18842933.19946  14687731.02743  23689786.5474                   23689786.3404
 -17347768.60247 -13504999.04245  21536496.1564                   21536495.6134
  -6794788.53147  -5277929.08744  22731973.3364                   22731972.2194
 11  8 20 17 46  0.0000000  0  8G24G07G13G19G11G23G08G28
  10070360.33646   7870087.64544  23491491.7734                   23491494.5084
 -12599462.08247  -9847705.68346  20470290.0314                   20470288.6294
   7396348.59447   5772205.42645  21774974.9064                   21774973.9734
   1706987.50047   1304096.64145  22006560.7194                   22006558.4694
 -10623123.68047  -8256027.54745  22111770.8524                   22111770.3554
  18863491.16846  14703750.04743  23693698.3444                   23693698.0044
 -17508797.00847 -13630475.71745  21505853.1724                   21505852.5984
  -6922749.40247  -5377638.83944  22707622.7734                   22707622.0664
 11  8 20 17 46 30.0000000  0  8G24G07G13G19G11G23G08G28
   9906242.80946   7742203.89743  23460261.7814                   23460264.0514
 -12719156.73047  -9940974.24646  20447513.1334                   20447511.5824
   7397189.53547   5772860.63145  21775134.1644                   21775133.8014
   1691031.62547   1291663.45345  22003524.0864                   22003522.4804
 -10770003.90247  -8370479.63544  22083821.2974                   22083819.8794
  18884129.26246  14719831.59043  23697626.3364                   23697625.3244
 -17669681.83647 -13755840.50245  21475238.2274                   21475237.4694
  -7050546.23447  -5477220.77544  22683303.8134                   22683302.6254
 11  8 20 17 47  0.0000000  0  8G24G07G13G19G11G23G08G28
   9742247.88746   7614415.77243  23429054.3834                   23429056.7034
 -12838520.88347 -10033985.26246  20424798.4384                   20424797.0474
   7398366.87547   5773777.99045  21775358.3834                   21775358.1994
   1675489.16447   1279552.42845  22000566.7664                   22000565.0164
 -10916489.12547  -8484623.90544  22055945.3444                   22055944.4224
  18904838.60546  14735968.53243  23701567.1954                   23701566.3014
 -17830427.10547 -13881096.52245  21444649.3204                   21444648.5744
  -7178186.33247  -5576680.55644  22659014.7894                   22659013.8674
 11  8 20 17 47 30.0000000  0  8G24G07G13G19G11G23G08G28
   9578370.64146   7486719.27843  23397869.3984                   23397872.1024
 -12957560.27047 -10126743.22846  20402146.1644                   20402144.9454
   7399869.59047   5774948.85745  21775644.2424                   21775644.2114
   1660349.49247   1267755.26445  21997686.2194                   21997683.6724
 -11062584.07447  -8598464.09345  22028144.2504                   22028143.5824
  18925608.49246  14752152.69143  23705520.0004                   23705519.0004
 -17991038.85947 -14006248.51845  21414086.0634                   21414085.3834
  -7305678.25047  -5676024.90044  22634754.4694                   22634752.5274
 11  8 20 17 48  0.0000000  0  8G24G07G13G19G11G23G08G28
   9414609.40646   7359113.16643  23366706.5394                   23366708.8014
 -13076278.39147 -10219250.87146  20379555.0784                   20379553.6564
   7401690.40647   5776367.61645  21775991.0634                   21775990.9384
   1645605.34447   1256266.28445  21994880.1024                   21994877.8754
 -11208291.18447  -8712002.07745  22000416.7034                   22000416.5474
  18946431.28546  14768378.07843  23709482.0164                   23709481.4694
 -18151519.28547 -14131298.20145  21383547.4304                   21383547.0124
  -7433027.78147  -5775258.27244  22610519.7894                   22610518.7664
 11  8 20 17 48 30.0000000  0  8G24G07G13G19G11G23G08G28
   9250960.62546   7231594.69643  23335565.1884                   23335567.0664
 -13194679.32847 -10311511.32646  20357023.9144                   20357022.4344
   7403819.74247   5778026.78945  21776396.3364                   21776396.0314
   1631247.46147   1245078.32645  21992148.0704                   21992145.1374
 -11353614.47347  -8825240.95044  21972762.9144                   21972762.0354
  18967297.96546  14784637.64543  23713452.9694                   23713453.4224
 -18311872.60247 -14256248.81245  21353033.2894                   21353032.4574
  -7560242.01247  -5874386.23744  22586312.2894                   22586310.9304
 11  8 20 17 49  0.0000000  0  8G24G07G13G19G11G23G08G28
   9087421.07446   7104161.34543  23304444.9384                   23304446.9884
 -13312768.00847 -10403528.47346  20334552.5864                   20334550.9494
   7406248.14147   5779918.96145  21776858.6484                   21776858.2814
   1617266.62147   1234184.13645  21989487.8834                   21989485.3524
 -11498557.39847  -8938183.46745  21945181.2894                   21945180.7624
  18988198.94146  14800923.90143  23717429.8444                   23717430.9964
 -18472103.61347 -14381104.13445  21322542.5704                   21322541.6454
  -7687328.69947  -5973414.78644  22562128.3524                   22562127.4534
 11  8 20 17 49 30.0000000  0  8G24G07G13G19G11G23G08G28
  10499418.57846   8204419.15543  23573138.7734                   23573141.2114
 -11855119.12948  -9267698.18446  20611933.7504                   20611931.9804
   8984391.50847   7009640.99245  22077169.3674                   22077169.2774
   3179079.43447   2451181.10145  22286690.8364                   22286688.3674
 -10067693.30547  -7823224.40345  22217465.8204   22217465.1454   20584550.36746
  16044833.88043                  24021205.5004                   24021205.9774
 -17056785.69947 -13278259.01345  21591868.3754                   21591867.8794
  -6238865.03547  -4844741.79544  22837761.8444                   22837760.4144
 11  8 20 17 50  0.0000000  0  9G17G24G07G13G19G11G23G08G28
  21672124.84856  16915225.98453  24749534.4384                   24749536.3164
  10336096.30546   8077155.16343  23542059.3524                   23542062.0314
 -11972587.65648  -9359232.11146  20589580.5084                   20589579.0234
   8987398.41047   7011983.96044  22077741.4924                   22077741.0554
   3165833.52747   2440859.58845  22284169.8054                   22284167.3244
 -10211878.16047  -7935576.21444  22190028.2344   22190027.4344   20605501.44546
  16061159.18643                  24025192.4304                   24025193.6374
 -17216776.17247 -13402926.88045  21561423.3984                   21561422.5984
  -6365709.66847  -4943581.72444  22813623.7424                   22813622.9884
 11  8 20 17 50 30.0000000  0  9G17G24G07G13G19G11G23G08G28
  21474350.70746  16761116.35643  24711899.4064                   24711901.6254
  10172865.12546   7949962.05443  23510997.9694                   23511000.3364
 -12089765.52348  -9450539.54146  20567282.0944                   20567280.6254
   8990667.67647   7014531.35945  22078363.5004                   22078363.5824
   3152928.88747   2430804.00045  22281714.4064                   22281711.7304
 -10355702.13747  -8047646.81445  22162659.6334   22162658.8634   20626450.79746
  16077483.13443                  24029179.9924                   24029180.5274
 -17376665.35247 -13527515.84045  21530997.3914                   21530997.0634
  -6492457.15247  -5042345.98744  22789504.9454                   22789503.4024
 11  8 20 17 51  0.0000000  0  9G17G24G07G13G19G11G23G08G28
  21276625.29346  16607044.71643  24674272.4064                   24674274.5824
  10009712.50846   7822830.20943  23479950.7114                   23479953.6844
 -12206666.49247  -9541631.20646  20545036.9304                   20545035.4224
   8994180.96947   7017268.93044  22079032.4924                   22079032.0004
   3140347.18047   2421000.02445  22279319.8674                   22279317.7734
 -10499178.19547  -8159446.29145  22135356.5784   22135356.1954   20647380.24646
  16093791.55043                  24033163.1954                   24033162.9614
 -17536466.68047 -13652036.32345  21500588.2584                   21500587.4184
  -6619123.53547  -5141047.08044  22765401.2664                   22765399.9494
 11  8 20 17 51 30.0000000  0  9G17G24G07G13G19G11G23G08G28
  21078957.01246  16453017.61143  24636657.6804                   24636658.7734
   9846647.65246   7695766.71843  23448920.2974                   23448922.7114
 -12323282.53947  -9632500.86046  20522845.4384                   20522844.0434
   8997941.45347   7020199.08944  22079747.7584                   22079748.0434
   3128091.85247   2411450.37945  22276987.7664                   22276985.6294
 -10642297.69547  -8270967.97545  22108122.5474   22108121.5084   20668292.96946
  16110086.93743                  24037142.6414                   24037142.5314
 -17696171.92647 -13776481.96045  21470197.1254                   21470196.5594
  -6745703.87947  -5239681.08644  22741313.2344                   22741312.4614
 11  8 20 17 52  0.0000000  0  9G17G24G07G13G19G11G23G08G28
  20881349.55146  16299037.81643  24599054.1174                   24599055.5274
   9683675.14547   7568775.19543  23417907.8754                   23417910.1914
 -12439610.14847  -9723145.75346  20500708.6954                   20500707.5274
   9001947.80947   7023320.84345  22080510.7194                   22080510.0824
   3116161.73447   2402154.12645  22274717.7504                   22274715.3324
 -10785056.39147  -8382208.45544  22080955.5394   22080955.0434   20689188.07446
  16126368.66943                  24041118.9064                   24041119.7034
 -17855777.27747 -13900849.74745  21439825.3054                   21439824.7504
  -6872197.34047  -5338247.38544  22717242.3444                   22717241.4774
 11  8 20 17 52 30.0000000  0  9G17G24G07G13G19G11G23G08G28
  20683813.85246  16145114.01743  24561464.3674                   24561466.1024
   9520807.03547   7441864.97943  23386915.2274                   23386917.0784
 -12555638.55547  -9813557.50546  20478629.6954                   20478628.2424
   9006205.89847   7026638.75344  22081320.4694                   22081320.3444
   3104562.78947   2393115.96645  22272510.7584                   22272508.6214
 -10927442.61747  -8493158.73444  22053860.5234   22053859.9024   20710071.45746
  16142641.20843                  24045093.4844                   24045093.7704
 -18015271.68047 -14025131.08745  21409474.5784                   21409473.9104
  -6998596.13347  -5436739.95845  22693189.7664                   22693188.2464
 11  8 20 17 53  0.0000000  0  9G17G24G07G13G19G11G23G08G28
  20486345.53946  15991242.77143  24523887.2974                   24523889.2384
   9358040.27747   7315033.76943  23355941.3984                   23355943.9024
 -12671372.25447  -9903739.61846  20456606.2894                   20456604.8284
   9010706.23447   7030145.42844  22082177.4304                   22082176.8594
   3093286.20747   2384328.96645  22270365.2344                   22270362.9224
 -11069460.09447  -8603821.67544  22026835.9304   22026834.6994   20730934.03946
  16158897.60043                  24049063.4224                   24049064.0124
 -18174659.30147 -14149329.21545  21379143.7344                   21379143.6294
  -7124907.31647  -5535164.21544  22669153.3054                   22669152.4884
 11  8 20 17 53 30.0000000  0  9G17G24G07G13G19G11G23G08G28
  20288951.03546  15837428.95343  24486324.6094                   24486326.0394
   9195382.01246   7188287.10843  23324988.8834                   23324990.9414
 -12786805.18047  -9993687.36346  20434639.8914                   20434638.6804
   9015450.23447   7033841.98244  22083080.3524                   22083079.7734
   3082333.02047   2375794.00145  22268279.9924                   22268277.9414
 -11211102.48847  -8714192.35644  21999882.1954   21999881.4224   20751777.29346
  16175138.86443                  24053029.5864                   24053030.0984
 -18333933.65247 -14273439.09045  21348835.3754                   21348835.0354
  -7251128.00847  -5633517.97145  22645133.9534                   22645133.2704
 11  8 20 17 54  0.0000000  0  9G17G24G07G13G19G11G23G08G28
  20091631.97346  15683673.95843  24448775.5004                   24448778.3484
   9032834.32047   7061626.64543  23294055.9454                   23294059.1954
 -12901936.05148 -10083399.72246  20412731.2034                   20412729.5944
   9020433.58247   7037725.03445  22084028.1334                   22084028.5314
   3071700.00447   2367508.50945  22266256.9924                   22266254.8554
 -11352367.66447  -8824269.06444  21973000.1174   21972999.5124   20772597.60946
  16191362.23443                  24056990.7034                   24056992.4144
 -18493093.35947 -14397459.62645  21318548.0944                   21318547.4224
  -7377259.43747  -5731802.21544  22621132.2814                   22621131.2814
 11  8 20 17 54 30.0000000  0  9G17G24G07G13G19G11G23G08G28
  19894392.53146  15529980.96843  24411242.0944                   24411244.4384
   8870403.01646   6935056.86143  23263147.2274                   23263148.8444
 -13016760.79348 -10172873.55546  20390880.7894                   20390879.1484
   9025656.15647   7041794.47544  22085022.0164                   22085022.0004
   3061386.46547   2359471.92045  22264294.7504                   22264292.3554
 -11493250.66447  -8934048.02145  21946191.0944   21946190.3954   20793394.39546
  16207567.32042                  24060949.3524                   24060949.0044
 -18652133.89847 -14521387.30245  21288283.6414                   21288282.8794
  -7503300.60247  -5830016.08745  22597147.5784                   22597146.4144
 11  8 20 17 55  0.0000000  0  9G17G24G07G13G19G11G23G08G28
  19697226.22346  15376345.04243  24373722.0944                   24373725.3284
   8708082.46946   6808573.35943  23232258.3674                   23232260.6334
 -13131286.14147 -10262114.08746  20369087.1024                   20369085.7544
   9031106.29347   7046041.28044  22086059.7734                   22086059.3444
   3051381.07447   2351675.49545  22262390.4694                   22262388.5474
 -11633757.92647  -9043534.17645  21919453.7734   21919452.6484   20814156.30145
  16223745.17242                  24064899.4224                   24064898.8594
 -18811061.55147 -14645227.00545  21258040.5634                   21258039.9144
  -7629260.75447  -5928166.81345  22573178.2584                   22573176.9024
 11  8 20 17 55 30.0000000  0  9G17G24G07G13G19G11G23G08G28
  19500139.00846  15222770.72243  24336217.7034                   24336220.5204
   8545880.03147   6682181.87243  23201392.4384                   23201394.8364
 -13245506.15647 -10351116.70546  20347352.2664                   20347350.6024
   9036784.79747   7050465.97044  22087139.9454                   22087140.0474
   3041685.30147   2344120.30445  22260545.5864                   22260543.3094
 -11773882.43447  -9152722.07344  21892788.5084   21892788.3364   20834885.06345
  16239897.25042                  24068844.7194                   24068843.1134
 -18969869.97747 -14768973.81645  21227820.5634                   21227819.9184
  -7755136.75047  -6026251.98644  22549224.7974                   22549223.6884
 11  8 20 17 56  0.0000000  0  9G17G24G07G13G19G11G23G08G28
  19303133.64846  15069260.11643  24298728.3054                   24298731.0864
   8383798.98047   6555884.95743  23170548.7734                   23170551.4304
 -13359418.74247 -10439879.75946  20325675.2734                   20325673.3834
   9042689.32847   7055066.82544  22088263.8134                   22088263.4844
   3032296.51247   2336804.33845  22258758.9774                   22258756.6954
 -11913621.35547  -9261609.53144  21866196.7734   21866196.6484   20855578.04746
  16256021.42242                  24072782.9534                   24072782.3284
 -19128556.78147 -14892625.86345  21197623.2584                   21197622.6994
  -7880929.34047  -6124272.15544  22525287.0004                   22525286.0594
 11  8 20 17 56 30.0000000  0  9G17G24G07G13G19G11G23G08G28
  19106211.74246  14915814.59343  24261255.3524                   24261258.0274
   8221841.72747   6429684.61243  23139729.4144                   23139732.0474
 -13473022.61348 -10528402.25346  20304056.8444                   20304055.5594
   9048815.99647   7059840.77845  22089429.9224                   22089428.9694
   3023211.01647   2329724.69945  22257030.1334                   22257028.2194
 -12052972.94147  -9370195.16645  21839679.1954   21839678.5784   20876231.91446
  16272115.11243                  24076713.6334                   24076713.9104
 -19287120.29347 -15016181.81145  21167449.6644                   21167448.9774
  -8006639.81247  -6222228.32844  22501365.1334                   22501364.4774
 11  8 20 17 57  0.0000000  0  9G17G24G07G13G19G11G23G08G28
  18909381.69146  14762440.70343  24223799.3284                   24223802.5864
   8060018.10246   6303588.38943  23108935.6484                   23108937.7504
 -13586309.51248 -10616677.76046  20282499.1724                   20282497.7114
   9055167.99647   7064790.28944  22090638.9144                   22090638.4654
   3014432.82047   2322884.51645  22255359.9454                   22255357.1414
 -12191928.51647  -9478472.20045  21813237.1484   21813236.6134   20896850.45746
  16288181.22743                  24080637.8674                   24080637.4024
 -19445551.76247 -15139634.89445  21137301.3284                   21137300.6994
  -8132262.89847  -6320116.43344  22477459.6564                   22477459.0234
 11  8 20 17 57 30.0000000  0  9G17G24G07G13G19G11G23G08G28
  18712643.28546  14609138.18243  24186361.5704                   24186364.1844
   7898328.96547   6177596.86043  23078166.8204                   23078170.0084
 -13699279.87148 -10704706.62246  20261002.1414                   20261000.6414
   9061740.20747   7069911.42145  22091888.9694                   22091889.3674
   3005957.12147   2316280.01945  22253747.1484                   22253744.6054
 -12330487.23447  -9586439.99845  21786869.9924   21786869.6764   20917428.30546
  16304215.72143                  24084552.8444                   24084553.2704
 -19603851.10547 -15262985.02645  21107178.0704                   21107177.4264
  -8257801.71947  -6417938.85144  22453570.8524                   22453569.4414
 11  8 20 17 58  0.0000000  0  9G17G24G07G13G19G11G23G08G28
  20091433.43446  15683520.16243  24448736.2114                   24448738.6804
   9312211.08646   7279323.24543  23347219.7974                   23347222.1604
 -12236499.67248  -9564877.89946  20539359.3054                   20539358.0664
  10643958.13347   8302808.41644  22392975.5314                   22392975.4494
   4573209.51247   3537515.58845  22551985.2344                   22551982.4614
 -10893213.96147  -8466486.76445  22060373.7424   22060373.5234   22513390.51646
  17547822.38643                  24388255.1414                   24388255.0594
 -18186582.53148 -14158619.87345  21376874.8364                   21376874.2854
  -6807824.43447  -5288086.38545  22729492.0704                   22729490.1454
 11  8 20 17 58 30.0000000  0  9G17G24G07G13G19G11G23G08G28
  19894903.13746  15530379.79342  24411338.2034                   24411339.0514
   9150818.81646   7153563.07043  23316507.8524                   23316510.1724
 -12348812.37147  -9652394.30746  20517987.4534                   20517986.1174
  10650980.91047   8308280.61244  22394312.2344                   22394311.8674
   4565348.75047   3531390.26445  22550489.8984                   22550487.3204
 -11030953.45347  -8573816.22245  22034162.6174   22034162.0474   22533898.14546
  17563802.12243                  24392158.2974                   24392158.3204
 -18344592.26647 -14281744.33945  21346806.8594                   21346806.3634
  -6933178.55547  -5385764.88945  22705637.9064                   22705636.7584
 11  8 20 17 59  0.0000000  0  9G17G24G07G13G19G11G23G08G28
  19698483.98046  15377326.00743  24373960.2034                   24373961.6804
   8989583.46546   7027925.24643  23285825.8444                   23285828.3954
 -12460789.76648  -9739649.42946  20496678.6334                   20496677.1684
  10658227.98047   8313927.58144  22395690.7114                   22395691.2304
   4557794.78147   3525504.00245  22549052.1484                   22549049.8554
 -11168276.00047  -8680820.78445  22008031.3364   22008030.8714   22554370.51646
  17579754.36443                  24396053.8914                   24396054.2234
 -18502449.87548 -14404750.25545  21316767.3134                   21316766.5314
  -7058437.78547  -5483369.46545  22681801.9614                   22681801.6214
 11  8 20 17 59 30.0000000  0  9G17G24G07G13G19G11G23G08G28
  19502170.82846  15224354.87743  24336604.0314                   24336604.9184
   8828500.89146   6902406.47043  23255172.9224                   23255175.6604
 -12572437.56648  -9826647.72546  20475432.7734                   20475431.0864
  10665689.45747   8319741.64244  22397111.1564                   22397111.0354
   4550537.84447   3519849.20045  22547670.7274                   22547668.9654
 -11305186.23847  -8787504.04445  21981978.5864   21981977.5044   22574797.51646
  17595671.19943                  24399940.6954                   24399942.3524
 -18660160.46147 -14527641.62445  21286755.9844                   21286755.3094
  -7183610.36747  -5580906.52944  22657982.2034                   22657980.7974
 11  8 20 18  0  0.0000000  0  9G17G24G07G13G19G11G23G08G28
  19305973.78946  15071474.15444  24299268.8754                   24299270.5354
   8667582.26246   6777015.36143  23224550.5944                   23224553.1334
 -12683745.62947  -9913381.27746  20454251.4924                   20454249.9144
  10673370.01647   8325726.41444  22398572.7894                   22398572.7704
   4543583.34847   3514430.08745  22546347.9224                   22546345.7034
 -11441673.66847  -8893857.86845  21956005.9454   21956005.0514   22595184.55546
  17611556.93643                  24403820.9844                   24403821.2624
 -18817713.64847 -14650410.31245  21256774.8284                   21256774.0944
  -7308689.35947  -5678370.64144  22634180.6644                   22634178.9574
 11  8 20 18  0 30.0000000  0  9G17G24G07G13G19G11G23G08G28
  19109898.31346  14918688.14343  24261956.0704                   24261958.2584
   8506834.19946   6651757.23543  23193961.6024                   23193963.8364
 -12794708.85947  -9999846.15446  20433135.7894                   20433134.5984
  10681269.85947   8331882.04144  22400075.7584                   22400075.4494
   4536931.64147   3509246.88045  22545082.1804                   22545079.8244
 -11577732.82847  -8999877.95445  21930114.1884   21930113.6604   22615532.08246
  17627411.93043                  24407693.0944                   24407693.8554
 -18975103.69147 -14773051.88945  21226824.6024                   21226823.9614
  -7433672.09047  -5775759.74944  22610397.3594                   22610396.3984
 11  8 20 18  1  0.0000000  0  9G17G24G07G13G19G11G23G08G28
  18913942.11346  14765995.12444  24224667.4694                   24224669.5824
   8346255.21946   6526630.85043  23163404.1954                   23163406.9614
 -12905329.81248 -10086044.30046  20412085.4924                   20412084.0984
  10689381.71147   8338202.85844  22401619.6884                   22401620.0984
   4530575.46147   3504293.96045  22543872.5164                   22543870.8054
 -11713365.52047  -9105565.76145  21904304.3284   21904303.8204   22635833.23846
  17643230.68842                  24411557.1334                   24411557.3754
 -19132332.49647 -14895567.83345  21196904.7114                   21196904.1954
  -7558563.95747  -5873078.04845  22586630.9144                   22586629.6724
 11  8 20 18  1 30.0000000  0  9G17G24G07G13G19G11G23G08G28
  18718111.96146  14613400.30544  24187402.6334                   24187404.1174
   8185853.19146   6401642.30043  23132880.5944                   23132883.0704
 -13015601.68747 -10171970.43646  20391101.2814                   20391100.1954
  10697707.43447   8344690.32944  22403203.9844                   22403204.2464
   4524516.79746   3499572.88145  22542719.8134                   22542717.6174
 -11848564.71147  -9210915.75745  21878576.5164   21878575.8714   22656089.94146
  17659014.86342                  24415411.2194                   24415412.0514
 -19289393.02347 -15017952.63245  21167017.2664                   21167016.3054
  -7683361.12147  -5970322.56045  22562882.7814                   22562881.3554
 11  8 20 18  2  0.0000000  0  9G17G24G07G13G19G11G23G08G28
  18522408.92246  14460904.54243  24150161.2814                   24150163.4734
   8025630.31346   6276793.40844  23102391.7114                   23102393.7234
 -13125524.05948 -10257624.23446  20370183.5164                   20370182.6214
  10706242.57047   8351340.98944  22404828.0634                   22404828.3594
   4518751.77747   3495080.61545  22541622.7734                   22541620.6604
 -11983329.01647  -9315926.86445  21852932.0864   21852931.4454   22676298.82846
  17674761.78542                  24419256.9774                   24419257.3204
 -19446284.12947 -15140205.42545  21137161.7584                   21137160.8874
  -7808065.21947  -6067494.57244  22539152.6954                   22539151.1564
 11  8 20 18  2 30.0000000  0  9G17G24G07G13G19G11G23G08G28
  18326837.50046  14308511.25943  24112944.1174                   24112946.5704
   7865592.35947   6152088.54943  23071936.8134                   23071939.7894
 -13235092.62148 -10343002.34146  20349333.4924                   20349332.3014
  10714987.06347   8358154.82344  22406492.3284                   22406491.8054
   4513280.10947   3490816.91245  22540581.1564                   22540579.5594
 -12117653.44147  -9420595.22845  21827370.8364   21827369.6804   22696459.50446
  17690471.10942                  24423093.7814                   24423093.9454
 -19603000.81247 -15262322.32345  21107339.1644                   21107338.3404
  -7932674.89547  -6164592.98344  22515439.5234                   22515438.9184
 11  8 20 18  3  0.0000000  0  9G17G24G07G13G19G11G23G08G28
  18131412.03546  14156231.82843  24075756.1564                   24075757.7464
   7705754.41446   6027539.58243  23041520.6954                   23041523.1954
 -13344293.50848 -10428093.94846  20328553.7344                   20328552.2194
  10723949.76247   8365138.66044  22408198.0394                   22408198.1524
   4508111.43046   3486789.34444  22539597.4534                   22539595.3714
 -12251523.92647  -9524909.89745  21801895.9224   21801895.1414   22716581.56346
  17706150.35242                  24426923.0474                   24426924.3134
 -19759528.40247 -15384291.84845  21077553.0784                   21077552.6844
  -8057179.12547  -6261609.24144  22491747.4924                   22491746.1994
 11  8 20 18  3 30.0000000  0  8G17G24G07G13G19G11G08G28
  17936142.87146  14004074.16343  24038597.6254                   24038600.2424
   7546128.10547   5903155.54643  23011145.0554                   23011147.1764
 -13453116.36748 -10512890.98946  20307845.0394                   20307843.6604
  10733136.17247   8372296.82444  22409946.3284                   22409946.5124
   4503251.12546   3483002.04744  22538672.5314                   22538670.7704
 -12384929.63747  -9628862.37545  21776509.9844   21776509.0864
 -19915856.50847 -15506105.93745  21047804.7734                   21047803.9734
  -8181570.10247  -6358537.25244  22468076.3524                   22468075.0314
 11  8 20 18  4  0.0000000  0  8G17G24G07G13G19G11G08G28
  17741050.64846  13852054.34243  24001472.8364                   24001475.4734
   7386734.92647   5778953.14344  22980813.6334                   22980815.6374
 -13561540.78548 -10597377.55646  20287212.6334                   20287211.2584
  10742561.51247   8379641.09944  22411740.1484                   22411740.1024
   4498714.59446   3479467.03744  22537809.4774                   22537808.0664
 -12517849.39547  -9732436.18645  21751215.8754   21751215.4454
 -20071964.11747 -15627748.20545  21018098.7344                   21018097.5124
  -8305830.02747  -6455363.15144  22444430.9384                   22444429.4304
 11  8 20 18  4 30.0000000  0  8G17G24G07G13G19G11G08G28
  17546158.89846  13700190.76343  23964386.3134                   23964388.2114
   7227599.28546   5654951.40244  22950530.8204                   22950533.1804
 -13669543.69148 -10681535.66346  20266660.5234                   20266659.1454
  10752244.18847   8387185.95844  22413582.1564                   22413582.9654
   4494520.94946   3476199.23844  22537011.3984                   22537009.6764
 -12650259.87947  -9835613.18445  21726019.2894   21726018.4574
 -20227827.21147 -15749199.95245  20988438.8754                   20988438.3594
  -8429938.81647  -6552071.27044  22420813.2424                   22420812.8874
 11  8 20 18  5  0.0000000  0  8G17G24G07G13G19G11G08G28
  17351478.64846  13548491.99043  23927339.5944                   23927341.5864
   7068733.24647   5531159.77244  22920299.5634                   22920301.9964
 -13777114.41847 -10765357.00846  20246190.8204                   20246189.1374
  10762190.32047   8394936.06844  22415475.2734                   22415475.4104
   4490676.22746   3473203.27945  22536279.3754                   22536277.8524
 -12782149.64847  -9938384.41845  21700921.4844   21700920.3714
 -20383434.70347 -15870452.53045  20958827.7974                   20958826.8164
  -8553888.23047  -6648655.20544  22397226.8054                   22397225.4224
 11  8 20 18  5 30.0000000  0  8G17G24G07G13G19G11G08G28
  17157007.41446  13396956.01443  23890333.0784                   23890334.5124
   6910135.98046   5407577.55944  22890119.9694                   22890121.7274
 -13884255.53947 -10848843.63046  20225802.0944                   20225800.4884
  10772392.55547   8402885.76944  22417416.7424                   22417417.3244
   4487173.14146   3470473.54544  22535613.2194                   22535611.5784
 -12913521.09447 -10040751.76045  21675922.4614   21675921.3094
 -20538788.32847 -15991507.27145  20929264.9144                   20929264.1174
  -8677683.29347  -6745118.88844  22373669.1484                   22373667.6684
 11  8 20 18  6  0.0000000  0  9G17G24G07G26G13G19G11G08G28
  16962740.42646  13245579.24843  23853364.9694                   23853366.4694
   6751803.42247   5284201.59844  22859989.9614                   22859992.3164
 -13990972.54348 -10931999.73946  20205494.5164                   20205492.9884
                                  23279608.75415                  24092546.000
  10782840.74247   8411027.12144  22419404.9304                   22419405.5904
   4484001.82846   3468002.36645  22535009.9384                   22535008.0044
 -13044378.75847 -10142718.75145  21651020.5554   21651019.9804
 -20693892.95747 -16112368.01845  20899749.4304                   20899748.5204
  -8801332.00047  -6841468.51444  22350139.5084                   22350138.9064
 11  8 20 18  6 30.0000000  0  9G17G24G07G26G13G19G11G08G28
  18344081.57846  14321949.05443  24116225.7034                   24116226.1884
   8169139.39546   6388619.31444  23129700.1954                   23129702.2934
 -12521864.57448  -9787240.28446  20485056.9224                   20485055.2114
                                  24673843.621 5                  24357860.914
  12368926.79747   9646938.23444  22721227.4614                   22721227.8874
   6056555.23447   4693368.62944  22834257.5944                   22834255.0044
 -11599320.79347  -9016699.53745  21926006.3674   21926004.6134
 -19273345.66847 -15005448.03345  21170070.9384                   21170069.9304
  -7349435.87547  -5710120.83345  22626426.4694                   22626425.6374
 11  8 20 18  7  0.0000000  0  9G17G24G07G26G13G19G11G08G28
  18150170.94946  14170849.95543  24079325.9144                   24079327.0354
   8011287.55946   6265617.93644  23099662.2584                   23099663.9024
 -12627785.83648  -9869776.34046  20464900.2274                   20464898.9224
                                  24493042.723 5                  24323455.680
  12379799.49647   9655410.31844  22723296.1564                   22723297.4024
   6053981.52347   4691363.09244  22833766.5164                   22833765.5944
 -11729202.60247  -9117906.12145  21901290.2584   21901289.0044
 -19428003.05147 -15125960.25845  21140640.3284                   21140639.7504
  -7472852.70747  -5806289.78445  22602941.0474                   22602939.5634
 11  8 20 18  7 30.0000000  0  9G17G24G07G26G13G19G11G08G28
  17956436.07046  14019887.83543  24042458.7034                   24042460.3754
   7853674.90646   6142802.92444  23069669.0164                   23069670.9144
 -12733312.42248  -9952004.86346  20444819.1954                   20444817.7194
  24312633.41045  18970258.86352  24289124.8754                   24289125.9454
  12390874.46947   9664040.05444  22725404.3914                   22725405.2624
   6051696.32446   4689582.36044  22833332.4454                   22833330.7384
 -11858598.73447  -9218734.26245  21876667.1414   21876666.3054
 -19582438.52047 -15246299.58146  21111252.2894                   21111251.4384
  -7596160.77047  -5902373.98745  22579475.7584                   22579474.8554
 11  8 20 18  8  0.0000000  0  9G17G24G07G26G13G19G11G08G28
  17762880.07446  13869065.05344  24005626.6024                   24005627.6294
   7696306.22746   6020178.04844  23039722.5084                   23039724.7814
 -12838441.15648 -10033923.36246  20424814.0864                   20424812.8914
  24132620.02045  18829988.79342  24254868.6414                   24254869.9884
  12402150.11747   9672826.18644  22727549.6564                   22727549.4804
   6049698.65246   4688025.69944  22832952.6804                   22832950.7074
 -11987505.66047  -9319181.20145  21852136.5234   21852135.7974
 -19736648.35547 -15366463.06746  21081907.1564                   21081905.8834
  -7719359.37147  -5998372.87445  22556032.5234                   22556031.3324
 11  8 20 18  8 30.0000000  0  9G17G24G07G26G13G19G11G08G28
  17569502.93846  13718381.62144  23968827.4384                   23968829.9734
   7539182.02046   5897743.68944  23009821.9454                   23009825.1254
 -12943172.54347 -10115532.22946  20404884.4844                   20404882.8594
  23953003.06345  18690027.55142  24220688.8134                   24220689.7464
  12413620.81347   9681764.30144  22729732.8754                   22729732.3164
   6047983.37547   4686689.01344  22832626.6334                   22832624.7504
 -12115924.02047  -9419247.43045  21827699.9774   21827699.0634
 -19890632.77047 -15486450.91746  21052605.1024                   21052603.9614
  -7842451.55147  -6094288.85445  22532608.5004                   22532607.6454
 11  8 20 18  9  0.0000000  0  9G17G24G07G26G13G19G11G08G28
  17376308.31346  13567840.48244  23932063.8984                   23932066.0084
   7382307.54746   5775503.87743  22979970.4924                   22979972.6994
 -13047503.20348 -10196828.85946  20385030.8834                   20385029.6684
  23773787.10546  18550378.84442  24186584.7424                   24186586.2734
  12425285.03147   9690853.23243  22731951.7734                   22731952.3094
   6046549.24247   4685571.47945  22832353.1954                   22832351.5204
 -12243849.10247  -9518929.31845  21803356.7974   21803355.8094
 -20044387.14147 -15606259.50346  21023346.2584                   21023345.6254
  -7965436.38747  -6190121.16345  22509205.4534                   22509204.2034
 11  8 20 18  9 30.0000000  0  9G17G24G07G26G13G19G11G08G28
  17183292.01646  13417438.25344  23895334.2194                   23895335.5314
   7225679.23446   5653455.93043  22950165.1254                   22950167.2034
 -13151438.03147 -10277817.04146  20365253.1484                   20365251.3134
  23594968.51246  18411039.76242  24152557.0164                   24152557.9184
  12437133.60947   9700085.75344  22734207.0234                   22734207.6094
   6045387.40247   4684666.10745  22832132.2894                   22832130.4184
 -12371285.98447  -9618230.74645  21779105.9924   21779105.5164
 -20197915.50047 -15725891.97746  20994131.0634                   20994129.9024
  -8088321.29347  -6285875.63645  22485821.3674                   22485820.2074
 11  8 20 18 10  0.0000000  0  9G17G24G07G26G13G19G11G08G28
  16990458.56346  13267178.51944  23858639.3674                   23858640.9184
   7069302.98846   5531604.36843  22920407.9064                   22920409.3954
 -13254972.41047 -10358493.19246  20345550.8284                   20345549.3484
  23416552.82446  18272014.61143  24118605.7504                   24118607.3014
  12449166.58647   9709461.99844  22736497.3054                   22736497.7814
   6044497.69547   4683972.77645  22831963.1254                   22831961.2154
 -12498229.68047  -9717147.91245  21754949.6564   21754948.8444
 -20351212.46947 -15845344.14846  20964959.4454                   20964958.2814
  -8211104.40647  -6381550.77445  22462456.1094                   22462455.1024
 11  8 20 18 10 30.0000000  0  9G17G24G07G26G13G19G11G08G28
  16797808.46146  13117061.65144  23821978.9384                   23821981.1564
   6913180.35246   5409950.42243  22890698.1644                   22890699.5004
 -13358106.24648 -10438857.22846  20325925.1174                   20325923.7344
  23238541.24246  18133304.37443  24084731.5004                   24084732.4104
  12461379.06347   9718978.09544  22738820.5474                   22738821.1254
   6043875.52047   4683487.89745  22831844.8134                   22831842.0944
 -12624679.42247  -9815680.13945  21730887.0554   21730886.1484
 -20504277.33247 -15964615.44246  20935831.7734                   20935831.5554
  -8333788.20747  -6477148.52145  22439110.4454                   22439109.6254
 11  8 20 18 11  0.0000000  0  9G17G24G07G26G13G19G11G08G28
  16605342.23046  12967088.04143  23785354.6094                   23785355.5474
   6757313.08246   5288495.46943  22861037.6024                   22861039.6334
 -13460839.05548 -10518908.77146  20306375.8054                   20306374.3714
  23060935.23446  17994910.14043  24050933.6884                   24050935.1604
  12473767.02047   9728630.92144  22741178.3914                   22741178.9414
   6043516.91847   4683208.40644  22831776.5864                   22831774.6024
 -12750634.19147  -9913826.70745  21706918.3134   21706917.8524
 -20657109.09847 -16083705.10846  20906749.2584                   20906748.2234
  -8456374.59847  -6572670.37145  22415782.8594                   22415781.4384
 11  8 20 18 11 30.0000000  0  9G17G24G07G26G13G19G11G08G28
  16413066.83646  12817263.19344  23748764.6174                   23748766.4774
   6601708.85246   5167245.49743  22831426.9614                   22831428.7114
 -13563164.51648 -10598642.90946  20286903.8754                   20286901.9804
  22883742.28546  17856837.82343  24017215.1174                   24017216.3594
  12486331.79347   9738421.57244  22743569.2504                   22743569.7704
   6043423.93047   4683135.89344  22831757.4304                   22831756.3954
 -12876087.78547 -10011582.75945  21683045.5164   21683044.8134
 -20809700.64547 -16202607.58546  20877711.9534                   20877711.3524
  -8578859.77047  -6668113.34945  22392474.8914                   22392474.0044
 11  8 20 18 12  0.0000000  0  9G17G24G07G26G13G19G11G08G28
  16220977.37946  12667583.14444  23712211.5004                   23712213.6294
   6446363.90246   5046197.53643  22801865.7814                   22801867.6684
 -13665088.26247 -10678064.02446  20267508.5474                   20267507.2234
  22706957.97346  17719083.83642  23983573.9064                   23983574.7154
  12499063.16047   9748341.97344  22745992.3364                   22745993.0744
   6043587.00446   4683262.89744  22831788.7894                   22831787.3444
 -13001045.29347 -10108952.23445  21659266.9304   21659266.1764
 -20962056.06247 -16321326.07746  20848719.6564                   20848719.0004
  -8701251.69547  -6763483.64945  22369184.5234                   22369183.7464
 11  8 20 18 12 30.0000000  0  9G17G24G07G26G13G19G11G08G28
  16029080.28946  12518053.05944  23675694.3594                   23675696.2274
   6291285.87947   4925357.55944  22772355.1094                   22772356.6914
 -13766603.98448 -10757167.18646  20248190.8134                   20248188.8794
  22530589.66446  17581654.00042  23950012.7424                   23950012.5274
  12511962.89147   9758393.61044  22748447.3524                   22748447.6684
   6044007.46147   4683590.48144  22831869.7974                   22831867.0004
 -13125500.02347 -10205929.93445  21635584.0084   21635583.0594
 -21114168.73047 -16439855.40246  20819773.3914                   20819772.5204
  -8823546.62147  -6858778.35645  22345912.4774                   22345911.5664
 11  8 20 18 13  0.0000000  0  9G17G24G07G26G13G19G11G08G28
  15837365.81346  12368665.25544  23639212.9384                   23639214.3714
   6136466.18446   4804718.92944  22742894.1174                   22742896.0234
 -13867721.66048 -10835960.19546  20228948.6484                   20228946.9694
  22354628.32446  17444541.32842  23916527.4694                   23916527.5164
  12525016.43847   9768565.07144  22750930.9534                   22750931.7814
   6044671.18847   4684107.57344  22831995.9304                   22831994.1214
 -13249461.34847 -10302523.14545  21611994.3204   21611993.8754
 -21266047.36747 -16558202.38246  20790872.2504                   20790870.7504
  -8945757.05947  -6954007.23545  22322656.4614                   22322655.4144
 11  8 20 18 13 30.0000000  0  9G17G24G07G26G13G19G11G08G28
  15645840.75046  12219425.01544  23602766.7034                   23602767.3874
   5981912.85547   4684287.79744  22713483.7274                   22713485.1884
 -13968434.84847 -10914438.02246  20209783.5474                   20209781.8714
  22179081.54346  17307751.67642  23883121.8284                   23883122.9884
  12538225.57847   9778857.74744  22753445.2194                   22753445.9414
   6045579.98847   4684815.68244  22832169.3674                   22832167.0124
 -13372922.65647 -10398726.75145  21588500.9224   21588499.8284
 -21417685.00047 -16676361.55146  20762016.1884                   20762015.2464
  -9067878.85247  -7049167.05545  22299417.6954                   22299416.2894
 11  8 20 18 14  0.0000000  0  9G17G24G07G26G13G19G11G08G28
  15454504.13746  12070331.63144  23566356.5474                   23566357.8914
   5827625.71946   4564064.12444  22684123.3524                   22684124.9804
 -14068745.12147 -10992601.88746  20190695.3134                   20190693.6214
  22003949.19146  17171284.95342  23849796.1724                   23849796.1564
  12551583.99247   9789266.78844  22755987.5084                   22755987.7664
   6046728.14547   4685710.31244  22832387.5314                   22832385.5274
 -13495885.27047 -10494541.77245  21565101.5474   21565100.4924
 -21569082.08247 -16794333.29946  20733206.2424                   20733205.4694
  -9189916.11347  -7144260.98545  22276194.5554                   22276194.0274
 11  8 20 18 14 30.0000000  0  9G17G24G07G26G13G19G11G08G28
  15263356.60546  11921385.57144  23529982.4304                   23529983.1724
   5673606.50846   4444049.21444  22654814.3834                   22654816.3054
 -14168652.18048 -11070451.54346  20171683.2424                   20171681.6764
  21829232.34846  17035141.93743  23816548.4774                   23816548.5824
  12565087.61747   9799788.97444  22758556.6094                   22758557.4614
   6048111.76647   4686788.43345  22832650.6414                   22832649.9224
 -13618348.29747 -10589967.49345  21541798.1174   21541796.8204
 -21720237.34047 -16912116.60646  20704442.6174                   20704441.4964
  -9311870.82847  -7239290.60845  22252987.2584                   22252986.2114
 11  8 20 18 15  0.0000000  0  9G17G24G07G26G13G19G11G08G28
  16647822.69946  13000190.36243  23793437.3054                   23793438.5554
   7095279.92646   5551846.71844  22925350.0394                   22925351.7424
 -12692734.52747  -9920385.86046  20452541.2584                   20452539.6644
  23230355.94945  18126926.62942  24083173.6644                   24083174.0274
  14154149.38747  11038018.79444  23060945.1094                   23060946.3754
   7625144.47347   5915645.02644  23132749.8914                   23132748.8204
 -12164889.33247  -9457402.06045  21818381.7034   21818380.6954
 -20295726.95347 -15802108.49846  20975517.6724                   20975516.5514
  -7858323.41847  -6106656.23145  22529588.0474                   22529587.2504
 11  8 20 18 15 30.0000000  0  9G17G24G07G26G13G19G11G08G28
  16457050.03946  12851536.45644  23757134.7664                   23757135.2624
   6941796.90647   5432249.63044  22896143.8204                   22896145.3054
 -12791839.07847  -9997610.19446  20433682.4144                   20433681.0004
  23056469.47346  17991430.74242  24050083.4144                   24050084.0274
  14167925.17647  11048753.07544  23063567.4534                   23063567.1684
   7626981.68846   5917076.57044  23133099.9384                   23133098.5354
 -12286356.75447  -9552051.98745  21795267.5634   21795266.8054
 -20446400.16047 -15919516.18446  20946845.6484                   20946844.8524
  -7980124.48047  -6201566.12345  22506410.2194                   22506409.0824
 11  8 20 18 16  0.0000000  0  9G17G24G07G26G13G19G11G08G28
  16266457.33646  12703022.75844  23720865.7814                   23720867.1214
   6788575.71946   5312856.50944  22866985.9694                   22866988.5274
 -12890550.69147 -10074528.34046  20414897.9614                   20414896.3014
  22882991.46146  17856253.10542  24017072.0084                   24017071.3364
  14181821.78947  11059581.47044  23066211.3444                   23066212.0554
   7629030.98446   5918673.35144  23133489.3524                   23133488.2304
 -12407334.28547  -9646320.18845  21772245.8674   21772245.1724
 -20596839.08647 -16036741.31046  20918218.0084                   20918217.0904
  -8101860.64847  -6296425.44745  22483244.7814                   22483243.1294
 11  8 20 18 16 30.0000000  0  9G17G24G07G26G13G19G11G08G28
  16076044.48846  12554649.19043  23684631.1724                   23684632.6134
   6635617.82846   5193668.62044  22837879.2034                   22837881.6844
 -12988869.47347 -10151140.39346  20396188.7974                   20396186.9574
  22709923.02046  17721394.64142  23984137.2814                   23984137.8444
  14195834.73447  11070500.50044  23068878.3834                   23068878.4844
   7631287.34446   5920431.49143  23133919.1254                   23133917.0784
 -12527821.69147  -9740206.45345  21749317.4924   21749317.1644
 -20747043.16447 -16153783.44046  20889635.0234                   20889634.0554
  -8223534.73047  -6391236.41645  22460090.6414                   22460089.6604
 11  8 20 18 17  0.0000000  0  9G17G24G07G26G13G19G11G08G28
  15885805.27746  12406410.91544  23648429.6954                   23648431.1484
   6482917.97746   5074681.78444  22808821.8054                   22808823.5474
 -13086802.51647 -10227451.85446  20377552.5164                   20377551.1644
  22537258.21946  17586850.69542  23951280.7974                   23951282.0084
  14209952.71947  11081501.39743  23071564.6484                   23071565.4184
   7633740.22746   5922342.74444  23134386.0234                   23134383.5234
 -12647825.52747  -9833715.92545  21726482.1644   21726480.9774
 -20897017.64547 -16270646.66946  20861095.8054                   20861094.9144
  -8345155.29347  -6486005.66945  22436946.6804                   22436945.9694
 11  8 20 18 17 30.0000000  0  9G17G24G07G26G13G19G11G08G28
  15695741.60946  12258309.45244  23612261.6414                   23612262.8674
   6330479.17246   4955898.30444  22779813.2344                   22779815.6484
 -13184348.09047 -10303461.40346  20358990.1954                   20358988.7114
  22364999.57846  17452623.26943  23918501.4534                   23918502.1524
  14224172.46947  11092581.61044  23074271.0164                   23074271.8594
   7636386.84447   5924404.96944  23134890.1644                   23134887.3244
 -12767344.13347  -9926847.28345  21703738.7344   21703737.1954
 -21046760.31247 -16387329.25846  20832600.8914                   20832600.4414
  -8466723.67647  -6580734.24745  22413812.8834                   22413812.2584
 11  8 20 18 18  0.0000000  0  9G17G24G07G26G13G19G11G08G28
  15505855.16046  12110346.04944  23576127.2114                   23576128.8954
   6178303.80947   4837320.16544  22750855.6484                   22750857.3554
 -13281505.17648 -10379168.22446  20340502.1564                   20340500.4104
  22193149.31646  17318713.97742  23885798.4694                   23885800.0944
  14238490.54347  11103738.44843  23076995.6724                   23076996.4264
   7639224.18847   5926615.85844  23135430.4694                   23135427.7344
 -12886376.23447 -10019599.55345  21681088.1724   21681086.1524
 -21196269.30547 -16503829.75846  20804150.0234                   20804149.6884
  -8588240.62547  -6675422.77245  22390689.8054                   22390688.0044
 11  8 20 18 18 30.0000000  0  9G17G24G07G26G13G19G11G08G28
  15316155.20346  11962528.02744  23540029.0784                   23540030.6254
   6026402.18846   4718955.31944  22721949.3284                   22721951.5864
 -13378265.12947 -10454565.60346  20322089.2734                   20322087.7734
  22021717.28146  17185130.61243  23853175.8984                   23853177.7814
  14252911.25047  11114975.17744  23079739.9224                   23079740.7154
   7642256.49647   5928978.64944  23136006.8594                   23136005.1174
 -13004912.78947 -10111965.69345  21658530.4224   21658529.2934
 -21345534.57047 -16620140.35646  20775745.1414                   20775744.6914
  -8709699.90647  -6770066.36445  22367576.4774                   22367574.4734
 11  8 20 18 19  0.0000000  0  9G17G24G07G26G13G19G11G08G28
  15126642.04347  11814855.50944  23503965.1174                   23503967.0354
   5874776.59047   4600805.56844  22693096.1414                   22693097.9144
 -13474627.32447 -10529653.02646  20303752.3834                   20303750.7274
  21850705.39146  17051874.65543  23820634.8594                   23820634.6214
  14267430.64546  11126288.81443  23082502.3134                   23082503.5354
   7645480.09846   5931490.49844  23136620.2664                   23136618.8834
 -13122952.62147 -10203944.75445  21636068.3914   21636067.1024
 -21494554.59847 -16736259.84646  20747388.1804                   20747387.3134
  -8831103.28547  -6864666.38445  22344474.1724                   22344473.1024
 11  8 20 18 19 30.0000000  0  9G17G24G07G26G13G19G11G08G28
  14937316.24247  11667328.99244  23467937.3674                   23467939.0004
   5723428.39847   4482871.94844  22664295.6484                   22664297.6454
 -13570591.77747 -10604430.52446  20285490.4844                   20285488.9104
  21680114.45746  16918946.68243  23788171.8754                   23788172.8284
  14282044.05147  11137675.76343  23085284.0634                   23085285.1094
   7648890.61346   5934147.97744  23137269.3134                   23137268.2774
 -13240495.89547 -10295536.88745  21613700.7504   21613699.6724
 -21643328.50847 -16852187.55746  20719077.6024                   20719076.6564
  -8952453.30947  -6959224.81445  22321381.9534                   22321380.4454
 11  8 20 18 20  0.0000000  0  9G17G24G07G26G13G19G11G08G28
  14748175.11746  11519946.40744  23431945.3834                   23431947.2234
   5572355.83247   4365153.12744  22635546.1334                   22635549.0354
 -13666161.89547 -10678900.76146  20267304.1414                   20267302.9344
  21509942.02046  16786344.83843  23755789.2584                   23755790.0864
  14296743.87547  11149130.02643  23088080.7584                   23088082.2384
   7652480.74246   5936945.37544  23137953.0394                   23137951.1094
 -13357545.89847 -10386744.66345  21591426.3444   21591425.6884
 -21791858.43047 -16967925.14646  20690812.9844                   20690812.0744
  -9073755.37947  -7053745.91145  22298298.6724                   22298297.3914
 11  8 20 18 20 30.0000000  0  9G17G24G07G26G13G19G11G08G28
  14559225.78146  11372713.25044  23395990.3594                   23395990.3204
   5421567.15246   4247655.49744  22606852.3834                   22606854.6134
 -13761331.03547 -10753058.54046  20249194.2194                   20249192.7704
  21340196.31646  16654075.53043  23723487.7974                   23723487.5164
  14311532.47747  11160653.45143  23090895.7114                   23090896.7934
   7656252.93046   5939884.69144  23138670.0474                   23138669.0514
 -13474095.57847 -10477562.58245  21569248.2034   21569246.9654
 -21940136.42648 -17083466.42746  20662597.0634                   20662595.6884
  -9195005.16047  -7148226.24345  22275225.9774                   22275224.5124
 11  8 20 18 21  0.0000000  0  9G17G24G07G26G13G19G11G08G28
  14370466.63747  11225628.28844  23360070.3364                   23360071.5984
   5271061.57846   4130378.51744  22578212.4844                   22578213.9884
 -13856101.53547 -10826905.69046  20231159.4064                   20231158.7854
  21170875.89846  16522137.59843  23691266.9224                   23691267.1844
  14326402.96147  11172240.71043  23093725.8284                   23093726.3324
   7660200.63346   5942960.76644  23139421.9694                   23139420.2544
 -13590147.12147 -10567992.34945  21547164.1334   21547163.4734
 -22088163.79747 -17198812.42146  20634427.8754                   20634427.4184
  -9316206.95347  -7242669.18445  22252162.0554                   22252160.8054
 11  8 20 18 21 30.0000000  0  9G17G24G07G26G13G19G11G08G28
  14181898.56347  11078692.23044  23324186.7274                   23324188.0784
   5120841.48046   4013323.90844  22549626.5704                   22549628.0704
 -13950471.98847 -10900441.12146  20213201.8984                   20213199.9964
  21001982.88746  16390532.70543  23659128.3284                   23659127.3634
  14341351.86347  11183889.01443  23096570.3204                   23096571.1174
   7664320.93046   5946171.31944  23140205.7664                   23140204.0474
 -13705698.78547 -10658032.59245  21525175.8054   21525174.8094
 -22235938.49247 -17313961.52246  20606307.6644                   20606306.9384
  -9437361.91047  -7337075.60945  22229106.6884                   22229105.2974
 11  8 20 18 22  0.0000000  0  9G17G24G07G26G13G19G11G08G28
  13993518.11746  10931902.27543  23288338.6564                   23288339.8714
   4970904.32846   3896489.87744  22521094.5864                   22521095.9534
 -14044446.94547 -10973668.37646  20195318.9224                   20195317.3484
  20833513.92646  16259258.24643  23627068.3754                   23627069.6764
  14356370.74647  11195591.89744  23099428.6484                   23099429.7034
   7668605.49246   5949509.89544  23141021.6954                   23141018.7304
 -13820755.56247 -10747687.20545  21503280.8914   21503280.2464
 -22383463.60248 -17428916.13346  20578234.7814                   20578233.5664
  -9558476.34847  -7431450.46045  22206059.7734                   22206058.1174
 11  8 20 18 22 30.0000000  0  9G17G24G07G26G13G19G11G08G28
  13805326.75846  10785259.79544  23252526.9144                   23252528.2234
   4821252.52746   3779878.11144  22492617.1804                   22492618.1994
 -14138025.57447 -11046586.80746  20177511.6024                   20177510.5634
  20665471.30946  16128315.99043  23595091.4774                   23595092.1294
  14371455.88347  11207346.38043  23102299.0394                   23102300.0274
   7673051.10946   5952973.98244  23141867.2194                   23141864.7704
 -13935315.65247 -10836954.78645  21481480.6644   21481480.1804
 -22530736.84848 -17543674.49646  20550209.4144                   20550208.6564
  -9679551.46147  -7525794.69445  22183019.6954                   22183018.9024
 11  8 20 18 23  0.0000000  0  9G17G24G07G26G13G19G11G08G28
  15192752.28146  11866370.66844  23516545.0004                   23516546.1644
   6247314.02347   4891094.89744  22763987.0554                   22763988.4844
 -12655783.25447  -9891592.81246  20459573.0704
  20459571.6174   22073282.76646  17225311.89643  23862989.6644   23862989.0164
  15962024.02747  12446749.93843  23404974.1334                   23404975.7384
   9253074.81346   7184161.20944  23442535.8754                   23442533.7584
 -12473954.30547  -9698231.64645  21759568.2584   21759567.9734
 -21102331.40248 -16430631.28346  20822026.1954                   20822024.9884
  -8225164.92247  -6392506.47645  22459780.6414                   22459779.4454
 11  8 20 18 23 30.0000000  0  9G17G24G07G26G13G19G11G08G28
  15004940.36746  11720023.79544  23480805.3674                   23480806.4574
   6098238.10946   4774931.92244  22735618.6484                   22735620.4534
 -12748568.56647  -9963893.07046  20441916.4924
  20441914.9924   21906095.89546  17095036.48843  23831173.9694   23831174.7154
  15977229.34447  12458598.06543  23407867.6484                   23407869.5394
   9257830.44146   7187866.83543  23443441.4844                   23443438.4694
 -12587520.63747  -9786724.87945  21737957.6094   21737957.0904
 -21249097.77348 -16544994.67646  20794097.2894                   20794095.9734
  -8346168.69947  -6486795.10545  22436754.2664                   22436752.2624
 11  8 20 18 24  0.0000000  0  9G17G24G07G26G13G19G11G08G28
  14817325.62146  11573830.55843  23445103.6564                   23445104.8484
   5949458.60246   4658999.88544  22707307.0234                   22707308.7504
 -12840950.95748 -10035879.37046  20424336.2664
  20424335.0864   21739344.98046  16965100.76843  23799442.2504   23799443.4384
  15992494.33246  12470492.65443  23410772.4144                   23410773.8984
   9262741.53546   7191693.58644  23444375.6174                   23444373.1484
 -12700583.71947  -9874825.95545  21716442.2034   21716441.6254
 -21395602.22347 -16659153.98146  20766218.3594                   20766217.7624
  -8467133.09447  -6581053.05345  22413735.4454                   22413734.1884
 11  8 20 18 24 30.0000000  0  9G17G24G07G26G13G19G11G08G28
  14629910.46947  11427792.86444  23409439.8834                   23409440.5474
   5800979.58247   4543302.03144  22679052.0634                   22679054.3164
 -12932928.16848 -10107549.93746  20406834.1724
  20406832.5164   21573033.36746  16835507.40743  23767794.2114   23767794.9494
  16007817.24646  12482432.47843  23413687.5394                   23413689.8834
   9267806.01846   7195639.92844  23445338.9534                   23445336.3954
 -12813141.15247  -9962533.02745  21695023.4224   21695022.5824
 -21541841.44148 -16773106.59846  20738390.1094                   20738388.7304
  -8588057.91847  -6675280.16745  22390723.8834                   22390723.0394
 11  8 20 18 25  0.0000000  0  9G17G24G07G26G13G19G11G08G28
  14442693.65247  11281909.72544  23373813.4844                   23373814.3984
   5652800.89147   4427838.11444  22650854.4384                   22650856.5354
 -13024501.88747 -10178906.11146  20389408.1564
  20389406.6804   21407160.40646  16706255.76543  23736229.9924   23736229.8594
  16023192.14846  12494412.72743  23416614.6024                   23416615.7274
   9273018.40246   7199701.37944  23446331.5394                   23446329.1524
 -12925194.53547 -10049847.32745  21673700.5164   21673699.3674
 -21687816.08648 -16886853.08146  20710611.8444                   20710610.6914
  -8708947.52747  -6769479.84445  22367720.0704                   22367717.7544
 11  8 20 18 25 30.0000000  0  9G17G24G07G26G13G19G11G08G28
  14255686.51647  11136189.96444  23338227.3054                   23338228.2894
   5504934.69147   4312617.77344  22622716.1804                   22622718.0824
 -13115661.38347 -10249939.49146  20372060.9384
  20372059.2154   21241737.63746  16577354.99243  23704751.5704   23704750.8834
  16038625.07446  12506438.16943  23419550.8834                   23419552.3874
   9278385.41846   7203883.39444  23447352.5004                   23447350.4414
 -13036732.84047 -10136760.29245  21652475.3134   21652474.3134
 -21833513.68748 -17000383.66146  20682886.3524                   20682885.3524
  -8829792.87147  -6863645.03545  22344723.6564                   22344721.9734
 11  8 20 18 26  0.0000000  0  9G17G24G07G26G13G19G11G08G28
  14068887.94947  10990632.72544  23302681.3594                   23302681.8674
   5357381.10947   4197640.95744  22594638.4064                   22594639.7424
 -13206408.07847 -10320651.21946  20354792.7734
  20354791.0554   21076764.91446  16448804.79243  23673358.1884   23673357.7424
  16054110.59046  12518504.63543  23422497.5634                   23422499.4264
   9283901.37146   7208181.50244  23448402.3284                   23448400.5864
 -13147757.58247 -10223273.06545  21631347.6094   21631346.8324
 -21978934.85948 -17113698.84846  20655213.7734                   20655212.8914
  -8950597.67247  -6957778.63545  22321735.2584                   22321734.0434
 11  8 20 18 26 30.0000000  0  9G17G24G07G26G13G19G11G08G28
  13882302.68047  10845241.72144  23267175.0704                   23267175.9344
   5210145.85947   4082912.22844  22566620.6724                   22566621.1884
 -13296738.00048 -10391038.18146  20337603.7274
  20337601.7664   20912247.48046  16320609.46543  23642051.2734   23642051.6214
  16069648.50046  12530611.90243  23425455.7034                   23425456.3054
   9289566.43846   7212595.77444  23449480.5784                   23449479.3484
 -13258264.50847 -10309382.33845  21610319.3594   21610318.3444
 -22124074.31648 -17226794.54346  20627594.8524                   20627593.6804
  -9071359.91447  -7051879.03745  22298755.0474                   22298753.4734
 11  8 20 18 27  0.0000000  0  9G17G24G07G26G13G19G11G08G28
  13695927.28147  10700014.20544  23231708.7584                   23231709.1454
   5063226.84847   3968429.88844  22538662.1954                   22538663.7114
 -13386655.02747 -10461103.42146  20320492.6334
  20320491.4064   20748182.64146  16192766.77443  23610830.5784   23610830.8324
  16085230.79746  12542753.77443  23428421.0864                   23428421.9184
   9295373.00846   7217120.31444  23450585.5864                   23450584.2234
 -13368257.42247 -10395091.07645  21589388.2424   21589386.9144
 -22268934.25447 -17339672.39946  20600028.6174                   20600027.9024
  -9192085.31647  -7145950.77945  22275781.9304                   22275780.1454
 11  8 20 18 27 30.0000000  0  9G17G24G07G26G13G19G11G08G28
  13509764.65247  10554952.50545  23196283.3914                   23196284.1334
   4916627.80147   3854196.90944  22510765.2974                   22510767.4614
 -13476156.96147 -10530845.19346  20303461.2504
  20303459.8754   20584573.37146  16065279.02843  23579697.2584   23579697.6174
  16100855.36746  12554928.58143  23431393.3984                   23431396.0124
   9301319.55546   7221753.95144  23451717.2344                   23451715.7114
 -13477734.04747 -10480397.52345  21568555.4064   21568554.3094
 -22413511.27348 -17452329.81646  20572516.5784                   20572516.1024
  -9312773.53147  -7239993.52445  22252815.2274                   22252813.4774
 11  8 20 18 28  0.0000000  0  9G17G24G07G26G13G19G11G08G28
  13323807.34447  10410050.79644  23160896.5314                   23160897.0904
   4770342.51646   3740208.41144  22482928.4224                   22482930.1564
 -13565251.46147 -10600269.49246  20286507.0474
  20286505.9454   20421412.99646  15938141.16143  23548648.4694   23548648.0944
  16116510.41846  12567127.13243  23434373.6804                   23434375.7034
   9307394.24246   7226487.44044  23452873.1024                   23452871.8834
 -13586702.23047 -10565307.78545  21547819.3284   21547818.6764
 -22557811.93747 -17564771.88346  20545057.2504                   20545056.5354
  -9433434.49647  -7334015.04545  22229854.1024                   22229853.4304
 11  8 20 18 28 30.0000000  0  9G17G24G07G26G13G19G11G08G28
  13138060.07847  10265312.73544  23125549.7194                   23125551.0594
   4624376.64847   3626468.78244  22455152.6484                   22455153.5084
 -13653934.27347 -10669372.99946  20269631.5394
  20269629.9384   20258706.57446  15811356.98243  23517686.0084   23517686.4454
  16132195.64846  12579349.23043  23437358.0864                   23437360.0704
   9313596.98046   7231320.68344  23454052.7814                   23454052.5164
 -13695157.60547 -10649818.43745  21527181.1254   21527180.5824
 -22701830.79347 -17676994.36146  20517651.2974                   20517650.0744
  -9554065.94147  -7428013.54645  22206898.5944                   22206897.5664
 11  8 20 18 29  0.0000000  0  9G17G24G07G26G13G19G11G08G28
  12952529.93446  10120743.88644  23090244.2894                   23090246.1454
   4478738.39547   3512984.46844  22427438.4844                   22427439.4104
 -13742199.14847 -10738150.83646  20252834.7894
  20252833.9104   20096462.06646  15684932.74843  23486812.3594   23486812.4224
  16147913.24647  12591596.44643  23440349.3054                   23440350.9654
   9319930.82046   7236256.06944  23455258.8444                   23455257.8094
 -13803093.64847 -10733924.42745  21506641.6804   21506640.5004
 -22845559.79748 -17788990.97846  20490300.5314                   20490299.5314
  -9674663.19547  -7521985.41845  22183949.6334                   22183948.6134
 11  8 20 18 29 30.0000000  0  9G17G24G07G26G13G19G11G08G28
  12767222.64546   9976348.64544  23054980.9694                   23054982.6804
   4333434.53147   3399760.69044  22399787.6884                   22399788.8094
 -13830040.82448 -10806598.91246  20236119.3524
  20236118.1644   19934685.41846  15558873.02443  23456027.0634   23456027.0164
  16163664.69946  12603870.12343  23443346.5164                   23443349.6684
   9326397.51646   7241294.98844  23456489.6644                   23456487.9184
 -13910504.92647 -10817621.53845  21486201.5944   21486200.9574
 -22988992.63348 -17900756.82446  20463006.2344                   20463004.9654
  -9795222.80947  -7615927.95845  22161007.9144                   22161006.6484
 11  8 20 18 30  0.0000000  0  9G17G24G07G26G13G19G11G08G28
  12582128.52046   9832119.55644  23019759.2664                   23019760.6454
   4188456.60547   3286790.87344  22372199.3524                   22372200.4104
 -13917469.30147 -10874725.01746  20219482.1414
  20219480.9694   19773367.75846  15433170.98443  23425329.1174   23425329.6024
  16179435.89846  12616159.10643  23446347.6804                   23446350.6724
   9332982.64146   7246426.20444  23457742.6954                   23457740.9264
 -14017401.78947 -10900917.78345  21465859.6024   21465859.1684
 -23132137.66048 -18012298.39446  20435766.3444                   20435765.4924
  -9915757.09847  -7709850.75245  22138071.1724                   22138069.7274
 11  8 20 18 30 30.0000000  0  9G17G24G07G26G13G19G11G08G28
  12397253.88347   9688061.47044  22984578.7344                   22984579.3324
   4043811.71547   3174080.58344  22344674.3054                   22344675.6644
 -14004479.41047 -10942525.11646  20202924.8134
  20202923.5634   19612515.53546  15307831.58843  23394719.8984   23394720.2664
  16195228.23846  12628464.67743  23449353.6644                   23449356.0704
   9339688.02346   7251651.10744  23459019.1174                   23459016.5704
 -14123778.57447 -10983808.77045  21445616.9774   21445616.1174
 -23274988.45348 -18123610.69046  20408583.0314                   20408582.0084
 -10036262.38747  -7803750.97945  22115139.5084                   22115138.0394
 11  8 20 18 31  0.0000000  0  9G17G24G07G26G13G19G11G08G28
  12212597.75446   9544173.66644  22949439.7274                   22949440.7114
   3899500.33647   3061630.18544  22317212.4224                   22317214.3484
 -14091072.01248 -11009999.89546  20186446.7664
  20186445.5434   19452128.32446  15182854.63443  23364198.5004   23364199.3404
  16211036.01246  12640782.16643  23452361.1094                   23452364.2814
   9346508.43446   7256965.60143  23460316.0784                   23460314.0634
 -14229636.73447 -11066295.65145  21425473.3364   21425471.5354
 -23417544.58648 -18234693.38546  20381455.3754                   20381454.6764
 -10156741.94547  -7897631.14645  22092213.3524                   22092211.6054
 11  8 20 18 31 30.0000000  0  9G17G24G07G26G13G19G11G08G28
  13603592.68447  10628065.87844  23214137.2894                   23214138.3134
   5330954.59847   4177049.10944  22589609.3834                   22589611.0044
 -12601818.59048  -9849542.70646  20469841.8524
  20469841.0944   20867638.67246  16285849.75443  23633561.8984   23633561.9774
  17802280.66046  13880712.92943  23755165.2194                   23755167.8594
  10928865.75846   8489971.25343  23761428.8444                   23761427.1524
 -12759546.92247  -9920771.10745  21705221.7424   21705220.6134
 -21984373.86348 -17117936.97446  20654179.0004                   20654177.8014
  -8701767.48847  -6763884.78545  22369085.5554                   22369084.2544
 11  8 20 18 32  0.0000000  0  9G17G24G07G26G13G19G11G08G28
  13419382.66047  10484525.70144  23179083.4614                   23179083.5944
   5187322.00047   4065127.63244  22562277.0084                   22562278.5474
 -12687569.50447  -9916361.60946  20453524.3984                   20453523.3594
  20708192.25846  16161605.83843  23603220.4224   23603221.0634
  17818114.73046  13893050.90743  23758179.0554                   23758181.6914
  10935912.02346   8495461.76943  23762769.8984                   23762768.4574
 -12864360.70347 -10002444.17145  21685276.5474   21685275.7074
 -22126329.36748 -17228551.64446  20627165.4924                   20627164.4574
  -8822193.28947  -6857723.06145  22346169.8834                   22346167.9574
 11  8 20 18 32 30.0000000  0  9G17G24G07G26G13G19G11G08G28
  13235399.47747  10341162.25644  23144071.9694                   23144072.8134
   5044033.98047   3953474.67244  22535009.7974                   22535011.6724
 -12772896.53948  -9982850.23046  20437287.2664                   20437285.8484
  20549220.58646  16037731.87743  23572968.7504   23572969.2114
  17833958.68446  13905396.68343  23761194.9064                   23761196.3754
  10943069.32446   8501038.84043  23764132.5234                   23764130.8404
 -12968649.34847 -10083708.04945  21665431.7194   21665430.1644
 -22267979.51248 -17338928.37346  20600210.5394                   20600209.6484
  -8942592.32047  -6951540.47745  22323257.9924                   22323256.7774
 11  8 20 18 33  0.0000000  0  9G17G24G07G26G13G19G11G08G28
  13051643.54747  10197975.92344  23109105.2974                   23109104.8364
   4901092.01646   3842091.33844  22507809.0474                   22507810.9264
 -12857800.12548 -10049008.88646  20421130.7274                   20421129.2814
  20390724.48846  15914228.50243  23542807.9534   23542808.6914
  17849808.19546  13917746.72143  23764210.7114                   23764212.6374
  10950332.98046   8506698.73944  23765514.3054                   23765512.3634
 -13072413.42647 -10164563.16445  21645685.4304   21645684.3244
 -22409323.21547 -17449066.32046  20573313.1564                   20573312.5944
  -9062966.63347  -7045338.62545  22300351.4384                   22300350.1914
 11  8 20 18 33 30.0000000  0  9G17G24G07G26G13G19G11G08G28
  12868108.44947  10054961.63044  23074179.3364                   23074178.8444
   4758491.04747   3730973.75644  22480673.1644                   22480674.5554
 -12942287.21148 -10114843.00046  20405053.4384                   20405052.1844
  20232698.12146  15791091.10443  23512736.8204   23512736.7154
  17865652.59846  13930092.81543  23767225.2344                   23767228.0634
  10957692.78546   8512433.61043  23766915.0784                   23766913.5704
 -13175659.64147 -10245014.76045  21626038.0474   21626037.4144
 -22550366.03548 -17558969.81246  20546473.7344                   20546473.2034
  -9183324.69947  -7139124.13845  22277448.0394                   22277446.3014
 11  8 20 18 34  0.0000000  0  9G17G24G07G26G13G19G11G08G28
  12684796.62947   9912121.33744  23039295.6884                   23039295.8134
   4616234.34846   3620124.43044  22453602.5784                   22453604.4654
 -13026355.81648 -10180351.03246  20389055.8444                   20389054.6724
  20075144.20346  15668321.86943  23482755.2974   23482755.3794
  17881489.42246  13942432.98743  23770239.1484                   23770241.8674
  10965146.87546   8518241.91643  23768333.8054                   23768332.2154
 -13278386.19547 -10325061.41445  21606489.9534   21606489.3244
 -22691104.62148 -17668636.25446  20519692.1414                   20519691.5664
  -9303666.13747  -7232896.65045  22254548.2274                   22254546.9494
 11  8 20 18 34 30.0000000  0  9G17G24G07G26G13G19G11G08G28
  12501711.43847   9769457.62044  23004455.5634                   23004455.7074
   4474326.48847   3509546.94044  22426598.3054                   22426599.9844
 -13110003.26248 -10245530.86146  20373138.2974                   20373136.7544
  19918066.58646  15545923.68143  23452864.2194   23452864.3954
  17897318.07446  13954766.76343  23773252.3444                   23773254.1564
  10972694.34846   8524123.00843  23769769.6564                   23769768.7704
 -13380590.23447 -10404700.90545  21587041.1094   21587040.4884
 -22831534.50048 -17778062.11946  20492969.5784                   20492968.6254
  -9423990.34447  -7326655.74845  22231650.8984                   22231649.5084
 11  8 20 18 35  0.0000000  0  9G17G24G07G26G13G19G11G08G28
  12318844.93846   9626964.30544  22969656.5234                   22969657.8284
   4332760.54346   3399235.83044  22399659.4304                   22399660.2114
 -13193238.37947 -10310389.40746  20357299.0944                   20357297.7894
  19761457.90246  15423891.02243  23423062.0864   23423062.7774
  17913125.88346  13967084.30043  23776260.2034                   23776262.6524
  10980322.97346   8530067.32743  23771221.5944                   23771219.8204
 -13482280.69147 -10483940.22245  21567690.2114   21567689.7304
 -22971662.63348 -17887252.87146  20466304.2034                   20466302.8054
  -9544307.43447  -7420409.30745  22208755.6024                   22208754.1524
 11  8 20 18 35 30.0000000  0  9G17G24G07G26G13G19G11G08G28
  12136199.91446   9484643.59344  22934900.3284                   22934902.0554
   4191540.47346   3289194.27844  22372785.5234                   22372786.7774
 -13276058.35547 -10374924.47546  20341538.7814                   20341537.6214
  19605321.30546  15302226.20443  23393350.8054   23393351.3674
  17928911.14146  13979384.25843  23779264.1024                   23779266.5124
  10988031.50146   8536073.94343  23772688.1954                   23772686.9884
 -13583454.98447 -10562777.32145  21548436.6174   21548436.4264
 -23111485.39848 -17996205.67446  20439696.2974                   20439695.3954
  -9664616.57847  -7514156.68245  22185861.4694                   22185860.3284
 11  8 20 18 36  0.0000000  0  9G17G24G07G26G13G19G11G08G28
  11953784.94946   9342502.13444  22900188.7424                   22900189.8634
   4050675.73447   3179429.61344  22345979.6724                   22345981.3444
 -13358455.66848 -10439130.18346  20325859.3204                   20325857.9264
  19449665.61746  15180936.08543  23363730.2274   23363730.7154
  17944677.94146  13991669.85443  23782264.0314                   23782266.8054
  10995824.35946   8542146.24843  23774171.2974                   23774169.9774
 -13684105.67648 -10641206.40545  21529284.1884   21529283.2034
 -23250993.21548 -18104913.06146  20413148.8984                   20413147.7734
  -9784911.69947  -7607893.09745  22162970.2584                   22162968.8834
 11  8 20 18 36 30.0000000  0  9G17G24G07G26G13G19G11G08G28
  11771612.23046   9200549.41444  22865522.3284                   22865523.8984
   3910179.51246   3069952.09244  22319244.0394                   22319246.3404
 -13440418.46147 -10502997.30846  20310262.3984                   20310261.0164
  19294503.30546  15060030.47843  23334203.7194   23334203.9804
  17960434.01246  14003947.08843  23785262.7034                   23785265.4494
  11003709.62546   8548290.52744  23775672.5784                   23775670.7624
 -13784221.39147 -10719218.63345  21510232.8984   21510231.4344
 -23390173.05148 -18213364.87646  20386663.9384                   20386662.8484
  -9905182.80147  -7701610.82045  22140082.9774                   22140081.6214
 11  8 20 18 37  0.0000000  0  9G17G24G07G26G13G19G11G08G28
  11589677.82047   9058782.41645  22830901.4384                   22830902.4884
   3770048.89147   2960759.47944  22292578.2114                   22292580.0664
 -13521951.45748 -10566529.53146  20294747.3284                   20294745.5594
  19139830.98046  14939506.56243  23304770.9534   23304771.0044
  17976171.01546  14016209.42743  23788257.9534                   23788260.1604
  11011679.07446   8554500.44144  23777189.3914                   23777186.9494
 -13883806.52747 -10796817.44145  21491282.2424   21491280.9654
 -23529027.79348 -18321563.38546  20360241.0944                   20360239.8134
 -10025435.97347  -7795314.59845  22117199.7274                   22117198.3874
 11  8 20 18 37 30.0000000  0  9G17G24G07G26G13G19G11G08G28
  11407996.67247   8917212.74645  22796328.7114                   22796329.6214
   3630299.80546   2851864.12944  22265984.6804                   22265987.0554
 -13603040.55947 -10629715.84946  20279316.2114                   20279315.0474
  18985664.05546  14819376.57543  23275434.0234   23275433.9454
  17991899.34046  14028465.02143  23791251.4844                   23791253.9654
  11019743.62546   8560784.40044  23778723.2344                   23778721.6804
 -13982847.01247 -10873991.82845  21472435.6954   21472434.1564
 -23667541.71947 -18429496.32046  20333882.4304                   20333881.4654
 -10145658.73447  -7888994.64845  22094322.1804                   22094320.5904
 11  8 20 18 38  0.0000000  0  9G17G24G07G26G13G19G11G08G28
  11226571.27047   8775842.37945  22761804.6094                   22761805.5944
   3490935.80147   2743268.86744  22239464.4304                   22239466.6024
 -13683683.79748 -10692554.75646  20263970.3054                   20263969.3324
  18832005.33246  14699642.56243  23246193.4064   23246193.9844
  18007616.79346  14040712.16043  23794242.6884                   23794244.8674
  11027901.82446   8567141.37844  23780276.1414                   23780274.2774
 -14081341.23047 -10950740.55145  21453692.1094   21453691.1684
 -23805711.30948 -18537160.93846  20307589.7894                   20307588.7584
 -10265850.66447  -7982650.67845  22071450.4064                   22071448.4534
 11  8 20 18 38 30.0000000  0  9G17G24G07G26G13G19G11G08G28
  11045398.70347   8634669.01644  22727328.8284                   22727328.9694
   3351955.13346   2634972.30944  22213017.7034                   22213018.8324
 -13763885.21548 -10755049.39446  20248708.6024                   20248707.3054
  18678851.83246  14580302.16743  23217049.2194   23217049.5944
  18023316.14846  14052945.13843  23797230.0314                   23797233.5434
  11036146.21546   8573565.49743  23781844.6094                   23781843.8404
 -14179292.85547 -11027066.45245  21435052.8914   21435051.2424
 -23943538.85548 -18644559.02346  20281362.0634                   20281361.2154
 -10386016.83247  -8076286.64045  22048583.4844                   22048582.2624
 11  8 20 18 39  0.0000000  0  9G17G24G07G26G13G19G11G08G28
  10864479.92647   8493693.40944  22692900.4774                   22692901.1054
   3213359.43846   2526975.69844  22186643.7194                   22186644.4264
 -13843644.28948 -10817199.33646  20233530.8914                   20233529.7274
  18526204.83246  14461356.49043  23188001.5164   23188002.2384
  18038994.19146  14065161.69543  23800213.8524                   23800216.5634
  11044473.99646   8580054.62243  23783428.6724                   23783429.0314
 -14276702.14147 -11102969.78745  21416516.5704   21416515.1414
 -24081022.25847 -18751688.95146  20255199.5084                   20255198.8244
 -10506158.82047  -8169903.77245  22025721.0704                   22025719.1994
 11  8 20 18 39 30.0000000  0  9G17G24G07G26G13G19G11G08G28
  10683811.15647   8352912.65244  22658519.9774                   22658520.6884
   3075146.04346   2419277.01544  22160342.3054                   22160343.3634
 -13922965.28547 -10879007.92946  20218436.4384                   20218435.6564
  18374061.32846  14342803.12543  23159049.6954   23159049.5474
  18054642.75846  14077355.17443  23803192.4224                   23803194.9884
  11052877.56346   8586602.73743  23785028.3364                   23785028.4304
 -14373573.04747 -11178453.59145  21398082.8834   21398081.6374
 -24218164.19948 -18858552.79746  20229102.5634                   20229101.5204
 -10626282.07447  -8263506.29145  22002862.0554                   22002860.7504
 11  8 20 18 40  0.0000000  0  9G17G24G07G26G13G19G11G08G28
  12078824.97347   9439936.47344  22923982.7894                   22923982.4844
   4512747.40247   3539485.93044  22433908.9144                   22433910.2424
 -12426419.47347  -9712868.35046  20503220.0704                   20503218.7774
  19797853.23846  15452251.41343  23429987.1884   23429987.9264   19645683.81646
  15317127.18543                  24105956.4454                   24105959.8874
  12636779.01246   9820811.62443  24086435.3054                   24086433.9104
 -12894476.58647 -10025910.89345  21679545.6024   21679544.1604
 -22779532.93748 -17737541.42546  20502865.0704                   20502864.1174
  -9170958.26247  -7129487.73345  22279801.3914                   22279799.9924
 11  8 20 18 40 30.0000000  0  9G17G24G07G26G13G19G11G08G28
  11898670.84847   9299556.71444  22889700.1024                   22889700.5124
   4375316.33247   3432396.84644  22407756.3204                   22407757.8794
 -12504851.71947  -9773984.41346  20488294.7344                   20488293.6334
  19646731.98046  15334494.64943  23401230.2974   23401230.6484   19661274.93846
  15329275.87943                  24108923.6644                   24108926.9384
  12645336.63346   9827479.82743  24088063.7344                   24088062.6844
 -12990258.93747 -10100546.48545  21661318.8444   21661317.4144
 -22915974.80948 -17843859.77046  20476900.9614                   20476900.1724
  -9291036.16847  -7223054.91845  22256950.9064                   22256949.3914
 11  8 20 18 41  0.0000000  0  9G17G24G07G26G13G19G11G08G28
  11718776.95747   9159379.74944  22855467.7344                   22855468.2074
   4238280.71147   3325615.88644  22381679.2424                   22381681.3484
 -12582837.62547  -9834752.68646  20473454.6954                   20473453.0704
  19496125.07846  15217138.63343  23372571.0084   23372571.4184   19676833.77046
  15341399.38743                  24111884.8524                   24111888.8204
  12653967.89146   9834205.36143  24089705.9144                   24089704.8594
 -13085495.60247 -10174756.85845  21643195.6644   21643194.7304
 -23052062.21547 -17949901.91346  20451004.1254                   20451003.2664
  -9411091.61747  -7316604.62145  22234105.9144                   22234104.1954
 11  8 20 18 41 30.0000000  0  9G17G24G07G26G13G19G11G08G28
  11539140.43847   9019403.30445  22821284.0004                   22821284.7194
   4101638.67247   3219141.62544  22355677.2194                   22355679.0744
 -12660381.16447  -9895176.23546  20458698.3444                   20458697.2344
  19346029.89846  15100181.34843  23344008.8834   23344009.5204   19692352.89846
  15353492.03142                  24114837.3754                   24114841.7704
  12662665.87946   9840982.94443  24091362.2504                   24091359.5944
 -13180190.26647 -10248544.88945  21625175.9304   21625174.9774
 -23187796.94147 -18055669.23446  20425174.6884                   20425173.8634
  -9531129.71547  -7410140.78545  22211262.6484                   22211261.7074
